[[{"header":{"parameterUnit":"m.s-1","parameterCategory":1,"la1":31.0,"la2":29.5877,"lo1":-88.7671,"lo2":-86.6584,"dy":0.0162,"dx":0.0185,"nx":115,"ny":88,"refTime":"2026-04-18T00:00:00:Z","depth":0,"parameterNumber":2,"parameterNumberName":"U-component_of_WINDS"},"data":[0.0,0.0,0.0,0.0,0.0,0.0,0.0,0.0,0.0,0.0,0.0,0.0,0.0,0.0,0.0,0.0,0.0,0.0,0.0,0.0,0.0,0.0,0.0,0.0,0.0,0.0,0.0,0.0,0.0,0.0,0.0,0.0,0.0,0.0,0.0,0.0,0.0,0.0,0.0,0.0,0.0,0.0,0.0,0.0,0.0,0.0,0.0,0.0,0.0,0.0,0.0,0.0,0.0,0.0,0.0,0.0,0.0,0.0,0.0,0.0,0.0,0.0,0.0,0.0,0.0,0.0,0.0,0.0,0.0,0.0,0.0,0.0,0.0,0.0,0.0,0.0,0.0,0.0,0.0,0.0,0.0,0.0,0.0,0.0,0.0,0.0,0.0,0.0,0.0,0.0,0.0,0.0,0.0,0.0,0.0,0.0,0.0,0.0,0.0,0.0,0.0,0.0,0.0,0.0,0.0,0.0,0.0,0.0,0.0,0.0,0.0,0.0,0.0,0.0,0.0,0.0,0.0,0.0,0.0,0.0,0.0,0.0,0.0,0.0,0.0,0.0,0.0,0.0,0.0,0.0,0.0,0.0,0.0,0.0,0.0,0.0,0.0,0.0,0.0,0.0,0.0,0.0,0.0,0.0,0.0,0.0,0.0,0.0,0.0,0.0,0.0,0.0,0.0,0.0,0.0,0.0,0.0,0.0,0.0,0.0,0.0,0.0,0.0,0.0,0.0,0.0,0.0,0.0,0.0,0.0,0.0,0.0,0.0,0.0,0.0,0.0,0.0,0.0,0.0,0.0,0.0,0.0,0.0,0.0,0.0,0.0,0.0,0.0,0.0,0.0,0.0,0.0,0.0,0.0,0.0,0.0,0.0,0.0,0.0,0.0,0.0,0.0,0.0,0.0,0.0,0.0,0.0,0.0,0.0,0.0,0.0,0.0,0.0,0.0,0.0,0.0,0.0,0.0,0.0,0.0,0.0,0.0,0.0,0.0,0.0,0.0,0.0,0.0,0.0,0.0,0.0,0.0,0.0,0.0,0.0,0.0,0.0,0.0,0.0,0.0,0.0,0.0,0.0,0.0,0.0,0.0,0.0,0.0,0.0,0.0,0.0,0.0,0.0,0.0,0.0,0.0,0.0,0.0,0.0,0.0,0.0,0.0,0.0,0.0,0.0,0.0,0.0,0.0,0.0,0.0,0.0,0.0,0.0,0.0,0.0,0.0,0.0,0.0,0.0,0.0,0.0,0.0,0.0,0.0,0.0,0.0,0.0,0.0,0.0,0.0,0.0,0.0,0.0,0.0,0.0,0.0,0.0,0.0,0.0,0.0,0.0,0.0,0.0,0.0,0.0,0.0,0.0,0.0,0.0,0.0,0.0,0.0,0.0,0.0,0.0,0.0,0.0,0.0,0.0,0.0,0.0,0.0,0.0,0.0,0.0,0.0,0.0,0.0,0.0,0.0,0.0,0.0,0.0,0.0,0.0,0.0,0.0,0.0,0.0,0.0,0.0,0.0,0.0,0.0,0.0,0.0,0.0,0.0,0.0,0.0,0.0,0.0,0.0,0.0,0.0,0.0,0.0,0.0,0.0,0.0,0.0,0.0,0.0,0.0,0.0,0.0,0.0,0.0,0.0,0.0,0.0,0.0,0.0,0.0,0.0,0.0,0.0,0.0,0.0,0.0,0.0,0.0,0.0,0.0,0.0,0.0,0.0,0.0,0.0,0.0,0.0,0.0,0.0,0.0,0.0,0.0,0.0,0.0,0.0,0.0,0.0,0.0,0.0,0.0,0.0,0.0,0.0,0.0,0.0,0.0,0.0,0.0,0.0,0.0,0.0,0.0,0.0,0.0,0.0,0.0,0.0,0.0,0.0,0.0,0.0,0.0,0.0,0.0,0.0,0.0,0.0,0.0,0.0,0.0,0.0,0.0,0.0,0.0,0.0,0.0,0.0,0.0,0.0,0.0,0.0,0.0,0.0,0.0,0.0,0.0,0.0,0.0,0.0,0.0,0.0,0.0,0.0,0.0,0.0,0.0,0.0,0.0,0.0,0.0,0.0,0.0,0.0,0.0,0.0,0.0,0.0,0.0,0.0,0.0,0.0,0.0,0.0,0.0,0.0,0.0,0.0,0.0,0.0,0.0,0.0,0.0,0.0,0.0,0.0,0.0,0.0,0.0,0.0,0.0,0.0,0.0,0.0,0.0,0.0,0.0,0.0,0.0,0.0,0.0,0.0,0.0,0.0,0.0,0.0,0.0,0.0,0.0,0.0,0.0,0.0,0.0,0.0,0.0,0.0,0.0,0.0,0.0,0.0,0.0,0.0,0.0,0.0,0.0,0.0,0.0,0.0,0.0,0.0,0.0,0.0,0.0,0.0,0.0,0.0,0.0,0.0,0.0,0.0,0.0,0.0,0.0,0.0,0.0,0.0,0.0,0.0,0.0,0.0,0.0,0.0,0.0,0.0,0.0,0.0,0.0,0.0,0.0,0.0,0.0,0.0,0.0,0.0,0.0,0.0,0.0,0.0,0.0,0.0,0.0,0.0,0.0,0.0,0.0,0.0,0.0,0.0,0.0,0.0,0.0,0.0,0.0,0.0,0.0,0.0,0.0,0.0,0.0,0.0,0.0,0.0,0.0,0.0,0.0,0.0,0.0,0.0,0.0,0.0,0.0,0.0,0.0,0.0,0.0,0.0,0.0,0.0,0.0,0.0,0.0,0.0,0.0,0.0,0.0,0.0,0.0,0.0,0.0,0.0,0.0,0.0,0.0,0.0,0.0,0.0,0.0,0.0,0.0,0.0,0.0,0.0,0.0,0.0,0.0,0.0,0.0,0.0,0.0,0.0,0.0,0.0,0.0,0.0,0.0,0.0,0.0,0.0,0.0,0.0,0.0,0.0,0.0,0.0,0.0,0.0,0.0,0.0,0.0,0.0,0.0,0.0,0.0,0.0,0.0,0.0,0.0,0.0,0.0,0.0,0.0,0.0,0.0,0.0,0.0,0.0,0.0,0.0,0.0,0.0,0.0,0.0,0.0,0.0,0.0,0.0,0.0,0.0,0.0,0.0,0.0,0.0,0.0,0.0,0.0,0.0,0.0,0.0,0.0,0.0,0.0,0.0,0.0,0.0,0.0,0.0,0.0,0.0,0.0,0.0,0.0,0.0,0.0,0.0,0.0,0.0,0.0,0.0,0.0,0.0,0.0,0.0,0.0,0.0,0.0,0.0,0.0,0.0,0.0,0.0,0.0,0.0,0.0,0.0,0.0,0.0,0.0,0.0,0.0,0.0,0.0,0.0,0.0,0.0,0.0,0.0,0.0,0.0,0.0,0.0,0.0,0.0,0.0,0.0,0.0,0.0,0.0,0.0,0.0,0.0,0.0,0.0,0.0,0.0,0.0,0.0,0.0,0.0,0.0,0.0,0.0,0.0,0.0,0.0,0.0,0.0,0.0,0.0,0.0,0.0,0.0,0.0,0.0,0.0,0.0,0.0,0.0,0.0,0.0,0.0,0.0,0.0,0.0,0.0,0.0,0.0,0.0,0.0,0.0,0.0,0.0,0.0,0.0,0.0,0.0,0.0,0.0,0.0,0.0,0.0,0.0,0.0,0.0,0.0,0.0,0.0,0.0,0.0,0.0,0.0,0.0,0.0,0.0,0.0,0.0,0.0,0.0,0.0,0.0,0.0,0.0,0.0,0.0,0.0,0.0,0.0,0.0,0.0,0.0,0.0,0.0,0.0,0.0,0.0,0.0,0.0,0.0,0.0,0.0,0.0,0.0,0.0,0.0,0.0,0.0,0.0,0.0,0.0,0.0,0.0,0.0,0.0,0.0,0.0,0.0,0.0,0.0,0.0,0.0,0.0,0.0,0.0,0.0,0.0,0.0,0.0,0.0,0.0,0.0,0.0,0.0,0.0,0.0,0.0,0.0,0.0,0.0,0.0,0.0,0.0,0.0,0.0,0.0,0.0,0.0,0.0,0.0,0.0,0.0,0.0,0.0,0.0,0.0,0.0,0.0,0.0,0.0,0.0,0.0,0.0,0.0,0.0,0.0,0.0,0.0,0.0,0.0,0.0,0.0,0.0,0.0,0.0,0.0,0.0,0.0,0.0,0.0,0.0,0.0,0.0,0.0,0.0,0.0,0.0,0.0,0.0,0.0,0.0,0.0,0.0,0.0,0.0,0.0,0.0,0.0,0.0,0.0,0.0,0.0,0.0,0.0,0.0,0.0,0.0,0.0,0.0,0.0,0.0,0.0,0.0,0.0,0.0,0.0,6.5903,0.0,0.0,0.0,0.0,0.0,0.0,0.0,0.0,0.0,0.0,0.0,0.0,0.0,0.0,0.0,0.0,0.0,0.0,0.0,0.0,0.0,0.0,0.0,0.0,0.0,0.0,0.0,0.0,0.0,0.0,0.0,0.0,0.0,0.0,0.0,0.0,0.0,0.0,0.0,0.0,0.0,0.0,0.0,0.0,0.0,0.0,0.0,0.0,0.0,0.0,0.0,0.0,0.0,0.0,0.0,0.0,0.0,0.0,0.0,0.0,0.0,0.0,0.0,0.0,0.0,0.0,0.0,0.0,0.0,0.0,0.0,0.0,0.0,0.0,0.0,0.0,0.0,0.0,0.0,0.0,0.0,0.0,0.0,0.0,0.0,0.0,0.0,0.0,0.0,0.0,0.0,0.0,0.0,0.0,0.0,0.0,0.0,0.0,0.0,0.0,0.0,0.0,0.0,0.0,0.0,0.0,0.0,0.0,0.0,0.0,6.9026,6.8663,6.8506,6.8073,6.7342,0.0,0.0,0.0,0.0,0.0,0.0,0.0,0.0,0.0,0.0,0.0,0.0,0.0,0.0,0.0,0.0,0.0,0.0,0.0,0.0,0.0,0.0,0.0,0.0,0.0,0.0,0.0,0.0,0.0,0.0,0.0,0.0,0.0,0.0,0.0,0.0,0.0,0.0,0.0,0.0,0.0,0.0,0.0,0.0,0.0,0.0,0.0,0.0,0.0,0.0,0.0,0.0,0.0,0.0,0.0,0.0,0.0,0.0,0.0,0.0,0.0,0.0,0.0,0.0,0.0,0.0,0.0,0.0,0.0,0.0,0.0,0.0,0.0,0.0,0.0,0.0,0.0,0.0,0.0,0.0,0.0,0.0,0.0,0.0,0.0,0.0,0.0,0.0,0.0,0.0,0.0,0.0,0.0,0.0,0.0,0.0,0.0,0.0,0.0,0.0,0.0,0.0,0.0,0.0,0.0,0.0,0.0,0.0,0.0,0.0,0.0,0.0,6.9371,6.8834,6.7862,0.0,0.0,0.0,0.0,0.0,0.0,0.0,0.0,0.0,0.0,0.0,0.0,0.0,0.0,0.0,0.0,0.0,0.0,0.0,0.0,0.0,0.0,0.0,0.0,0.0,0.0,0.0,0.0,0.0,0.0,0.0,0.0,0.0,0.0,0.0,0.0,0.0,0.0,0.0,0.0,0.0,0.0,0.0,0.0,0.0,0.0,0.0,0.0,0.0,0.0,0.0,0.0,0.0,0.0,0.0,0.0,0.0,0.0,0.0,0.0,0.0,0.0,0.0,0.0,0.0,0.0,0.0,0.0,0.0,0.0,0.0,0.0,0.0,0.0,0.0,0.0,0.0,0.0,0.0,0.0,0.0,0.0,0.0,0.0,0.0,0.0,0.0,0.0,0.0,0.0,0.0,0.0,0.0,0.0,0.0,0.0,0.0,0.0,0.0,0.0,0.0,0.0,0.0,0.0,0.0,0.0,0.0,0.0,0.0,0.0,7.0263,7.0383,7.1163,0.0,6.6402,0.0,0.0,0.0,0.0,0.0,0.0,0.0,0.0,0.0,0.0,0.0,0.0,0.0,0.0,0.0,0.0,0.0,0.0,0.0,0.0,0.0,0.0,0.0,0.0,0.0,0.0,0.0,0.0,0.0,0.0,0.0,0.0,0.0,0.0,0.0,0.0,0.0,0.0,0.0,0.0,0.0,0.0,0.0,0.0,0.0,0.0,0.0,0.0,0.0,0.0,0.0,0.0,0.0,0.0,0.0,0.0,0.0,0.0,0.0,0.0,0.0,0.0,0.0,0.0,0.0,0.0,0.0,0.0,0.0,0.0,0.0,0.0,0.0,0.0,0.0,0.0,0.0,0.0,0.0,0.0,0.0,0.0,0.0,0.0,0.0,0.0,0.0,0.0,0.0,0.0,0.0,0.0,0.0,0.0,0.0,0.0,0.0,0.0,0.0,0.0,0.0,0.0,0.0,0.0,0.0,0.0,0.0,0.0,0.0,0.0,7.1027,7.1081,7.1068,6.9683,0.0,0.0,0.0,0.0,0.0,0.0,0.0,0.0,0.0,0.0,0.0,0.0,0.0,0.0,0.0,0.0,0.0,0.0,0.0,0.0,0.0,0.0,0.0,0.0,0.0,0.0,0.0,0.0,0.0,0.0,0.0,0.0,0.0,0.0,0.0,0.0,0.0,0.0,0.0,0.0,0.0,0.0,0.0,0.0,0.0,0.0,0.0,0.0,0.0,0.0,0.0,0.0,0.0,0.0,0.0,0.0,0.0,0.0,0.0,0.0,0.0,0.0,0.0,0.0,0.0,0.0,0.0,0.0,0.0,0.0,0.0,0.0,0.0,0.0,0.0,0.0,0.0,0.0,0.0,0.0,0.0,0.0,0.0,0.0,0.0,0.0,0.0,0.0,0.0,0.0,0.0,0.0,0.0,0.0,0.0,0.0,0.0,0.0,0.0,0.0,0.0,0.0,0.0,0.0,0.0,0.0,0.0,0.0,0.0,0.0,7.0478,7.1326,7.1736,7.0766,6.9186,6.7099,0.0,0.0,0.0,0.0,0.0,0.0,0.0,0.0,0.0,0.0,0.0,0.0,0.0,0.0,0.0,0.0,0.0,0.0,0.0,0.0,0.0,0.0,0.0,0.0,0.0,0.0,0.0,0.0,0.0,0.0,0.0,0.0,0.0,0.0,0.0,0.0,0.0,0.0,0.0,0.0,0.0,0.0,0.0,0.0,0.0,0.0,0.0,0.0,0.0,0.0,0.0,0.0,0.0,0.0,0.0,0.0,0.0,0.0,0.0,0.0,0.0,0.0,0.0,0.0,0.0,0.0,0.0,0.0,0.0,0.0,0.0,0.0,0.0,0.0,0.0,0.0,0.0,0.0,0.0,0.0,0.0,0.0,0.0,0.0,0.0,0.0,0.0,0.0,0.0,0.0,0.0,0.0,0.0,0.0,0.0,0.0,0.0,0.0,0.0,0.0,0.0,0.0,0.0,0.0,0.0,0.0,0.0,0.0,0.0,7.016,7.0958,7.2518,7.0508,6.8569,0.0,0.0,0.0,0.0,0.0,0.0,0.0,0.0,0.0,0.0,0.0,0.0,0.0,0.0,0.0,0.0,0.0,0.0,0.0,0.0,0.0,0.0,0.0,0.0,0.0,0.0,0.0,0.0,0.0,0.0,0.0,0.0,0.0,0.0,0.0,0.0,0.0,0.0,0.0,0.0,0.0,0.0,0.0,0.0,0.0,0.0,0.0,0.0,0.0,0.0,0.0,0.0,0.0,0.0,0.0,0.0,0.0,0.0,0.0,0.0,0.0,0.0,0.0,0.0,0.0,0.0,0.0,0.0,0.0,0.0,0.0,0.0,0.0,0.0,0.0,0.0,0.0,0.0,0.0,0.0,0.0,0.0,0.0,0.0,0.0,0.0,0.0,0.0,0.0,0.0,0.0,0.0,0.0,0.0,0.0,0.0,0.0,0.0,0.0,0.0,0.0,0.0,0.0,0.0,0.0,0.0,0.0,0.0,0.0,7.0117,7.1101,7.1673,7.1752,7.002,6.8107,0.0,0.0,0.0,0.0,0.0,0.0,0.0,0.0,0.0,0.0,0.0,0.0,0.0,0.0,0.0,0.0,0.0,0.0,0.0,0.0,0.0,0.0,0.0,0.0,0.0,0.0,0.0,0.0,0.0,0.0,0.0,0.0,0.0,0.0,0.0,0.0,0.0,0.0,0.0,0.0,0.0,0.0,0.0,0.0,0.0,0.0,0.0,0.0,0.0,0.0,0.0,0.0,0.0,0.0,0.0,0.0,0.0,0.0,0.0,0.0,0.0,0.0,0.0,0.0,0.0,0.0,0.0,0.0,0.0,0.0,0.0,0.0,0.0,0.0,0.0,0.0,0.0,0.0,0.0,0.0,0.0,0.0,0.0,0.0,0.0,0.0,0.0,0.0,0.0,0.0,0.0,0.0,0.0,0.0,0.0,0.0,0.0,0.0,0.0,0.0,0.0,0.0,0.0,0.0,0.0,0.0,0.0,0.0,0.0,7.0513,0.0,7.2642,0.0,7.025,6.8058,0.0,0.0,0.0,0.0,0.0,0.0,0.0,0.0,0.0,0.0,0.0,0.0,0.0,0.0,0.0,0.0,0.0,0.0,0.0,0.0,0.0,0.0,0.0,0.0,0.0,0.0,0.0,0.0,0.0,0.0,0.0,0.0,0.0,0.0,0.0,0.0,0.0,0.0,0.0,0.0,0.0,0.0,0.0,0.0,0.0,0.0,0.0,0.0,0.0,0.0,0.0,0.0,0.0,0.0,0.0,0.0,0.0,0.0,0.0,0.0,0.0,0.0,0.0,0.0,0.0,0.0,0.0,0.0,0.0,0.0,0.0,0.0,0.0,0.0,0.0,0.0,0.0,0.0,0.0,0.0,0.0,0.0,0.0,0.0,0.0,0.0,0.0,0.0,0.0,0.0,0.0,0.0,0.0,0.0,0.0,0.0,0.0,0.0,0.0,0.0,0.0,0.0,0.0,0.0,0.0,0.0,0.0,0.0,6.8949,7.1241,7.287,7.3619,7.3611,7.1298,6.8575,0.0,0.0,0.0,0.0,0.0,0.0,0.0,0.0,0.0,0.0,0.0,0.0,0.0,0.0,0.0,0.0,0.0,0.0,0.0,0.0,0.0,0.0,0.0,0.0,0.0,0.0,0.0,0.0,0.0,0.0,0.0,0.0,0.0,0.0,0.0,0.0,0.0,0.0,0.0,0.0,0.0,0.0,0.0,0.0,0.0,0.0,0.0,0.0,0.0,0.0,0.0,0.0,0.0,0.0,0.0,0.0,0.0,0.0,0.0,0.0,0.0,0.0,0.0,0.0,0.0,0.0,0.0,0.0,0.0,0.0,0.0,0.0,0.0,0.0,0.0,0.0,0.0,0.0,0.0,0.0,0.0,0.0,0.0,0.0,0.0,0.0,0.0,0.0,0.0,0.0,0.0,0.0,0.0,0.0,0.0,0.0,0.0,0.0,0.0,0.0,0.0,0.0,0.0,0.0,0.0,0.0,0.0,0.0,0.0,7.2218,7.3359,7.3616,7.2998,7.1202,6.8683,0.0,0.0,0.0,0.0,0.0,0.0,0.0,0.0,0.0,0.0,0.0,0.0,0.0,0.0,0.0,0.0,0.0,0.0,0.0,0.0,0.0,0.0,0.0,0.0,0.0,0.0,0.0,0.0,0.0,0.0,0.0,0.0,0.0,0.0,0.0,0.0,0.0,0.0,0.0,0.0,0.0,0.0,0.0,0.0,0.0,0.0,0.0,0.0,0.0,0.0,0.0,0.0,0.0,0.0,0.0,0.0,0.0,0.0,0.0,0.0,0.0,0.0,0.0,0.0,0.0,0.0,0.0,0.0,0.0,0.0,0.0,0.0,0.0,0.0,0.0,0.0,0.0,0.0,0.0,0.0,0.0,0.0,0.0,0.0,0.0,0.0,0.0,0.0,0.0,0.0,0.0,0.0,0.0,0.0,0.0,0.0,0.0,0.0,0.0,0.0,0.0,0.0,0.0,0.0,0.0,0.0,0.0,0.0,0.0,7.3737,7.4714,7.4779,7.3873,7.2267,6.9642,6.5973,0.0,0.0,0.0,0.0,0.0,0.0,0.0,0.0,0.0,0.0,0.0,0.0,0.0,0.0,0.0,0.0,0.0,0.0,0.0,0.0,0.0,0.0,0.0,0.0,0.0,0.0,0.0,0.0,0.0,0.0,0.0,0.0,0.0,0.0,0.0,0.0,0.0,0.0,0.0,0.0,0.0,0.0,0.0,0.0,0.0,0.0,0.0,0.0,0.0,0.0,0.0,0.0,0.0,0.0,0.0,0.0,0.0,0.0,0.0,0.0,0.0,0.0,0.0,0.0,0.0,0.0,0.0,0.0,0.0,0.0,0.0,0.0,0.0,0.0,0.0,0.0,0.0,0.0,0.0,0.0,0.0,0.0,0.0,0.0,0.0,0.0,0.0,0.0,0.0,0.0,0.0,0.0,0.0,0.0,0.0,0.0,0.0,0.0,0.0,0.0,0.0,0.0,0.0,0.0,0.0,0.0,0.0,0.0,7.5814,7.6895,7.6992,7.5976,7.4347,7.1424,0.0,0.0,0.0,0.0,0.0,0.0,0.0,0.0,0.0,0.0,0.0,0.0,0.0,0.0,0.0,0.0,0.0,0.0,0.0,0.0,0.0,0.0,0.0,0.0,0.0,0.0,0.0,0.0,0.0,0.0,0.0,0.0,0.0,0.0,0.0,0.0,0.0,0.0,0.0,0.0,0.0,0.0,0.0,0.0,0.0,0.0,0.0,0.0,0.0,0.0,0.0,0.0,0.0,0.0,0.0,0.0,0.0,0.0,0.0,0.0,0.0,0.0,0.0,0.0,0.0,0.0,0.0,0.0,0.0,0.0,0.0,0.0,0.0,0.0,0.0,0.0,0.0,0.0,0.0,0.0,0.0,0.0,0.0,0.0,0.0,0.0,0.0,0.0,0.0,0.0,0.0,0.0,0.0,0.0,0.0,0.0,0.0,0.0,0.0,0.0,0.0,0.0,0.0,0.0,0.0,0.0,0.0,0.0,0.0,7.8701,7.9908,7.9709,7.7995,7.6163,7.3475,0.0,0.0,0.0,0.0,0.0,0.0,0.0,0.0,0.0,0.0,0.0,0.0,0.0,0.0,0.0,0.0,0.0,0.0,0.0,0.0,0.0,0.0,0.0,0.0,0.0,0.0,0.0,0.0,0.0,0.0,0.0,0.0,0.0,0.0,0.0,0.0,0.0,0.0,0.0,0.0,0.0,0.0,0.0,0.0,0.0,0.0,0.0,0.0,0.0,0.0,0.0,0.0,0.0,0.0,0.0,0.0,0.0,0.0,0.0,0.0,0.0,0.0,0.0,0.0,0.0,0.0,0.0,0.0,0.0,0.0,0.0,0.0,0.0,0.0,0.0,0.0,0.0,0.0,0.0,0.0,0.0,0.0,0.0,0.0,0.0,0.0,0.0,0.0,0.0,0.0,0.0,0.0,0.0,0.0,0.0,0.0,0.0,0.0,0.0,0.0,0.0,0.0,0.0,0.0,0.0,0.0,0.0,0.0,7.7646,8.0298,8.2276,8.2579,8.1091,7.8187,7.5099,0.0,0.0,0.0,0.0,0.0,0.0,0.0,0.0,0.0,0.0,0.0,0.0,0.0,0.0,0.0,0.0,0.0,0.0,0.0,0.0,0.0,0.0,0.0,0.0,0.0,0.0,0.0,0.0,0.0,0.0,0.0,0.0,0.0,0.0,0.0,0.0,0.0,0.0,0.0,0.0,0.0,0.0,0.0,0.0,0.0,0.0,0.0,0.0,0.0,0.0,0.0,0.0,0.0,0.0,0.0,0.0,0.0,0.0,0.0,0.0,0.0,0.0,0.0,0.0,0.0,0.0,0.0,0.0,0.0,0.0,0.0,0.0,0.0,0.0,0.0,0.0,0.0,0.0,0.0,0.0,0.0,0.0,0.0,0.0,0.0,0.0,0.0,0.0,0.0,0.0,0.0,0.0,0.0,0.0,0.0,0.0,0.0,0.0,0.0,0.0,0.0,0.0,0.0,0.0,0.0,0.0,0.0,0.0,7.8898,8.1387,8.415,8.5264,8.4455,8.028,7.6605,0.0,0.0,0.0,0.0,0.0,0.0,0.0,0.0,0.0,0.0,0.0,0.0,0.0,0.0,0.0,0.0,0.0,0.0,0.0,0.0,0.0,0.0,0.0,0.0,0.0,0.0,0.0,0.0,0.0,0.0,0.0,0.0,0.0,0.0,0.0,0.0,0.0,0.0,0.0,0.0,0.0,0.0,0.0,0.0,0.0,0.0,0.0,0.0,0.0,0.0,0.0,0.0,0.0,0.0,0.0,0.0,0.0,0.0,0.0,0.0,0.0,0.0,0.0,0.0,0.0,0.0,0.0,0.0,0.0,0.0,0.0,0.0,0.0,0.0,0.0,0.0,0.0,0.0,0.0,0.0,0.0,0.0,0.0,0.0,0.0,0.0,0.0,0.0,0.0,0.0,0.0,0.0,0.0,0.0,0.0,0.0,0.0,0.0,0.0,0.0,0.0,0.0,0.0,0.0,0.0,0.0,0.0,0.0,8.1345,8.4128,8.5582,8.6269,8.618,8.2471,7.8851,0.0,0.0,0.0,0.0,0.0,0.0,0.0,0.0,0.0,0.0,0.0,0.0,0.0,0.0,0.0,0.0,0.0,0.0,0.0,0.0,0.0,0.0,0.0,0.0,0.0,0.0,0.0,0.0,0.0,0.0,0.0,0.0,0.0,0.0,0.0,0.0,0.0,0.0,0.0,0.0,0.0,0.0,0.0,0.0,0.0,0.0,0.0,0.0,7.1035,0.0,0.0,0.0,0.0,0.0,0.0,0.0,0.0,0.0,0.0,0.0,0.0,0.0,0.0,0.0,0.0,0.0,0.0,0.0,0.0,0.0,0.0,0.0,0.0,0.0,0.0,0.0,0.0,0.0,0.0,0.0,0.0,0.0,0.0,0.0,0.0,0.0,0.0,0.0,0.0,0.0,0.0,0.0,0.0,0.0,0.0,0.0,0.0,0.0,0.0,0.0,0.0,0.0,0.0,0.0,0.0,0.0,0.0,0.0,8.2861,8.6001,8.6977,8.7459,8.7447,8.4563,8.096,0.0,0.0,0.0,0.0,0.0,0.0,0.0,0.0,0.0,0.0,0.0,0.0,0.0,0.0,0.0,0.0,0.0,0.0,0.0,0.0,0.0,0.0,0.0,0.0,0.0,0.0,0.0,0.0,0.0,0.0,0.0,0.0,0.0,0.0,0.0,0.0,0.0,0.0,0.0,0.0,0.0,0.0,0.0,0.0,0.0,0.0,0.0,0.0,0.0,0.0,0.0,0.0,0.0,0.0,0.0,0.0,0.0,0.0,0.0,0.0,0.0,0.0,0.0,0.0,0.0,0.0,0.0,0.0,0.0,0.0,0.0,0.0,0.0,0.0,0.0,0.0,0.0,0.0,0.0,0.0,0.0,0.0,0.0,0.0,0.0,0.0,0.0,0.0,0.0,0.0,0.0,0.0,0.0,0.0,0.0,0.0,0.0,0.0,0.0,0.0,0.0,0.0,0.0,0.0,0.0,0.0,0.0,8.0031,8.3884,8.7323,8.8144,8.8518,8.8481,8.603,8.2351,7.7428,0.0,0.0,0.0,0.0,0.0,0.0,0.0,0.0,0.0,0.0,0.0,0.0,0.0,0.0,0.0,0.0,0.0,0.0,0.0,0.0,0.0,0.0,0.0,0.0,0.0,0.0,0.0,0.0,0.0,0.0,0.0,0.0,0.0,0.0,0.0,0.0,0.0,0.0,6.9947,7.194,0.0,0.0,0.0,0.0,0.0,0.0,0.0,0.0,7.0872,0.0,0.0,0.0,0.0,0.0,0.0,0.0,0.0,0.0,0.0,0.0,0.0,0.0,0.0,0.0,0.0,0.0,0.0,0.0,0.0,0.0,0.0,0.0,0.0,0.0,0.0,0.0,0.0,0.0,0.0,0.0,0.0,0.0,0.0,0.0,0.0,0.0,0.0,0.0,0.0,0.0,0.0,0.0,0.0,0.0,0.0,0.0,0.0,0.0,0.0,0.0,0.0,0.0,0.0,0.0,0.0,7.6676,8.0855,8.474,8.8212,8.8443,8.8518,8.8406,8.5462,8.165,7.7218,0.0,0.0,0.0,0.0,0.0,0.0,0.0,0.0,0.0,0.0,0.0,0.0,0.0,0.0,0.0,0.0,0.0,0.0,0.0,0.0,0.0,0.0,0.0,0.0,0.0,0.0,0.0,0.0,0.0,0.0,0.0,0.0,0.0,0.0,0.0,0.0,0.0,0.0,0.0,7.2206,7.2664,0.0,0.0,0.0,0.0,0.0,0.0,0.0,0.0,7.0738,0.0,0.0,0.0,0.0,0.0,0.0,0.0,0.0,0.0,0.0,0.0,0.0,0.0,0.0,0.0,0.0,0.0,0.0,0.0,0.0,0.0,0.0,0.0,0.0,0.0,0.0,0.0,0.0,0.0,0.0,0.0,0.0,0.0,0.0,0.0,0.0,0.0,0.0,0.0,0.0,0.0,0.0,0.0,0.0,0.0,0.0,0.0,0.0,0.0,0.0,0.0,0.0,0.0,0.0,0.0,7.7559,8.1658,8.573,8.9473,8.8771,8.8688,8.9433,8.5969,8.2131,0.0,0.0,0.0,0.0,0.0,0.0,0.0,0.0,0.0,0.0,0.0,0.0,0.0,0.0,0.0,0.0,0.0,0.0,0.0,0.0,0.0,0.0,0.0,0.0,0.0,0.0,0.0,0.0,0.0,0.0,0.0,0.0,0.0,0.0,0.0,0.0,0.0,0.0,0.0,0.0,7.266,7.321,7.4162,0.0,0.0,0.0,0.0,0.0,0.0,7.1703,7.1484,0.0,0.0,0.0,0.0,0.0,0.0,0.0,0.0,0.0,0.0,0.0,0.0,0.0,0.0,0.0,0.0,0.0,0.0,0.0,0.0,0.0,0.0,0.0,0.0,0.0,0.0,0.0,0.0,0.0,0.0,0.0,0.0,0.0,0.0,0.0,0.0,0.0,0.0,0.0,0.0,0.0,0.0,0.0,0.0,0.0,0.0,0.0,0.0,0.0,0.0,0.0,0.0,0.0,0.0,0.0,7.8332,8.2482,8.663,9.0474,8.9166,8.9021,9.035,8.6166,8.2282,0.0,0.0,0.0,0.0,0.0,0.0,0.0,0.0,0.0,0.0,0.0,0.0,0.0,0.0,0.0,0.0,0.0,0.0,0.0,0.0,0.0,0.0,0.0,0.0,0.0,0.0,0.0,0.0,0.0,0.0,0.0,0.0,0.0,0.0,0.0,0.0,0.0,0.0,0.0,0.0,0.0,7.4134,7.5265,7.5134,0.0,0.0,0.0,0.0,7.3612,7.307,0.0,0.0,0.0,0.0,0.0,0.0,0.0,0.0,0.0,0.0,0.0,0.0,0.0,0.0,0.0,0.0,0.0,0.0,0.0,0.0,0.0,0.0,0.0,0.0,0.0,0.0,0.0,0.0,0.0,0.0,0.0,0.0,0.0,0.0,0.0,0.0,0.0,0.0,0.0,0.0,0.0,0.0,0.0,0.0,0.0,0.0,0.0,0.0,0.0,0.0,0.0,0.0,0.0,0.0,0.0,0.0,7.8973,8.3239,8.7133,9.0308,8.9623,8.9578,9.0387,8.4983,8.077,0.0,0.0,0.0,0.0,0.0,0.0,0.0,0.0,0.0,0.0,0.0,0.0,0.0,0.0,0.0,0.0,0.0,0.0,0.0,0.0,0.0,0.0,0.0,0.0,0.0,0.0,0.0,0.0,0.0,0.0,0.0,0.0,0.0,0.0,0.0,0.0,0.0,0.0,0.0,0.0,0.0,7.5159,7.6854,7.6373,7.5861,0.0,0.0,7.4258,7.3635,7.3958,0.0,0.0,0.0,0.0,0.0,0.0,0.0,0.0,0.0,0.0,0.0,0.0,0.0,0.0,0.0,0.0,0.0,0.0,0.0,0.0,0.0,0.0,0.0,0.0,0.0,0.0,0.0,0.0,0.0,0.0,0.0,0.0,0.0,0.0,0.0,0.0,0.0,0.0,0.0,0.0,0.0,0.0,0.0,0.0,0.0,0.0,0.0,0.0,0.0,0.0,0.0,0.0,0.0,0.0,0.0,7.5462,7.9128,8.3862,8.7638,9.035,8.9727,8.9681,9.0462,8.5227,8.0978,0.0,0.0,0.0,0.0,0.0,0.0,0.0,0.0,0.0,0.0,0.0,0.0,0.0,0.0,0.0,0.0,0.0,0.0,0.0,0.0,0.0,0.0,0.0,0.0,0.0,0.0,0.0,0.0,0.0,0.0,0.0,0.0,0.0,0.0,0.0,0.0,0.0,0.0,0.0,0.0,0.0,0.0,7.7097,7.7387,0.0,0.0,0.0,7.6666,7.6381,0.0,0.0,0.0,0.0,0.0,0.0,0.0,0.0,0.0,0.0,0.0,0.0,0.0,0.0,0.0,0.0,0.0,0.0,0.0,0.0,0.0,0.0,0.0,0.0,0.0,0.0,0.0,0.0,0.0,0.0,0.0,0.0,0.0,0.0,0.0,0.0,0.0,0.0,0.0,0.0,0.0,0.0,0.0,0.0,0.0,0.0,0.0,0.0,0.0,0.0,0.0,0.0,0.0,0.0,0.0,0.0,0.0,7.9121,8.4411,8.824,9.0387,8.9904,8.9867,9.0387,8.5598,0.0,0.0,0.0,0.0,0.0,0.0,0.0,0.0,0.0,0.0,0.0,0.0,0.0,0.0,0.0,0.0,0.0,0.0,0.0,0.0,0.0,0.0,0.0,0.0,0.0,0.0,0.0,5.7287,0.0,0.0,0.0,0.0,0.0,0.0,0.0,0.0,0.0,0.0,0.0,0.0,0.0,0.0,7.5668,7.7365,7.8288,7.8838,0.0,0.0,7.8618,7.8501,7.7392,7.6083,0.0,0.0,0.0,0.0,0.0,0.0,0.0,0.0,0.0,0.0,0.0,0.0,0.0,0.0,0.0,0.0,0.0,0.0,0.0,0.0,0.0,0.0,0.0,0.0,0.0,0.0,0.0,0.0,0.0,0.0,0.0,0.0,0.0,0.0,0.0,0.0,0.0,0.0,0.0,0.0,0.0,0.0,0.0,0.0,0.0,0.0,0.0,0.0,0.0,0.0,0.0,0.0,0.0,0.0,0.0,7.9128,8.4975,8.8798,9.0424,9.0424,9.0424,9.0424,8.5606,8.1385,0.0,0.0,0.0,0.0,0.0,0.0,0.0,0.0,0.0,0.0,0.0,0.0,0.0,0.0,0.0,0.0,0.0,0.0,0.0,0.0,0.0,0.0,0.0,0.0,0.0,0.0,0.0,0.0,0.0,0.0,0.0,0.0,0.0,0.0,0.0,0.0,0.0,0.0,0.0,0.0,0.0,7.6515,7.8176,7.9173,7.9696,0.0,0.0,7.9199,7.8531,7.8258,7.7352,7.5062,0.0,0.0,0.0,0.0,0.0,0.0,0.0,0.0,0.0,0.0,0.0,0.0,0.0,0.0,0.0,0.0,0.0,0.0,0.0,0.0,0.0,0.0,0.0,0.0,0.0,0.0,0.0,0.0,0.0,0.0,0.0,0.0,0.0,0.0,0.0,0.0,0.0,0.0,0.0,0.0,0.0,0.0,0.0,0.0,0.0,0.0,0.0,0.0,0.0,0.0,0.0,0.0,0.0,7.552,7.9121,8.5532,8.9392,9.0424,9.0499,9.0499,9.0499,8.6173,8.2268,0.0,0.0,0.0,0.0,0.0,0.0,0.0,0.0,0.0,0.0,0.0,0.0,0.0,0.0,0.0,0.0,0.0,0.0,0.0,0.0,0.0,0.0,0.0,0.0,0.0,0.0,0.0,0.0,6.0273,6.0338,6.0973,0.0,0.0,0.0,0.0,0.0,0.0,0.0,0.0,0.0,0.0,7.7596,7.9785,8.0823,0.0,0.0,8.0718,8.0209,7.9962,7.9003,7.7851,7.6527,7.4742,0.0,0.0,0.0,0.0,0.0,0.0,0.0,0.0,0.0,0.0,0.0,0.0,0.0,0.0,0.0,0.0,0.0,0.0,0.0,0.0,0.0,0.0,0.0,0.0,0.0,0.0,0.0,0.0,0.0,0.0,0.0,0.0,0.0,0.0,0.0,0.0,0.0,0.0,0.0,0.0,0.0,0.0,0.0,0.0,0.0,0.0,0.0,0.0,0.0,0.0,0.0,0.0,7.5816,7.9084,8.5828,8.9681,9.0499,9.0499,9.0499,9.0387,8.6791,8.3158,0.0,0.0,0.0,0.0,0.0,0.0,0.0,0.0,0.0,0.0,0.0,0.0,0.0,0.0,0.0,0.0,0.0,0.0,0.0,0.0,0.0,0.0,0.0,0.0,0.0,0.0,0.0,0.0,6.0752,6.0404,6.1269,0.0,0.0,0.0,0.0,0.0,0.0,0.0,0.0,0.0,0.0,7.875,8.075,8.1769,8.2297,8.2197,8.1446,8.0861,8.0916,7.9659,7.837,7.7385,0.0,0.0,0.0,0.0,0.0,0.0,0.0,0.0,0.0,0.0,0.0,0.0,0.0,0.0,0.0,0.0,0.0,0.0,0.0,0.0,0.0,0.0,0.0,0.0,0.0,0.0,0.0,0.0,0.0,0.0,6.2793,0.0,0.0,0.0,0.0,0.0,0.0,0.0,0.0,0.0,0.0,0.0,0.0,0.0,0.0,0.0,0.0,0.0,0.0,0.0,0.0,0.0,0.0,7.5816,7.9121,8.5865,8.9719,9.0462,9.0499,9.0499,9.0432,8.7304,8.3982,8.0466,0.0,0.0,0.0,0.0,0.0,0.0,0.0,0.0,0.0,0.0,0.0,0.0,0.0,0.0,0.0,0.0,0.0,0.0,0.0,0.0,0.0,0.0,0.0,0.0,0.0,0.0,6.0698,6.0632,6.0727,0.0,0.0,0.0,0.0,0.0,0.0,0.0,0.0,0.0,0.0,7.6919,7.9966,8.0815,8.1733,8.2335,8.2278,8.1495,8.0932,8.0933,8.0216,7.9075,0.0,0.0,0.0,0.0,0.0,0.0,0.0,0.0,0.0,0.0,0.0,0.0,0.0,0.0,0.0,0.0,0.0,0.0,0.0,0.0,0.0,0.0,0.0,0.0,0.0,0.0,0.0,6.4878,6.5259,0.0,0.0,0.0,0.0,0.0,0.0,0.0,0.0,0.0,0.0,0.0,6.8062,6.8874,0.0,0.0,0.0,0.0,0.0,0.0,0.0,0.0,0.0,0.0,0.0,0.0,7.6673,8.0022,8.6607,9.0499,9.1279,9.1316,9.1056,9.0499,8.7824,8.3789,7.8249,0.0,0.0,0.0,0.0,0.0,0.0,0.0,0.0,0.0,0.0,0.0,0.0,0.0,0.0,0.0,0.0,0.0,0.0,0.0,0.0,0.0,0.0,0.0,0.0,0.0,6.2507,0.0,0.0,0.0,0.0,0.0,0.0,0.0,0.0,0.0,0.0,0.0,7.2807,7.4552,7.7647,8.0389,8.2356,8.2929,8.3297,0.0,0.0,0.0,0.0,0.0,0.0,0.0,0.0,0.0,0.0,0.0,0.0,0.0,0.0,7.3049,7.2346,7.1507,7.0748,7.0167,0.0,0.0,0.0,0.0,0.0,0.0,0.0,0.0,0.0,0.0,0.0,0.0,0.0,0.0,6.654,0.0,6.5964,0.0,0.0,0.0,0.0,0.0,0.0,0.0,0.0,7.0284,7.1367,7.1451,7.2012,7.2186,0.0,7.0813,6.8738,0.0,0.0,0.0,0.0,0.0,0.0,0.0,0.0,7.7634,8.1213,8.7312,9.087,9.165,9.1688,9.1316,9.0462,8.7572,8.3537,7.845,7.5058,7.1431,0.0,0.0,0.0,0.0,0.0,0.0,0.0,0.0,0.0,0.0,0.0,0.0,0.0,0.0,0.0,0.0,0.0,0.0,0.0,0.0,0.0,0.0,0.0,6.3056,0.0,0.0,0.0,0.0,0.0,0.0,0.0,0.0,0.0,6.8989,7.1739,7.4299,7.6081,7.8938,8.1461,8.3188,0.0,0.0,0.0,0.0,0.0,0.0,0.0,8.1092,8.0267,7.8897,7.7804,7.7493,7.6962,7.6883,7.7704,0.0,0.0,7.4946,7.4009,7.3241,7.269,7.2535,7.2494,7.2498,7.2456,7.2832,0.0,0.0,0.0,0.0,0.0,0.0,0.0,0.0,6.7934,6.7934,0.0,6.7824,0.0,0.0,0.0,0.0,0.0,6.8446,0.0,0.0,7.3986,7.5634,7.5478,7.5508,7.5538,7.5391,7.3472,7.2378,7.2001,6.9164,0.0,0.0,0.0,0.0,0.0,0.0,7.8758,8.2832,8.7935,9.0937,9.1725,9.1762,9.1316,9.0387,8.6606,8.3395,8.1017,7.7671,7.4374,7.1243,6.7696,0.0,0.0,0.0,0.0,0.0,0.0,0.0,0.0,0.0,0.0,0.0,0.0,0.0,0.0,0.0,0.0,0.0,0.0,0.0,0.0,6.3392,0.0,0.0,0.0,0.0,0.0,0.0,0.0,0.0,0.0,0.0,7.1403,7.3624,7.5776,7.7444,0.0,0.0,0.0,0.0,8.475,8.4894,8.4227,8.3684,8.3631,8.2868,8.1973,8.1044,0.0,0.0,7.8428,7.8378,7.8743,7.9467,7.899,7.8152,7.7309,7.6399,7.5752,7.5745,7.5676,7.5745,7.5741,7.5559,7.5837,7.4331,0.0,0.0,0.0,0.0,7.1101,7.1495,7.2071,7.1512,7.1586,7.2034,7.0305,0.0,0.0,0.0,0.0,0.0,0.0,7.2853,7.3807,7.6589,7.7895,7.799,7.8544,7.8683,7.8411,7.7165,7.6315,7.5881,7.4887,7.2371,6.8481,0.0,0.0,0.0,0.0,8.0559,8.5263,8.9222,9.1676,9.2616,9.2616,9.165,8.9681,8.7349,8.4986,8.2614,8.1018,7.8318,7.4441,7.1623,0.0,0.0,0.0,0.0,0.0,0.0,0.0,0.0,0.0,0.0,0.0,0.0,0.0,0.0,0.0,0.0,0.0,0.0,0.0,6.4857,6.5094,6.4809,0.0,0.0,0.0,0.0,0.0,0.0,0.0,0.0,0.0,7.5409,7.7038,7.8308,0.0,0.0,8.3156,8.3907,8.4367,8.483,8.5398,0.0,0.0,0.0,8.4002,8.3618,8.2714,8.2328,8.1978,8.167,8.1641,8.1717,8.1963,8.1256,8.0575,8.0283,7.8765,7.7647,7.7539,7.7458,7.7333,7.7325,7.7222,7.7384,7.7567,7.5224,7.4661,7.439,7.4397,7.4397,7.4735,7.5191,7.4742,7.4639,7.4684,7.3185,7.2114,7.1368,7.0022,0.0,0.0,0.0,7.5204,7.6476,7.8693,7.9795,7.9908,8.0297,8.0378,8.0127,7.8959,7.8213,7.7865,7.798,7.6233,7.276,0.0,0.0,7.5338,7.8846,8.2676,8.6791,8.9905,9.1998,9.2951,9.2653,9.1613,8.983,8.8166,8.6152,8.3782,8.2898,8.0811,7.7318,7.4778,7.1808,0.0,0.0,0.0,0.0,0.0,0.0,0.0,0.0,0.0,0.0,0.0,5.9473,5.919,0.0,0.0,0.0,6.3706,6.5343,6.7037,6.6926,0.0,0.0,0.0,0.0,0.0,0.0,0.0,7.1308,7.3604,7.5892,7.797,7.9562,8.0543,8.0565,8.2055,8.3411,8.4183,0.0,8.5147,8.568,8.5768,8.5626,8.503,8.4713,8.4205,8.333,8.3165,8.309,8.2994,8.297,8.2936,8.2841,8.2416,8.2025,8.2053,8.0918,7.978,7.9202,7.9203,7.9353,7.9348,7.9518,7.9837,7.9953,7.967,7.8288,7.7617,7.7486,7.7494,7.7501,7.7486,7.7494,7.7046,7.6333,7.6143,7.5159,7.3615,7.2763,0.0,7.4647,7.5792,7.7084,7.8564,8.043,8.1263,8.1255,8.1052,8.0963,8.0878,7.9519,7.8788,7.8684,7.9178,7.903,7.8201,7.8026,7.8089,7.8511,8.1741,8.4939,8.7883,9.0324,9.2063,9.3062,9.2171,9.1316,9.0499,8.9021,8.7051,8.4711,8.3819,8.2259,7.9881,7.7311,7.4856,7.2487,0.0,0.0,0.0,0.0,0.0,0.0,0.0,0.0,0.0,0.0,0.0,0.0,0.0,0.0,0.0,6.626,0.0,6.9556,6.8985,0.0,0.0,0.0,6.9516,6.9741,7.1355,7.2997,7.4485,0.0,0.0,7.9607,0.0,8.2507,8.2447,8.3238,8.3964,8.4467,8.5252,8.5757,8.6038,8.5941,8.5876,8.58,8.5141,8.4318,8.3506,8.3214,8.3247,8.3186,8.3199,8.3059,8.3046,8.2847,8.2786,8.2786,8.2618,8.2211,8.0639,8.0946,8.1441,8.1403,8.1877,8.2291,8.2285,8.2198,8.1695,8.0539,7.8986,7.9166,7.9105,7.8986,7.8986,7.8788,7.8423,7.777,7.6623,7.5119,7.5496,7.5845,7.6319,7.8541,7.9755,8.0211,8.1412,8.1957,8.1949,8.1742,8.1509,8.1193,8.0585,8.0432,8.0672,8.0677,8.0925,8.147,8.2188,8.2159,8.1536,8.3201,8.6145,9.0293,9.1583,9.2744,9.3834,9.2468,9.1316,9.0499,8.9541,8.8121,8.6308,8.5454,8.4191,8.237,7.9927,7.7427,7.488,6.9997,0.0,0.0,0.0,0.0,0.0,0.0,0.0,0.0,0.0,6.0319,5.9879,0.0,6.3934,0.0,6.7784,7.0254,7.1292,7.1747,0.0,0.0,7.2102,7.2324,7.2993,7.4633,7.606,7.6887,7.8651,8.0456,8.2103,8.2904,8.3866,8.5241,8.5373,8.5667,8.6577,8.7073,8.7317,8.7335,8.6915,8.6564,8.6511,8.5808,8.5129,8.4877,8.4823,8.4783,8.4663,8.4642,8.4659,8.4557,8.4013,8.36,8.354,8.2983,8.2424,8.1973,8.2098,8.2238,8.2238,8.2358,8.2482,8.3582,8.3496,8.34,8.2563,8.1357,8.1579,8.1377,8.0964,8.0956,8.0496,7.9685,7.8817,7.7905,7.7058,7.7438,7.783,7.8283,7.9806,8.0698,8.111,8.1649,8.196,8.2063,8.1776,8.1686,8.1706,8.1354,8.1433,8.1881,8.2042,8.2614,8.362,8.4643,8.5134,8.5191,8.5572,8.7367,9.0497,9.1833,9.3046,9.4086,9.2951,9.1506,8.9874,8.9058,8.7476,8.5062,8.3846,8.2668,8.1407,7.9419,7.7511,7.5716,7.1266,6.7795,0.0,0.0,0.0,0.0,0.0,0.0,0.0,0.0,0.0,0.0,0.0,6.6166,6.7272,7.0113,7.2209,7.2996,7.3471,7.4148,7.5146,7.5187,7.5617,7.6864,7.7819,7.8818,7.9971,8.1015,8.2319,8.4035,8.4537,8.5262,8.6752,8.6936,8.7032,8.7315,8.7593,8.7764,8.7847,8.7549,8.7333,8.736,8.6668,8.6044,8.5953,8.5622,8.5341,8.5138,8.5138,8.5105,8.5054,8.4625,8.4273,8.4253,8.3925,8.3505,8.3519,8.351,8.3348,8.3063,8.3239,8.3424,8.4291,8.4115,8.4088,8.4,8.3928,8.4009,8.3569,8.2775,8.2749,8.1876,8.036,7.9451,7.8942,7.8812,7.8812,7.9219,7.9906,8.0234,8.0844,8.1727,8.1761,8.1891,8.2164,8.1814,8.1896,8.2278,8.198,8.2081,8.262,8.3237,8.4064,8.5083,8.6089,8.7211,8.8464,8.8032,8.8498,9.0036,9.203,9.3432,9.4177,9.3297,9.1598,8.9123,8.809,8.6122,8.2985,8.1219,7.9971,7.9232,7.7684,7.6595,7.6013,7.2209,6.9334,0.0,6.5594,0.0,0.0,0.0,0.0,0.0,0.0,0.0,0.0,6.7,6.8661,7.1065,7.2862,7.413,7.4832,7.5064,7.6051,7.8125,7.824,7.8825,8.0511,8.0606,8.1214,8.2993,8.323,8.3884,8.5476,8.6028,8.6573,8.7471,8.8001,8.8129,8.7723,8.7838,8.8056,8.8148,8.81,8.8082,8.7949,8.7391,8.6887,8.6668,8.6207,8.5621,8.5441,8.525,8.514,8.5081,8.4982,8.4863,8.4889,8.4872,8.4848,8.4746,8.4627,8.4364,8.3928,8.4141,8.4657,8.4908,8.4737,8.46,8.4813,8.5114,8.4537,8.3683,8.2627,8.2476,8.1681,8.0432,7.9603,7.9333,7.9395,7.944,7.9602,7.9933,8.0796,8.1628,8.2418,8.253,8.2937,8.3565,8.3184,8.3011,8.2906,8.2526,8.2655,8.3243,8.4024,8.4947,8.6119,8.695,8.7847,8.8706,0.0,0.0,0.0,9.3866,9.4663,9.4177,9.2595,9.0918,8.9041,8.7414,0.0,8.3724,8.1515,8.0229,8.0015,7.798,0.0,0.0,0.0,0.0,0.0,0.0,0.0,0.0,0.0,0.0,0.0,6.9999,6.9508,6.8018,6.9797,7.1819,7.3705,7.5322,7.66,7.7492,7.8634,7.9556,7.9956,7.986,8.0398,8.2032,8.2243,8.2919,8.4682,8.4934,8.5329,8.636,8.6877,8.7382,8.818,8.8715,8.9003,8.8985,8.9229,8.9509,8.9596,8.9146,8.8639,8.8051,8.7855,8.7633,8.7382,8.7239,8.7036,8.6834,8.63,8.5915,8.5837,8.535,8.4933,8.4921,8.4818,8.481,8.4768,8.4647,8.4529,8.4498,8.4501,8.453,8.52,0.0,8.4509,8.4328,0.0,8.381,8.3067,8.216,8.2068,8.1423,8.0463,8.0067,7.9934,8.0035,8.0035,8.0135,8.037,8.1283,8.2015,8.262,8.2983,8.3329,8.371,8.3446,8.3337,8.3401,8.3197,8.3598,8.4559,8.508,8.6082,8.7581,8.8099,8.8889,8.9957,9.0768,9.1598,9.2373,9.3499,9.4093,9.4131,9.2905,9.119,8.9078,0.0,0.0,0.0,0.0,0.0,0.0,0.0,0.0,0.0,0.0,0.0,7.4381,7.2892,7.1965,7.1978,7.2336,7.277,7.3244,7.4252,7.3838,7.1403,7.3492,7.531,7.6118,7.7617,7.8713,7.9215,7.9919,8.0548,8.0947,8.118,8.1781,8.294,8.3448,8.4188,8.5437,8.5818,8.619,8.7171,8.807,8.8675,8.9085,8.9536,8.9867,8.9976,8.9881,8.9828,8.9995,8.9844,8.949,8.9087,8.8651,8.8373,8.8167,8.7779,8.7499,8.742,8.7023,8.6734,8.6605,8.6242,8.5974,8.5865,8.5535,8.5184,8.5121,8.4776,8.4444,8.4506,8.4469,8.4387,8.522,8.4547,8.4079,8.3463,8.2768,8.2804,8.2361,8.1684,0.0,0.0,0.0,8.0396,8.0486,8.0658,8.0668,8.0833,8.1172,8.1913,8.2467,8.2939,8.3401,8.3681,8.3752,8.3573,8.3646,8.3906,8.4036,8.4676,8.5798,8.6276,8.728,8.8706,8.9187,8.9989,9.1273,9.2682,9.3083,9.2464,9.2781,9.3284,9.3954,9.3149,9.1552,8.9049,8.8045,8.6373,8.3983,8.1737,8.0451,8.0274,7.9023,7.8325,7.8251,7.7123,7.6452,7.643,7.522,7.4828,7.5608,7.554,7.5871,7.6719,7.7773,7.7396,7.5026,7.7012,7.8336,7.8227,7.9578,8.042,8.042,8.0693,8.1083,8.1829,8.2418,8.3095,8.3905,8.446,8.5232,8.6274,8.6696,8.7127,8.8143,8.9245,9.0005,9.0057,9.0371,9.0675,9.0611,9.007,8.9741,8.9979,9.002,9.011,9.0057,8.96,8.9131,8.8977,8.839,8.7888,8.7781,8.767,8.7502,8.7329,8.7205,8.6985,8.6845,8.6291,8.5889,8.587,8.5272,8.4687,8.4687,8.4693,8.4731,8.4589,8.4119,8.3387,8.277,8.2273,8.2273,8.2027,8.1546,8.0756,8.0247,7.9977,7.9967,8.0476,8.1284,8.1284,8.1722,8.2524,8.2874,8.3384,0.0,8.4161,8.4549,8.5163,8.482,8.4673,8.4746,8.5243,8.5604,8.5961,8.7396,8.8402,8.8881,8.987,9.0749,9.1471,9.2193,9.252,9.2427,9.3447,9.3706,9.3174,9.2216,9.0873,8.9033,8.7414,8.5691,8.3946,8.2262,8.1005,8.0311,7.9549,7.9133,7.914,7.9016,7.9279,7.9852,7.9131,7.8989,7.9732,7.9212,7.9119,7.9769,7.989,7.9202,7.7684,7.8958,7.9889,7.9896,8.0745,8.1314,8.138,8.2363,8.3057,8.3315,8.3905,8.4606,8.5329,8.5583,8.6258,8.7803,8.8361,8.8774,8.9564,9.0384,9.0819,9.0864,9.1183,9.1242,9.0786,9.0171,8.9884,8.9967,9.0019,9.0025,9.0026,8.9973,8.9725,8.9687,8.9473,8.9241,8.9106,8.8627,8.8236,8.8066,8.7569,8.7103,8.6983,8.6729,8.6563,8.6537,8.6265,8.6072,8.6028,8.6072,8.5953,8.3624,8.3023,8.2422,8.1819,8.1262,8.1688,8.1778,8.1578,8.1145,8.0916,8.0835,8.092,8.1234,8.168,8.1798,8.2118,8.2672,8.3199,8.3692,8.4148,8.459,8.4891,8.5117,8.5,8.5064,8.5407,8.5661,8.6216,8.7068,8.8144,8.8947,8.9467,9.0456,9.113,9.1481,9.2091,9.2418,9.2427,9.3147,9.3368,9.2988,9.2542,9.1544,8.9837,8.897,8.7826,8.6248,8.4988,8.3987,8.3216,8.2453,8.1859,8.1421,8.1078,8.104,8.1367,8.0624,8.0289,8.0661,8.0271,8.0155,8.0319,8.0604,8.0469,7.9792,8.0336,8.0702,8.069,8.1779,8.2515,8.2551,8.3525,8.4146,8.4146,8.4806,8.5388,8.58,8.6677,8.7418,8.8244,8.8998,8.9612,9.0027,9.1006,9.1671,9.1671,9.2015,9.2006,9.1441,9.0808,9.025,8.9977,8.9864,8.9896,8.9907,8.9881,8.9858,8.9698,8.9673,8.9661,8.9502,8.913,8.8928,8.8779,8.8371,8.8169,8.8033,8.7606,8.735,8.7247,8.683,8.6551,8.6513,8.6851,8.6889,8.2939,8.2277,8.1793,8.1299,8.0918,8.1467,8.1789,8.1956,8.1966,8.1966,8.1962,8.1879,8.1921,8.2109,8.2287,8.2586,8.2986,8.3642,8.4057,8.4267,8.4852,8.506,8.4945,8.5002,8.5345,8.5798,8.6144,8.6961,8.8138,8.8782,8.9467,9.0233,9.0887,9.1339,9.1592,9.2109,9.2418,9.2435,9.2813,9.2988,9.2988,9.2802,9.1985,9.061,9.0313,8.9578,8.8166,8.746,8.6717,8.5892,8.5119,8.4302,8.3492,8.2712,8.2266,8.2184,8.1478,8.0981,8.0931,8.0933,8.0873,8.0707,8.1318,8.171,8.171,8.1857,8.1838,8.1762,8.2855,8.3654,8.3736,8.4389,8.4866,8.4903,8.5563,8.6077,8.6196,8.7329,8.8302,8.8544,8.9537,9.0335,9.0713,9.1657,9.2508,9.266,9.2807,9.2664,9.2175,9.1444,9.0606,9.0196,8.9905,8.9803,8.9753,8.9741,8.9685,8.956,8.9541,8.9514,8.9373,8.9333,8.928,8.9098,8.9125,8.8954,8.8927,8.8513,8.8124,8.8053,8.7647,8.7196,8.7227,8.764,8.7865,8.2941,8.2576,8.1901,8.1867,8.2149,8.2107,8.2396,8.2948,8.3053,8.3053,8.2897,8.2061,8.2038,8.2601,8.288,8.3395,8.4072,8.4584,8.4766,8.4786,8.4894,8.492,8.4987,8.5447,8.5737,8.6002,8.719,8.801,8.8532,8.9429,9.0304,9.1014,9.1178,9.1405,9.1785,9.218,9.2418,9.2418,9.2813,9.2988,9.2951,9.2245,9.1428,9.0536,8.9801,8.9021,8.8129,8.8017,8.7572,8.6747,8.5892,8.5119,8.4302,8.3529,8.3083,8.3039,8.2333,8.1829,8.1674,8.1971,8.2189,8.2231,8.2778,8.3157,8.3194,8.3826,8.3965,8.3499,8.3976,8.4454,8.4527,8.5196,8.5682,8.571,8.6371,8.6876,8.7003,8.7651,8.8477,8.9225,9.0363,9.1346,9.1953,9.2743,9.337,9.3582,9.3248,9.2999,9.2798,9.1767,9.0926,9.0605,9.019,8.9786,8.9679,8.961,8.9547,8.9462,8.9436,8.9377,8.9285,8.9187,8.9153,8.9064,8.9047,8.9009,8.9026,8.891,8.8834,8.8722,8.8616,8.8654,8.8729,8.8729,8.8698,8.2535,8.225,8.1829,8.196,8.2405,8.2374,8.2515,8.2806,8.2976,8.3032,8.3007,8.2673,8.2819,8.3252,8.3476,8.3832,8.4299,8.4476,8.4584,8.4733,8.4707,8.4993,8.5447,8.5651,8.6251,8.7118,8.7832,8.8449,8.9179,8.9976,9.0667,9.1168,9.132,9.1536,9.1822,9.2189,9.2418,9.2427,9.2776,9.2988,9.2876,9.2133,9.1316,9.0499,8.9727,8.8901,8.8203,8.8092,8.772,8.6858,8.6449,8.5714,8.4451,8.4079,8.3715,8.3262,8.2802,8.2415,8.2148,8.2737,8.3095,8.2982,8.3688,8.4087,8.416,8.4829,8.5159,8.4939,8.5123,8.5306,8.5388,8.604,8.6509,8.6554,8.6839,8.717,8.7684,8.8402,8.9208,9.004,9.1152,9.2005,9.2394,9.3041,9.3563,9.3777,9.361,9.3553,9.3556,9.2698,9.1946,9.1412,9.0792,9.0125,8.9628,8.9496,8.9405,8.9345,8.9298,8.9251,8.9129,8.9088,8.9061,8.8992,8.8954,8.8954,8.8999,8.8992,8.8992,8.8978,8.8992,8.8992,8.8992,8.8992,8.8992,8.2388,8.2133,8.199,8.2147,8.2476,8.2499,8.2499,8.2522,8.2728,8.283,8.292,8.3042,8.3231,8.3497,8.3711,8.3939,8.4099,8.4162,8.4267,8.4449,8.4627,8.5029,8.5609,8.6171,8.6905,8.7889,8.8325,8.89,8.9683,9.035,9.0858,9.1197,9.1405,9.1574,9.1822,9.2189,9.2418,9.2444,9.2813,9.2988,9.2839,9.1948,9.1093,9.047,8.9504,8.8686,8.8129,8.8092,8.7832,8.72,8.6932,8.6264,8.5157,8.4859,8.4361,8.3566,8.3268,8.3053,8.2755,8.3427,8.3823,8.381,8.4462,8.4939,8.5049,8.5673,8.6077,8.6122,8.6122,8.6114,8.6187,8.6664,8.6986,8.7014,8.7014,8.7353,8.8105,8.8916,8.9697,9.0536,9.1583,9.245,9.2638,9.313,9.3563,9.3694,9.3859,9.403,9.4004,9.3368,9.2548,9.1884,9.1069,9.0251,8.9543,8.9341,8.9311,8.9197,8.9136,8.9047,8.8943,8.8915,8.8865,8.875,8.8826,8.884,8.8785,8.8837,8.8872,8.8879,8.8894,8.8922,8.8915,8.895,8.8985,8.2715,8.2487,8.2441,8.2429,8.2499,8.2476,8.2488,8.2453,8.251,8.2647,8.2864,8.2909,8.3008,8.3242,8.3543,8.3641,8.366,8.3829,8.3982,8.412,8.4747,8.5105,8.5257,8.6893,8.7758,8.8015,8.8759,8.9429,8.999,9.0571,9.0995,9.1206,9.1433,9.162,9.1831,9.2189,9.2409,9.2453,9.2813,9.2988,9.2802,9.139,9.0581,9.0387,8.9021,8.8166,8.8092,8.8092,8.8055,8.8017,8.7267,8.6784,8.6561,8.5929,8.5081,8.4268,8.3987,8.377,8.3659,8.4203,8.4552,8.4646,8.527,8.5755,8.5792,8.6399,8.6803,8.6913,8.6839,8.6876,8.6876,8.6913,8.7014,8.7014,8.7023,8.7427,8.8169,8.9031,8.9711,9.06,9.1703,9.2499,9.3065,9.3367,9.3548,9.3671,9.3845,9.4008,9.391,9.3279,9.2544,9.1675,9.0848,9.0,8.9375,8.918,8.9143,8.904,8.8915,8.8801,8.873,8.8672,8.8606,8.8531,8.8593,8.86,8.8546,8.8562,8.8592,8.8635,8.8722,8.8796,8.8773,8.8908,8.895,8.2476,8.2222,8.2117,8.2059,8.2047,8.2047,8.2047,8.2059,8.2187,8.2384,8.2636,8.283,8.3021,8.3244,8.3848,8.3935,8.3654,8.3682,8.4037,8.4626,8.4966,8.5593,8.6606,8.7474,8.8092,8.8541,8.9022,8.9547,9.0017,9.073,9.113,9.1254,9.1546,9.1739,9.1867,9.2189,9.2418,9.2444,9.2813,9.2988,9.2839,9.1353,9.0499,9.0395,8.8938,8.8092,8.8092,8.8092,8.8092,8.8092,8.7795,8.7386,8.6776,8.5941,8.529,8.4838,8.4581,8.4404,8.4358,8.4936,8.5351,8.5416,8.6114,8.6554,8.6628,8.6839,8.7014,8.7014,8.7014,8.7014,8.7014,8.7014,8.7014,8.706,8.7463,8.8051,8.8867,8.9673,9.0462,9.1252,9.1997,9.2582,9.3013,9.3328,9.3517,9.3602,9.3822,9.3971,9.3963,9.3693,9.3048,9.182,9.1116,9.0411,8.9049,8.8969,8.8901,8.883,8.8737,8.8657,8.8577,8.8555,8.8503,8.8481,8.8448,8.8448,8.8466,8.8466,8.8466,8.8488,8.8577,8.8606,8.8606,8.8744,8.8823,8.2153,8.2,8.1835,8.1776,8.1776,8.1776,8.1776,8.1857,8.2183,8.251,8.2801,8.3298,8.3643,8.3916,8.4509,8.4586,8.4238,8.4214,8.4584,8.5221,8.5468,8.6174,8.7113,8.7781,8.8326,8.8841,8.9295,8.9706,9.0063,9.0799,9.1187,9.1235,9.161,9.1812,9.1876,9.2189,9.2418,9.2487,9.2776,9.2988,9.2765,9.1353,9.0499,9.0247,8.8946,8.8092,8.8092,8.8092,8.8092,8.8092,8.8092,8.7801,8.7144,8.6256,8.5691,8.5438,8.53,8.5152,8.5111,8.5719,8.6187,8.6187,8.6656,8.7014,8.7014,8.7014,8.7014,8.7014,8.7014,8.7014,8.7006,8.6934,8.6899,8.7018,8.7685,8.8501,8.9227,9.0077,9.0947,9.178,9.2224,9.2573,9.2947,9.3232,9.3407,9.3485,9.3747,9.3912,9.3986,9.3963,9.3356,9.1805,9.1297,9.0378,8.922,8.8697,8.8709,8.8635,8.8562,8.8488,8.8399,8.8421,8.8399,8.8384,8.8376,8.8376,8.8376,8.8376,8.8376,8.8391,8.8421,8.8459,8.8503,8.8584,8.8672,8.1822,8.1788,8.1776,8.1776,8.1776,8.1776,8.181,8.1983,8.2581,8.2978,8.3424,8.4273,8.4751,8.5112,8.5353,8.5502,8.5454,8.5525,8.5536,8.5664,8.625,8.6636,8.6917,8.8019,8.8632,8.8887,8.965,9.0077,9.0269,9.0961,9.1316,9.1319,9.1647,9.1812,9.1812,9.218,9.2418,9.2496,9.2776,9.2988,9.2802,9.1353,9.0499,9.0313,8.8938,8.8092,8.8092,8.8092,8.8092,8.8092,8.8092,8.8013,8.7648,8.6984,8.6441,8.6164,8.6126,8.5989,8.5891,8.6481,8.6876,8.6876,8.6986,8.7014,8.7014,8.7014,8.7014,8.7014,8.7014,8.7014,8.698,8.6948,8.6851,8.6815,8.7716,8.8541,8.9211,9.0042,9.1044,9.2083,9.2409,9.2573,9.2913,9.3122,9.3283,9.3462,9.3648,9.38,9.3897,9.3934,9.3169,9.1798,9.1066,9.0408,8.9368,8.844,8.8436,8.8451,8.8376,8.8301,8.827,8.8247,8.8246,8.8231,8.8239,8.8239,8.8246,8.8239,8.8216,8.8223,8.8247,8.8308,8.8346,8.8414,8.8547,8.1776,8.1776,8.1776,8.1776,8.1776,8.1776,8.2052,8.2557,8.2833,8.3322,8.4058,8.4597,8.496,8.5333,8.5973,8.6333,8.6368,8.6836,8.6871,8.6427,8.6614,8.7,8.7561,8.8245,8.9076,8.9976,9.1032,9.1572,9.1597,9.1888,9.2035,9.2003,9.1867,9.1803,9.1831,9.218,9.2418,9.2453,9.2813,9.2988,9.2839,9.1361,9.0499,9.0313,8.8946,8.8092,8.8092,8.8092,8.8092,8.8092,8.8092,8.8013,8.7757,8.7345,8.7062,8.6945,8.681,8.6696,8.6673,8.6839,8.7014,8.7014,8.7014,8.7014,8.7014,8.7014,8.7014,8.7014,8.7014,8.6943,8.6894,8.7263,8.7493,8.7548,8.8306,8.9129,8.988,9.0795,9.1634,9.2229,9.2418,9.2582,9.2913,9.3098,9.3211,9.3298,9.3518,9.3687,9.3686,9.377,9.3065,9.1477,9.1044,9.0324,8.9059,8.8281,8.8268,8.8278,8.8262,8.8223,8.8185,8.8162,8.8115,8.8092,8.8092,8.8092,8.8092,8.8092,8.8092,8.8092,8.8169,8.8193,8.8193,8.8322,8.8578,8.1776,8.1776,8.1776,8.1776,8.1845,8.2052,8.2454,8.2971,8.3535,8.4103,8.4746,8.5395,8.5726,8.602,8.6674,8.6966,8.7036,8.755,8.748,8.7071,8.7129,8.7433,8.8006,8.868,8.9743,9.0965,9.1904,9.2345,9.2436,9.2397,9.24,9.2322,9.2004,9.1803,9.1831,9.2109,9.2294,9.2444,9.2738,9.2922,9.2645,9.1353,9.0499,9.0276,8.8946,8.8166,8.8092,8.8092,8.8092,8.8076,8.8029,8.7911,8.7697,8.7435,8.7279,8.7194,8.71,8.6986,8.7014,8.6986,8.7014,8.7014,8.7014,8.7014,8.7014,8.7014,8.7014,8.7014,8.7247,8.7269,8.7273,8.7724,8.818,8.8563,8.9075,8.9807,9.0649,9.1354,9.1938,9.2296,9.2418,9.2599,9.2913,9.3062,9.3146,9.3219,9.3377,9.3541,9.3509,9.3586,9.2525,9.1567,9.0967,8.9962,8.8571,8.8182,8.8137,8.8123,8.8131,8.8131,8.8123,8.8123,8.8092,8.8092,8.8092,8.8092,8.8092,8.8092,8.8092,8.8092,8.8092,8.8115,8.8183,8.8616,8.888,8.1776,8.1776,8.1776,8.1845,8.2017,8.2557,8.2971,8.3316,8.4466,8.5121,8.5486,8.6328,8.6906,8.7048,8.7195,8.7349,8.7489,8.7419,8.7489,8.7526,8.7749,8.7995,8.8334,8.9408,9.0734,9.1927,9.2425,9.2696,9.3027,9.2876,9.2509,9.2521,9.2215,9.1849,9.1849,9.2011,9.2206,9.2418,9.2607,9.2822,9.2868,9.1353,9.0499,9.0424,8.8983,8.8092,8.8092,8.8092,8.8084,8.8053,8.7866,8.7697,8.7497,8.7352,8.7158,8.7021,8.7023,8.7014,8.7014,8.7014,8.7014,8.7014,8.7014,8.706,8.7187,8.7252,8.7282,8.7376,8.7756,8.7941,8.7979,8.8343,8.891,8.9589,8.9935,9.0491,9.1309,9.1675,9.1956,9.2285,9.2407,9.2556,9.293,9.3004,9.3078,9.3138,9.3211,9.3306,9.3383,9.322,9.2525,9.1701,9.0809,8.981,8.8508,8.8043,8.7998,8.7982,8.7982,8.7966,8.799,8.7998,8.7978,8.7986,8.8053,8.8061,8.8092,8.8047,8.8092,8.8092,8.8092,8.8092,8.8405,8.8874,8.9314,8.1776,8.1776,8.1776,8.2121,8.2592,8.2833,8.3569,8.457,8.4984,8.5535,8.6024,8.655,8.6814,8.6826,8.707,8.7178,8.7213,8.7225,8.7345,8.7571,8.8155,8.8733,8.9446,9.0761,9.1919,9.2891,9.3595,9.4172,9.4358,9.4132,9.3776,9.3285,9.2847,9.2391,9.1941,9.1993,9.2189,9.2409,9.259,9.2805,9.2695,9.1353,9.0499,9.035,8.8946,8.8166,8.8092,8.8092,8.8021,8.7895,8.7697,8.7489,8.736,8.7211,8.7083,8.704,8.7014,8.7014,8.7014,8.7014,8.7014,8.7014,8.706,8.7232,8.7852,8.7874,8.8083,8.8426,8.8728,8.8673,8.8524,8.8982,8.9657,9.0259,9.0585,9.0983,9.1373,9.1702,9.1947,9.2316,9.2424,9.2599,9.288,9.2996,9.3013,9.3041,9.3114,9.3171,9.3232,9.3181,9.2652,9.1381,9.0384,8.9512,8.87,8.8144,8.785,8.7818,8.7778,8.7713,8.7738,8.7754,8.7701,8.764,8.7815,8.7889,8.7947,8.7965,8.801,8.8068,8.824,8.8315,8.879,8.9251,8.9742,8.1776,8.1776,8.1776,8.2224,8.2902,8.32,8.4087,8.5121,8.557,8.588,8.6322,8.658,8.6704,8.6716,8.6863,8.6959,8.6959,8.6924,8.7244,8.802,8.9146,9.0104,9.0833,9.1822,9.2676,9.3812,9.4383,9.4824,9.5033,9.491,9.4339,9.3635,9.3249,9.2638,9.1849,9.1912,9.2074,9.2259,9.2479,9.2667,9.2752,9.1321,9.061,9.0202,8.8983,8.8092,8.8092,8.8092,8.8006,8.7802,8.7595,8.7423,8.7285,8.7126,8.7023,8.7014,8.7014,8.7014,8.7014,8.7014,8.7014,8.7096,8.7243,8.7699,8.8129,8.8418,8.8782,8.9009,8.9246,8.9216,8.92,8.9647,9.0166,9.0552,9.0956,9.1238,9.1363,9.162,9.1955,9.2273,9.2431,9.2556,9.2947,9.298,9.2988,9.3004,9.307,9.307,9.3054,9.302,9.2603,9.1317,9.0337,8.9586,8.87,8.8024,8.7689,8.7657,8.7559,8.7501,8.7497,8.7559,8.7529,8.7507,8.7627,8.768,8.7728,8.7815,8.7902,8.8021,8.8283,8.8716,8.9198,8.9904,9.035,8.1776,8.1822,8.1879,8.2316,8.3109,8.3799,8.4592,8.5363,8.5971,8.626,8.6332,8.6555,8.6617,8.6654,8.6642,8.6667,8.6667,8.6654,8.7431,8.8597,9.0117,9.142,9.2035,9.22,9.317,9.4377,9.4675,9.4947,9.5196,9.5069,9.4532,9.3957,9.3469,9.2803,9.217,9.1932,9.1912,9.2109,9.2305,9.2513,9.2441,9.1268,9.0488,9.0284,8.8946,8.8166,8.8084,8.8061,8.7974,8.7762,8.7587,8.7406,8.7296,8.7055,8.6995,8.7014,8.7014,8.7014,8.7014,8.7014,8.7096,8.728,8.783,8.8315,8.8589,8.9017,8.9322,8.9518,8.9616,8.9807,8.9838,9.0282,9.0512,9.0687,9.0965,9.1152,9.1267,9.1556,9.1956,9.2296,9.2362,9.2599,9.2838,9.298,9.2988,9.2988,9.3029,9.3021,9.3004,9.2992,9.2348,9.1215,9.0395,8.9773,8.8831,8.7887,8.7633,8.7468,8.7343,8.7285,8.7315,8.7348,8.739,8.744,8.7464,8.7501,8.7522,8.7608,8.7818,8.8226,8.8629,8.9122,8.9681,9.061,9.1242,8.1776,8.1833,8.2431,8.3075,8.3833,8.4592,8.5363,8.6053,8.6213,8.6294,8.6307,8.6357,8.6394,8.6394,8.6406,8.6416,8.6441,8.6582,8.7335,8.9232,9.0574,9.1925,9.2731,9.2896,9.3586,9.4477,9.4711,9.4936,9.53,9.5512,9.5354,9.4574,9.4073,9.3639,9.2831,9.2106,9.1903,9.2065,9.2145,9.2366,9.2311,9.1198,9.0407,9.0297,8.8909,8.8195,8.8061,8.7958,8.777,8.7603,8.7505,8.7385,8.7124,8.7057,8.7023,8.7014,8.7014,8.7014,8.7014,8.7051,8.728,8.7839,8.8189,8.8673,8.9773,8.987,9.0186,9.0422,9.0591,9.0472,9.0401,9.0512,9.0591,9.0671,9.0946,9.1179,9.1265,9.1546,9.1921,9.2108,9.232,9.2504,9.2726,9.2938,9.2971,9.298,9.2988,9.2988,9.2988,9.2988,9.2245,9.1301,9.077,9.0152,8.9209,8.8309,8.7913,8.7661,8.7441,8.7152,8.722,8.7339,8.7418,8.737,8.7248,8.7341,8.75,8.7768,8.805,8.853,8.9137,8.9848,9.0573,9.139,9.1988,8.1776,8.1879,8.2592,8.335,8.4075,8.488,8.5604,8.6225,8.6294,8.6294,8.6294,8.6294,8.6294,8.6294,8.6294,8.6294,8.6539,8.7273,8.8414,8.9938,9.1163,9.2215,9.3002,9.3298,9.3718,9.4543,9.4711,9.4947,9.5373,9.5694,9.5536,9.4846,9.4504,9.384,9.3088,9.2281,9.1895,9.1957,9.2056,9.2206,9.2151,9.1423,9.0358,8.9872,8.879,8.8061,8.7958,8.785,8.7657,8.7485,8.741,8.7293,8.7046,8.7014,8.7014,8.7014,8.7014,8.7014,8.7014,8.7353,8.7766,8.8197,8.875,8.9492,9.0172,9.0438,9.0671,9.0832,9.0799,9.0691,9.0637,9.0628,9.0628,9.0661,9.0956,9.1187,9.1236,9.1564,9.1885,9.2074,9.2305,9.2487,9.2667,9.2872,9.2963,9.2988,9.2988,9.2988,9.2988,9.2905,9.241,9.1705,9.1252,9.0555,8.9586,8.8862,8.8363,8.8062,8.7807,8.7433,8.7174,8.734,8.7498,8.742,8.735,8.7504,8.7677,8.7975,8.8548,8.9288,9.0016,9.0736,9.1398,9.2001,9.2438,8.1776,8.1879,8.2695,8.3419,8.4075,8.4984,8.5742,8.626,8.6294,8.6294,8.6294,8.6294,8.6294,8.6294,8.6294,8.6329,8.6943,8.8298,8.9602,9.0413,9.1503,9.2423,9.3048,9.3298,9.3672,9.4579,9.47,9.4972,9.5373,9.574,9.5672,9.5022,9.4687,9.4207,9.3345,9.2464,9.2005,9.1895,9.1957,9.2065,9.2043,9.1557,9.0613,8.94,8.8541,8.8011,8.7855,8.775,8.7559,8.7293,8.7279,8.7177,8.7075,8.7014,8.7014,8.7014,8.7014,8.7133,8.739,8.7794,8.8234,8.8465,8.9523,9.0228,9.0448,9.0662,9.0762,9.0783,9.073,9.0647,9.0628,9.0628,9.0628,9.0651,9.0936,9.1149,9.1273,9.1546,9.1803,9.202,9.2261,9.247,9.2633,9.283,9.2913,9.2988,9.2988,9.298,9.298,9.2872,9.2451,9.1964,9.1448,9.06,8.9635,8.9355,8.8874,8.8664,8.8381,8.8051,8.7647,8.794,8.8169,8.7654,8.7561,8.7867,8.826,8.8723,8.9353,9.012,9.0753,9.1362,9.1956,9.2529,9.2887,8.1776,8.1914,8.3247,8.3902,8.4213,8.5488,8.6156,8.6294,8.6294,8.6294,8.6294,8.6294,8.6294,8.6294,8.6294,8.6626,8.7496,8.8943,9.0076,9.0701,9.1618,9.2477,9.3072,9.3215,9.3649,9.4242,9.4576,9.4961,9.5352,9.574,9.5844,9.5699,9.541,9.4841,9.4006,9.3272,9.2391,9.1886,9.1867,9.1948,9.189,9.1378,9.0506,8.9239,8.8427,8.795,8.775,8.7546,8.7363,8.7296,8.7152,8.7075,8.7031,8.7014,8.7014,8.7014,8.7014,8.7206,8.7794,8.8087,8.8852,8.9614,9.02,9.0473,9.0708,9.0807,9.0799,9.0697,9.0664,9.0628,9.0628,9.0726,9.0654,9.0687,9.0981,9.1179,9.1316,9.1534,9.1693,9.1876,9.219,9.2435,9.2573,9.2726,9.2897,9.2971,9.2988,9.2963,9.2938,9.2851,9.2636,9.2123,9.16,9.0586,8.9581,8.9572,8.9417,8.9381,8.9179,8.9069,8.8849,8.9033,8.894,8.8552,8.8505,8.8827,8.9219,8.9555,9.0153,9.0887,9.1444,9.1939,9.2413,9.2879,9.3133,8.2052,8.2488,8.3557,8.4247,8.4811,8.5799,8.6294,8.6294,8.6294,8.6294,8.6294,8.6294,8.6294,8.6294,8.6294,8.6915,8.8173,8.9238,9.032,9.1081,9.1692,9.2304,9.3012,9.3132,9.3579,9.4096,9.4499,9.4839,9.5214,9.5756,9.597,9.5928,9.5667,9.5098,9.4299,9.3455,9.2648,9.1996,9.1812,9.1849,9.1884,9.1256,9.0406,8.9607,8.8713,8.8088,8.7538,8.7439,8.7262,8.7169,8.7038,8.7031,8.7014,8.7014,8.7023,8.7023,8.7051,8.7353,8.8098,8.8466,8.9175,9.0109,9.0453,9.0659,9.0809,9.0817,9.071,9.0657,9.0618,9.0799,9.1197,9.1161,9.1414,9.1807,9.1957,9.1947,9.1897,9.1997,9.1948,9.1868,9.2029,9.225,9.2424,9.2633,9.2855,9.2947,9.2971,9.293,9.2872,9.2743,9.2613,9.2211,9.1706,9.1255,9.039,9.0344,9.0179,9.006,8.9987,8.9877,8.9803,8.984,8.9857,8.9698,8.979,8.9772,9.0056,9.0348,9.102,9.1597,9.2071,9.2534,9.2879,9.32,9.3498,8.2259,8.2971,8.3695,8.4454,8.5259,8.5984,8.6294,8.6294,8.6294,8.6294,8.6294,8.6294,8.6294,8.6398,8.6811,8.757,8.8846,8.9618,9.0599,9.1426,9.1727,9.213,9.2758,9.3143,9.3451,9.3891,9.4455,9.4784,9.5108,9.5633,9.5919,9.5981,9.5747,9.5189,9.4327,9.3749,9.2794,9.2069,9.1812,9.1812,9.1665,9.1221,9.068,9.0117,8.9285,8.8341,8.7769,8.7336,8.7169,8.7083,8.7023,8.7014,8.7014,8.7014,8.7096,8.7206,8.7234,8.7675,8.8293,8.9019,8.9688,9.0444,9.0708,9.0822,9.0791,9.0707,9.0637,9.0628,9.0628,9.0943,9.1523,9.1766,9.2139,9.2666,9.2969,9.3015,9.2531,9.2314,9.2147,9.2078,9.2031,9.21,9.2268,9.2433,9.265,9.2684,9.2709,9.2701,9.2641,9.2547,9.239,9.2142,9.1872,9.1783,9.1445,9.1372,9.1143,9.0877,9.0803,9.073,9.062,9.051,9.0527,9.0599,9.0499,9.0518,9.0847,9.1166,9.1617,9.2126,9.2685,9.3116,9.3523,9.3818,9.4132,8.2259,8.2971,8.373,8.4454,8.5259,8.6018,8.6294,8.6294,8.6294,8.6294,8.6294,8.6329,8.6329,8.6639,8.7812,8.8743,8.9536,9.0218,9.094,9.1625,9.1749,9.2105,9.2807,9.3119,9.3321,9.3741,9.4354,9.4763,9.5054,9.5498,9.5838,9.5957,9.605,9.5669,9.4547,9.4153,9.3354,9.2106,9.1812,9.1812,9.173,9.1249,9.0932,9.0378,8.9475,8.8508,8.8109,8.7537,8.7057,8.704,8.7014,8.7014,8.7014,8.7014,8.7435,8.7839,8.8115,8.831,8.8992,8.9569,9.0188,9.0637,9.0844,9.0819,9.074,9.0635,9.0581,9.0628,9.0644,9.1058,9.1736,9.1855,9.2273,9.2827,9.3385,9.31,9.2701,9.2718,9.2564,9.2105,9.2023,9.2031,9.2091,9.2259,9.2416,9.2461,9.2479,9.2479,9.2435,9.2331,9.2206,9.2001,9.1893,9.1812,9.1812,9.1812,9.1702,9.1473,9.1436,9.14,9.1253,9.1143,9.1363,9.139,9.1253,9.1326,9.1701,9.2,9.2249,9.2639,9.3115,9.3648,9.4155,9.4495,9.4893,8.3488,8.4225,8.4535,8.5121,8.5811,8.6191,8.6294,8.6294,8.6294,8.6294,8.6294,8.6294,8.6501,8.7156,8.8536,8.9364,8.9847,9.0467,9.1126,9.1599,9.1774,9.2077,9.2612,9.3,9.3286,9.3567,9.4197,9.47,9.499,9.5394,9.5797,9.6,9.6193,9.5979,9.4905,9.452,9.3675,9.2721,9.2106,9.1812,9.1721,9.1518,9.1195,9.0717,8.9615,8.8916,8.8237,8.7496,8.706,8.7014,8.7014,8.7014,8.7124,8.7381,8.7841,8.8002,8.8954,8.9495,8.977,8.9941,9.0317,9.0672,9.0799,9.0671,9.0637,9.0571,9.0501,9.0447,9.087,9.1449,9.2172,9.2714,9.3484,9.397,9.4084,9.3834,9.3501,9.3167,9.3005,9.2496,9.2033,9.2051,9.2012,9.2091,9.225,9.232,9.2357,9.2349,9.2206,9.2065,9.1975,9.1876,9.1812,9.1822,9.1812,9.1812,9.1812,9.1666,9.1666,9.1629,9.1702,9.1739,9.1959,9.1923,9.1666,9.195,9.249,9.2585,9.2583,9.3029,9.3536,9.428,9.4976,9.5454,9.5971,8.4742,8.5432,8.5294,8.5639,8.6282,8.6294,8.6294,8.6294,8.6294,8.6294,8.6363,8.6536,8.7018,8.7846,8.9019,8.9778,9.004,9.0571,9.1131,9.1523,9.1752,9.2005,9.2526,9.294,9.3203,9.3227,9.4231,9.4678,9.4882,9.5267,9.5725,9.599,9.615,9.5957,9.5444,9.4666,9.3758,9.2611,9.206,9.1849,9.1776,9.1776,9.1445,9.0886,9.0106,8.9326,8.8528,8.7757,8.7353,8.7014,8.7014,8.7096,8.739,8.776,8.8322,8.8654,8.956,9.0042,9.0213,9.0326,9.0352,9.0562,9.071,9.0637,9.0581,9.0551,9.0497,9.0325,9.0918,9.1665,9.2531,9.3284,9.4096,9.4693,9.515,9.4933,9.4632,9.4106,9.3399,9.2733,9.2317,9.2106,9.205,9.2003,9.2065,9.2189,9.2206,9.2171,9.2056,9.1903,9.1858,9.1812,9.1812,9.1812,9.1849,9.1849,9.1812,9.1923,9.1959,9.2069,9.2253,9.2354,9.2501,9.2363,9.2262,9.2876,9.3618,9.3252,9.2991,9.3755,9.4506,9.5206,9.5852,9.6381,9.7026,8.557,8.6144,8.5501,8.5639,8.6294,8.6294,8.6294,8.6294,8.6294,8.6316,8.6489,8.704,8.7777,8.857,8.9364,9.0109,9.0696,9.0778,9.1165,9.1523,9.174,9.2017,9.2502,9.2904,9.3227,9.3368,9.4164,9.4598,9.482,9.5165,9.5602,9.596,9.605,9.5823,9.5377,9.4758,9.3455,9.2427,9.1849,9.1812,9.1812,9.1812,9.1739,9.1546,9.0877,9.0143,8.9326,8.8454,8.7757,8.7206,8.7206,8.7355,8.7769,8.8185,8.8791,8.9504,8.981,9.0278,9.051,9.0653,9.07,9.0671,9.0591,9.0608,9.0521,9.0416,9.0325,9.0403,9.103,9.164,9.2459,9.3286,9.433,9.484,9.5231,9.5145,9.4907,9.4736,9.3997,9.3077,9.2729,9.2712,9.2418,9.2436,9.2013,9.2094,9.202,9.1993,9.1957,9.184,9.1831,9.1812,9.1812,9.1849,9.1877,9.1987,9.2244,9.2473,9.2547,9.2758,9.2978,9.3051,9.3161,9.3455,9.3566,9.4163,9.46,9.4334,9.4333,9.4836,9.5457,9.6149,9.6972,9.7649,9.8276,8.604,8.6294,8.5984,8.6053,8.6294,8.6294,8.6294,8.6294,8.6294,8.6557,8.7006,8.7812,8.857,8.9295,9.0019,9.0489,9.0765,9.0799,9.1213,9.1523,9.1752,9.2017,9.2502,9.2928,9.3215,9.3392,9.405,9.4565,9.4755,9.5033,9.5394,9.5705,9.5929,9.607,9.5701,9.483,9.3418,9.2253,9.1812,9.1812,9.1812,9.1812,9.1812,9.1739,9.1023,9.051,8.9996,8.883,8.8206,8.783,8.7757,8.7952,8.8267,8.8819,8.9422,9.002,9.0156,9.0475,9.0621,9.071,9.0661,9.0631,9.0618,9.0531,9.0457,9.0325,9.0444,9.073,9.1229,9.1872,9.2801,9.3765,9.4633,9.4939,9.5131,9.5176,9.5135,9.4989,9.4689,9.3811,9.3689,9.3721,9.3364,9.2987,9.2446,9.1941,9.1858,9.1812,9.1812,9.1849,9.1886,9.2014,9.2051,9.2391,9.2501,9.2648,9.2758,9.2941,9.3171,9.3455,9.3712,9.3832,9.3988,9.4355,9.4678,9.5037,9.5264,9.5355,9.562,9.6026,9.6518,9.7106,9.7947,9.8765,9.9117,8.6294,8.6294,8.6294,8.6294,8.6294,8.6294,8.6294,8.6294,8.6294,8.6695,8.7454,8.8433,8.9191,8.9812,9.042,9.0765,9.0799,9.0839,9.1213,9.1497,9.174,9.2052,9.249,9.2928,9.3215,9.338,9.3889,9.4443,9.4722,9.4904,9.5235,9.5571,9.5868,9.613,9.6028,9.5003,9.3464,9.2216,9.1812,9.1812,9.1812,9.1812,9.1812,9.1776,9.1289,9.0849,9.0436,8.9601,8.8977,8.8657,8.8503,8.8524,8.8947,8.9422,8.9992,9.0248,9.0419,9.073,9.0667,9.0628,9.0628,9.0628,9.0491,9.0437,9.0325,9.0192,9.0179,9.0789,9.1458,9.2216,9.3072,9.3961,9.4564,9.4882,9.5214,9.5332,9.5368,9.5274,9.5036,9.4614,9.4626,9.4528,9.4015,9.3565,9.2868,9.2244,9.184,9.1812,9.1812,9.1886,9.2033,9.2189,9.2391,9.2803,9.3262,9.3418,9.3529,9.3602,9.3868,9.4226,9.4446,9.4602,9.4952,9.5514,9.581,9.5857,9.6113,9.6451,9.6777,9.7175,9.7569,9.7888,9.8349,9.9065,9.9289,8.6282,8.6294,8.6294,8.6294,8.6294,8.6294,8.6294,8.6329,8.6398,8.6868,8.7764,8.9006,8.964,8.995,9.0558,9.0765,9.0799,9.0825,9.1113,9.1574,9.1736,9.2052,9.249,9.2904,9.3215,9.3392,9.3891,9.4388,9.4711,9.485,9.5129,9.5456,9.5807,9.5994,9.6201,9.5012,9.3455,9.2069,9.1849,9.1812,9.1812,9.1812,9.1812,9.1739,9.1666,9.1289,9.0812,9.04,8.9803,8.9411,8.9202,8.9322,8.9788,8.9799,9.0182,9.0696,9.0628,9.0611,9.0628,9.0628,9.0628,9.0598,9.0451,9.0325,9.0203,9.0062,9.0136,9.0939,9.1509,9.2135,9.2972,9.3886,9.4466,9.4828,9.5187,9.5409,9.5456,9.5632,9.5373,9.5324,9.5338,9.5223,9.4702,9.4116,9.3345,9.2684,9.2024,9.1877,9.2106,9.2335,9.2638,9.2794,9.306,9.3546,9.4042,9.418,9.4299,9.4345,9.4593,9.507,9.5327,9.5437,9.5926,9.6582,9.6722,9.6621,9.7107,9.7667,9.7749,9.7831,9.8226,9.8563,9.899,9.9244,9.9444,8.6131,8.6294,8.6294,8.6294,8.6294,8.6294,8.6329,8.6398,8.6868,8.773,8.8799,8.9571,9.0019,9.0385,9.0592,9.0799,9.0799,9.0812,9.1113,9.1638,9.1724,9.2065,9.249,9.2952,9.3191,9.3368,9.3822,9.4332,9.4711,9.4784,9.5044,9.5383,9.5714,9.5569,9.511,9.429,9.3501,9.2106,9.1812,9.1812,9.1812,9.1812,9.1812,9.1812,9.1812,9.1629,9.1289,9.095,9.0456,9.009,8.9898,8.9961,9.0166,9.0052,9.0502,9.074,9.0591,9.0628,9.0628,9.0628,9.0628,9.0547,9.0406,9.0213,9.0105,9.0346,9.0695,9.1259,9.1921,9.265,9.3622,9.4217,9.47,9.4809,9.508,9.5325,9.5492,9.5762,9.582,9.5917,9.5953,9.5744,9.5345,9.5107,9.4446,9.4006,9.3529,9.3272,9.3391,9.3511,9.375,9.3786,9.3958,9.4398,9.4784,9.4978,9.5327,9.552,9.5768,9.6098,9.6282,9.6181,9.6415,9.6832,9.7091,9.7368,9.7628,9.7904,9.82,9.8426,9.8703,9.8929,9.917,9.9413,9.9571,8.5916,8.6156,8.6156,8.6219,8.6282,8.6294,8.6432,8.6846,8.773,8.8799,8.9571,8.995,9.0316,9.0696,9.0799,9.0799,9.0799,9.0812,9.1113,9.1625,9.1724,9.203,9.249,9.2964,9.3167,9.3357,9.373,9.4256,9.4689,9.4711,9.5001,9.5456,9.573,9.5188,9.4576,9.405,9.3464,9.2253,9.1812,9.1812,9.1812,9.1812,9.1812,9.1812,9.1812,9.1776,9.162,9.1299,9.0896,9.074,9.0583,9.0442,9.0393,9.0436,9.0767,9.0657,9.0628,9.0628,9.0628,9.0517,9.0497,9.0467,9.0305,9.0233,9.0266,9.0477,9.1173,9.1838,9.2507,9.3161,9.3847,9.4408,9.4711,9.482,9.5069,9.5335,9.5492,9.5762,9.6001,9.6126,9.6311,9.612,9.6015,9.5942,9.5648,9.5364,9.5116,9.4859,9.452,9.4512,9.4632,9.4704,9.4802,9.5168,9.5527,9.5859,9.6208,9.6612,9.6685,9.6685,9.6697,9.6541,9.6831,9.7082,9.7295,9.7542,9.7811,9.8079,9.8333,9.8624,9.8929,9.9133,9.937,9.9521,9.9669,8.5669,8.5878,8.589,8.6099,8.6288,8.6542,8.6946,8.7627,8.9006,8.9674,8.9812,9.0489,9.073,9.0765,9.0799,9.0799,9.0799,9.0799,9.1178,9.1548,9.1724,9.2055,9.2477,9.294,9.3108,9.3357,9.3695,9.4154,9.4645,9.4741,9.5087,9.5508,9.5695,9.4976,9.4329,9.3863,9.3215,9.2216,9.1812,9.1812,9.1812,9.1812,9.1812,9.1812,9.1812,9.1748,9.1693,9.1593,9.1473,9.1352,9.1173,9.1018,9.0851,9.0701,9.0657,9.0628,9.0628,9.0618,9.0547,9.0406,9.0264,9.0213,9.0213,9.0353,9.0602,9.0777,9.1456,9.2244,9.29,9.3387,9.393,9.4316,9.4722,9.4929,9.5176,9.5325,9.5435,9.5669,9.5918,9.6172,9.646,9.6491,9.6492,9.6465,9.6282,9.6208,9.5887,9.563,9.529,9.5034,9.5173,9.5521,9.5647,9.5884,9.6197,9.6382,9.6465,9.6722,9.6722,9.6695,9.6752,9.6838,9.6998,9.7175,9.7469,9.7722,9.8018,9.8233,9.8398,9.8748,9.9073,9.9245,9.9392,9.9564,9.9704,8.5364,8.5665,8.6178,8.6435,8.6697,8.7873,8.8652,8.9096,8.9571,8.9937,9.0489,9.0696,9.0799,9.0799,9.0799,9.0799,9.0799,9.0878,9.1226,9.1497,9.1727,9.209,9.2475,9.2831,9.3048,9.3262,9.3579,9.4018,9.4421,9.4675,9.5044,9.5415,9.5602,9.4795,9.4071,9.3691,9.2835,9.2143,9.1785,9.1767,9.1785,9.1785,9.1785,9.1785,9.1785,9.173,9.1629,9.1601,9.1443,9.1139,9.1043,9.0887,9.0681,9.0647,9.0628,9.0628,9.0608,9.0568,9.0416,9.0325,9.0208,9.0139,9.0232,9.0595,9.0828,9.1248,9.1783,9.2615,9.3304,9.3755,9.4056,9.4419,9.4719,9.4947,9.5172,9.5356,9.5492,9.571,9.5944,9.6226,9.6521,9.6647,9.6722,9.6685,9.6539,9.6649,9.6575,9.6282,9.6061,9.5731,9.5694,9.6015,9.6189,9.6317,9.6436,9.6612,9.6649,9.6722,9.6722,9.6741,9.6743,9.6857,9.7063,9.7303,9.7577,9.7903,9.8246,9.8374,9.8468,9.8811,9.9118,9.9275,9.9428,9.9592,9.9725,8.5267,8.581,8.6232,8.6797,8.7638,8.8793,8.9532,8.9918,9.0105,9.0433,9.0765,9.0799,9.0799,9.0799,9.0799,9.0799,9.0812,9.0983,9.1291,9.1587,9.179,9.2118,9.2488,9.2781,9.3,9.3203,9.3497,9.3868,9.4321,9.4774,9.514,9.5409,9.5566,9.4622,9.3789,9.3356,9.275,9.1991,9.1573,9.162,9.1666,9.1694,9.1694,9.1694,9.1694,9.1583,9.1424,9.1396,9.1206,9.0946,9.0907,9.0799,9.0631,9.0628,9.0628,9.0628,9.0618,9.0507,9.0345,9.0203,9.0145,9.0179,9.0463,9.0992,9.1531,9.2028,9.259,9.3221,9.3672,9.4062,9.4298,9.4532,9.4763,9.4979,9.5172,9.5388,9.5575,9.5787,9.6021,9.6273,9.6482,9.6628,9.6722,9.6722,9.6722,9.6722,9.6722,9.6612,9.6465,9.6392,9.6282,9.6465,9.6539,9.6639,9.6722,9.6722,9.6722,9.6722,9.6722,9.6741,9.678,9.6951,9.7221,9.7466,9.7726,9.8027,9.8312,9.8386,9.8484,9.891,9.9434,9.9832,9.9924,9.9792,9.9866,8.5315,8.6268,8.6315,8.7347,8.8788,8.92,8.9737,9.0367,9.0585,9.0786,9.0786,9.0799,9.0799,9.0799,9.0799,9.0799,9.0878,9.1096,9.1355,9.1736,9.1964,9.224,9.25,9.2757,9.294,9.3215,9.3462,9.3764,9.4263,9.4719,9.5044,9.5367,9.5249,9.4488,9.345,9.3054,9.2357,9.1392,9.1197,9.1244,9.1433,9.149,9.149,9.149,9.1462,9.1396,9.1244,9.1158,9.1101,9.0956,9.0839,9.075,9.0661,9.0628,9.0628,9.0588,9.0578,9.0416,9.0223,9.0038,9.0296,9.042,9.069,9.1421,9.2041,9.2423,9.2947,9.3507,9.3958,9.4164,9.4399,9.4576,9.4784,9.5033,9.5257,9.5415,9.5571,9.5861,9.6229,9.6441,9.657,9.6722,9.6722,9.6722,9.6722,9.6722,9.6722,9.6722,9.6722,9.6722,9.6722,9.6722,9.6722,9.6722,9.6722,9.6722,9.6722,9.6722,9.6722,9.6732,9.6751,9.7026,9.7412,9.7646,9.784,9.8035,9.8262,9.8345,9.8629,9.9247,9.9796,10.042,10.0482,10.0305,10.0196,8.5966,8.6765,8.7341,8.8251,8.928,8.943,8.9812,9.0374,9.0441,9.0648,9.0773,9.0799,9.0799,9.0799,9.0868,9.0903,9.0982,9.1464,9.1502,9.1806,9.2085,9.236,9.2463,9.2623,9.2855,9.3096,9.3368,9.3707,9.4218,9.4631,9.4871,9.5025,9.4791,9.3996,9.3136,9.2711,9.1782,9.0892,9.0829,9.0975,9.117,9.1236,9.1282,9.1282,9.1263,9.1168,9.1043,9.0965,9.0848,9.0737,9.0671,9.0621,9.0628,9.0628,9.0618,9.0598,9.0467,9.0295,9.0094,8.9993,9.0212,9.0684,9.1102,9.1865,9.2425,9.2686,9.3079,9.3685,9.4097,9.4276,9.4477,9.4642,9.4828,9.5097,9.5388,9.5477,9.5602,9.6002,9.6405,9.6555,9.6693,9.6722,9.6722,9.6722,9.6722,9.6722,9.6722,9.6722,9.6722,9.6722,9.6722,9.6722,9.6722,9.6722,9.6722,9.6722,9.6722,9.6722,9.6722,9.6722,9.6741,9.7045,9.7403,9.7708,9.7935,9.8123,9.8275,9.8391,9.8782,9.9459,10.0413,10.1166,10.1298,10.1185,10.0978,8.6704,8.7448,8.8172,8.8797,8.9289,8.9434,8.9765,9.0262,9.0664,9.1063,9.1234,9.0985,9.0799,9.0937,9.1144,9.133,9.1478,9.2227,9.2344,9.2401,9.2474,9.2597,9.2616,9.2525,9.2843,9.3108,9.3474,9.3868,9.424,9.4455,9.4617,9.4803,9.4345,9.3691,9.2957,9.2201,9.1368,9.0664,9.0618,9.073,9.0975,9.1014,9.1062,9.1072,9.1043,9.0946,9.0839,9.076,9.0701,9.0657,9.0637,9.0637,9.0628,9.0628,9.0558,9.0467,9.0335,9.0161,8.9953,9.0029,9.0287,9.0932,9.1675,9.2496,9.3186,9.3471,9.3471,9.3994,9.4141,9.4343,9.4576,9.4763,9.499,9.5246,9.5514,9.568,9.5911,9.621,9.6467,9.6626,9.6722,9.6722,9.6722,9.6722,9.6722,9.6722,9.6722,9.6722,9.6722,9.6722,9.6722,9.6722,9.6722,9.6722,9.6722,9.6722,9.6722,9.6722,9.6722,9.6828,9.6942,9.7138,9.7422,9.7717,9.7989,9.8089,9.8241,9.8636,9.9089,9.9788,10.0865,10.1995,10.1993,10.1988,10.1684,8.7468,8.8206,8.8815,8.9154,8.9297,8.9549,8.9941,9.0461,9.1247,9.1854,9.2027,9.1468,9.111,9.1351,9.1744,9.1985,9.2421,9.3094,9.3247,9.321,9.3325,9.315,9.2839,9.2607,9.2831,9.3191,9.3591,9.3902,9.4231,9.4354,9.4482,9.4691,9.4135,9.3425,9.2859,9.2062,9.1137,9.0752,9.0628,9.0628,9.0671,9.075,9.0829,9.0858,9.0839,9.076,9.0641,9.0628,9.0628,9.0628,9.0628,9.0628,9.0588,9.0568,9.0457,9.0356,9.0172,8.9954,8.9831,9.0266,9.0841,9.1553,9.2376,9.3079,9.3721,9.3946,9.3982,9.4083,9.4229,9.4443,9.4675,9.4882,9.5119,9.5383,9.5628,9.587,9.6139,9.6405,9.6575,9.6722,9.6722,9.6722,9.6722,9.6722,9.6722,9.6722,9.6722,9.6722,9.6722,9.6722,9.6722,9.6722,9.6722,9.6722,9.6722,9.6722,9.6722,9.6722,9.676,9.6951,9.7138,9.7239,9.7458,9.7798,9.8007,9.8379,9.8838,9.9295,9.9766,10.0381,10.1383,10.2486,10.2802,10.2694,10.2306,8.824,8.8917,8.9066,8.9458,8.996,9.0343,9.0943,9.1794,9.2221,9.2659,9.2828,9.2813,9.2675,9.2675,9.2778,9.2895,9.3045,9.3884,9.399,9.3855,9.3771,9.3561,9.3227,9.2762,9.2854,9.3167,9.3544,9.3787,9.4084,9.4242,9.4319,9.4427,9.3151,9.2652,9.2589,9.1676,9.0669,9.0477,9.0547,9.0537,9.0578,9.0601,9.0631,9.0641,9.0641,9.0621,9.0628,9.0628,9.0628,9.0628,9.0618,9.0618,9.0547,9.0467,9.0345,9.0161,8.9986,8.9894,8.9944,9.0423,9.1042,9.178,9.2543,9.3221,9.3732,9.4016,9.4096,9.4251,9.4408,9.4562,9.4806,9.4947,9.5161,9.5467,9.5752,9.6028,9.6313,9.6514,9.6664,9.6722,9.6722,9.6722,9.6722,9.6722,9.6722,9.6722,9.6722,9.6722,9.6722,9.6722,9.6722,9.6722,9.6722,9.6722,9.6722,9.6722,9.6722,9.6722,9.678,9.6942,9.711,9.7239,9.7494,9.8036,9.8538,9.8951,9.9429,10.0034,10.0843,10.1491,10.2156,10.2915,10.3324,10.3148,10.2498]},{"header":{"parameterUnit":"m.s-1","parameterCategory":1,"la1":31.0,"la2":29.5877,"lo1":-88.7671,"lo2":-86.6584,"dy":0.0162,"dx":0.0185,"nx":115,"ny":88,"refTime":"2026-04-18T00:00:00:Z","depth":0,"parameterNumber":3,"parameterNumberName":"V-component_of_WINDS"},"data":[0.0,0.0,0.0,0.0,0.0,0.0,0.0,0.0,0.0,0.0,0.0,0.0,0.0,0.0,0.0,0.0,0.0,0.0,0.0,0.0,0.0,0.0,0.0,0.0,0.0,0.0,0.0,0.0,0.0,0.0,0.0,0.0,0.0,0.0,0.0,0.0,0.0,0.0,0.0,0.0,0.0,0.0,0.0,0.0,0.0,0.0,0.0,0.0,0.0,0.0,0.0,0.0,0.0,0.0,0.0,0.0,0.0,0.0,0.0,0.0,0.0,0.0,0.0,0.0,0.0,0.0,0.0,0.0,0.0,0.0,0.0,0.0,0.0,0.0,0.0,0.0,0.0,0.0,0.0,0.0,0.0,0.0,0.0,0.0,0.0,0.0,0.0,0.0,0.0,0.0,0.0,0.0,0.0,0.0,0.0,0.0,0.0,0.0,0.0,0.0,0.0,0.0,0.0,0.0,0.0,0.0,0.0,0.0,0.0,0.0,0.0,0.0,0.0,0.0,0.0,0.0,0.0,0.0,0.0,0.0,0.0,0.0,0.0,0.0,0.0,0.0,0.0,0.0,0.0,0.0,0.0,0.0,0.0,0.0,0.0,0.0,0.0,0.0,0.0,0.0,0.0,0.0,0.0,0.0,0.0,0.0,0.0,0.0,0.0,0.0,0.0,0.0,0.0,0.0,0.0,0.0,0.0,0.0,0.0,0.0,0.0,0.0,0.0,0.0,0.0,0.0,0.0,0.0,0.0,0.0,0.0,0.0,0.0,0.0,0.0,0.0,0.0,0.0,0.0,0.0,0.0,0.0,0.0,0.0,0.0,0.0,0.0,0.0,0.0,0.0,0.0,0.0,0.0,0.0,0.0,0.0,0.0,0.0,0.0,0.0,0.0,0.0,0.0,0.0,0.0,0.0,0.0,0.0,0.0,0.0,0.0,0.0,0.0,0.0,0.0,0.0,0.0,0.0,0.0,0.0,0.0,0.0,0.0,0.0,0.0,0.0,0.0,0.0,0.0,0.0,0.0,0.0,0.0,0.0,0.0,0.0,0.0,0.0,0.0,0.0,0.0,0.0,0.0,0.0,0.0,0.0,0.0,0.0,0.0,0.0,0.0,0.0,0.0,0.0,0.0,0.0,0.0,0.0,0.0,0.0,0.0,0.0,0.0,0.0,0.0,0.0,0.0,0.0,0.0,0.0,0.0,0.0,0.0,0.0,0.0,0.0,0.0,0.0,0.0,0.0,0.0,0.0,0.0,0.0,0.0,0.0,0.0,0.0,0.0,0.0,0.0,0.0,0.0,0.0,0.0,0.0,0.0,0.0,0.0,0.0,0.0,0.0,0.0,0.0,0.0,0.0,0.0,0.0,0.0,0.0,0.0,0.0,0.0,0.0,0.0,0.0,0.0,0.0,0.0,0.0,0.0,0.0,0.0,0.0,0.0,0.0,0.0,0.0,0.0,0.0,0.0,0.0,0.0,0.0,0.0,0.0,0.0,0.0,0.0,0.0,0.0,0.0,0.0,0.0,0.0,0.0,0.0,0.0,0.0,0.0,0.0,0.0,0.0,0.0,0.0,0.0,0.0,0.0,0.0,0.0,0.0,0.0,0.0,0.0,0.0,0.0,0.0,0.0,0.0,0.0,0.0,0.0,0.0,0.0,0.0,0.0,0.0,0.0,0.0,0.0,0.0,0.0,0.0,0.0,0.0,0.0,0.0,0.0,0.0,0.0,0.0,0.0,0.0,0.0,0.0,0.0,0.0,0.0,0.0,0.0,0.0,0.0,0.0,0.0,0.0,0.0,0.0,0.0,0.0,0.0,0.0,0.0,0.0,0.0,0.0,0.0,0.0,0.0,0.0,0.0,0.0,0.0,0.0,0.0,0.0,0.0,0.0,0.0,0.0,0.0,0.0,0.0,0.0,0.0,0.0,0.0,0.0,0.0,0.0,0.0,0.0,0.0,0.0,0.0,0.0,0.0,0.0,0.0,0.0,0.0,0.0,0.0,0.0,0.0,0.0,0.0,0.0,0.0,0.0,0.0,0.0,0.0,0.0,0.0,0.0,0.0,0.0,0.0,0.0,0.0,0.0,0.0,0.0,0.0,0.0,0.0,0.0,0.0,0.0,0.0,0.0,0.0,0.0,0.0,0.0,0.0,0.0,0.0,0.0,0.0,0.0,0.0,0.0,0.0,0.0,0.0,0.0,0.0,0.0,0.0,0.0,0.0,0.0,0.0,0.0,0.0,0.0,0.0,0.0,0.0,0.0,0.0,0.0,0.0,0.0,0.0,0.0,0.0,0.0,0.0,0.0,0.0,0.0,0.0,0.0,0.0,0.0,0.0,0.0,0.0,0.0,0.0,0.0,0.0,0.0,0.0,0.0,0.0,0.0,0.0,0.0,0.0,0.0,0.0,0.0,0.0,0.0,0.0,0.0,0.0,0.0,0.0,0.0,0.0,0.0,0.0,0.0,0.0,0.0,0.0,0.0,0.0,0.0,0.0,0.0,0.0,0.0,0.0,0.0,0.0,0.0,0.0,0.0,0.0,0.0,0.0,0.0,0.0,0.0,0.0,0.0,0.0,0.0,0.0,0.0,0.0,0.0,0.0,0.0,0.0,0.0,0.0,0.0,0.0,0.0,0.0,0.0,0.0,0.0,0.0,0.0,0.0,0.0,0.0,0.0,0.0,0.0,0.0,0.0,0.0,0.0,0.0,0.0,0.0,0.0,0.0,0.0,0.0,0.0,0.0,0.0,0.0,0.0,0.0,0.0,0.0,0.0,0.0,0.0,0.0,0.0,0.0,0.0,0.0,0.0,0.0,0.0,0.0,0.0,0.0,0.0,0.0,0.0,0.0,0.0,0.0,0.0,0.0,0.0,0.0,0.0,0.0,0.0,0.0,0.0,0.0,0.0,0.0,0.0,0.0,0.0,0.0,0.0,0.0,0.0,0.0,0.0,0.0,0.0,0.0,0.0,0.0,0.0,0.0,0.0,0.0,0.0,0.0,0.0,0.0,0.0,0.0,0.0,0.0,0.0,0.0,0.0,0.0,0.0,0.0,0.0,0.0,0.0,0.0,0.0,0.0,0.0,0.0,0.0,0.0,0.0,0.0,0.0,0.0,0.0,0.0,0.0,0.0,0.0,0.0,0.0,0.0,0.0,0.0,0.0,0.0,0.0,0.0,0.0,0.0,0.0,0.0,0.0,0.0,0.0,0.0,0.0,0.0,0.0,0.0,0.0,0.0,0.0,0.0,0.0,0.0,0.0,0.0,0.0,0.0,0.0,0.0,0.0,0.0,0.0,0.0,0.0,0.0,0.0,0.0,0.0,0.0,0.0,0.0,0.0,0.0,0.0,0.0,0.0,0.0,0.0,0.0,0.0,0.0,0.0,0.0,0.0,0.0,0.0,0.0,0.0,0.0,0.0,0.0,0.0,0.0,0.0,0.0,0.0,0.0,0.0,0.0,0.0,0.0,0.0,0.0,0.0,0.0,0.0,0.0,0.0,0.0,0.0,0.0,0.0,0.0,0.0,0.0,0.0,0.0,0.0,0.0,0.0,0.0,0.0,0.0,0.0,0.0,0.0,0.0,0.0,0.0,0.0,0.0,0.0,0.0,0.0,0.0,0.0,0.0,0.0,0.0,0.0,0.0,0.0,0.0,0.0,0.0,0.0,0.0,0.0,0.0,0.0,0.0,0.0,0.0,0.0,0.0,0.0,0.0,0.0,0.0,0.0,0.0,0.0,0.0,0.0,0.0,0.0,0.0,0.0,0.0,0.0,0.0,0.0,0.0,0.0,0.0,0.0,0.0,0.0,0.0,0.0,0.0,0.0,0.0,0.0,0.0,0.0,0.0,0.0,0.0,0.0,0.0,0.0,0.0,0.0,0.0,0.0,0.0,0.0,0.0,0.0,0.0,0.0,0.0,0.0,0.0,0.0,0.0,0.0,0.0,0.0,0.0,0.0,0.0,0.0,0.0,0.0,0.0,0.0,0.0,0.0,0.0,0.0,0.0,0.0,0.0,0.0,0.0,0.0,0.0,0.0,0.0,0.0,0.0,0.0,0.0,0.0,0.0,0.0,0.0,0.0,0.0,0.0,0.0,0.0,0.0,0.0,0.0,0.0,0.0,0.0,0.0,0.0,0.0,0.0,0.0,0.0,0.0,0.0,0.0,0.0,0.0,0.0,0.0,0.0,0.0,0.0,0.0,0.0,0.0,0.0,0.0,0.0,0.0,0.0,0.0,0.0,0.0,0.0,0.0,0.0,0.0,0.0,0.0,2.1294,0.0,0.0,0.0,0.0,0.0,0.0,0.0,0.0,0.0,0.0,0.0,0.0,0.0,0.0,0.0,0.0,0.0,0.0,0.0,0.0,0.0,0.0,0.0,0.0,0.0,0.0,0.0,0.0,0.0,0.0,0.0,0.0,0.0,0.0,0.0,0.0,0.0,0.0,0.0,0.0,0.0,0.0,0.0,0.0,0.0,0.0,0.0,0.0,0.0,0.0,0.0,0.0,0.0,0.0,0.0,0.0,0.0,0.0,0.0,0.0,0.0,0.0,0.0,0.0,0.0,0.0,0.0,0.0,0.0,0.0,0.0,0.0,0.0,0.0,0.0,0.0,0.0,0.0,0.0,0.0,0.0,0.0,0.0,0.0,0.0,0.0,0.0,0.0,0.0,0.0,0.0,0.0,0.0,0.0,0.0,0.0,0.0,0.0,0.0,0.0,0.0,0.0,0.0,0.0,0.0,0.0,0.0,0.0,0.0,0.0,2.402,2.3873,2.3005,2.2324,2.1921,0.0,0.0,0.0,0.0,0.0,0.0,0.0,0.0,0.0,0.0,0.0,0.0,0.0,0.0,0.0,0.0,0.0,0.0,0.0,0.0,0.0,0.0,0.0,0.0,0.0,0.0,0.0,0.0,0.0,0.0,0.0,0.0,0.0,0.0,0.0,0.0,0.0,0.0,0.0,0.0,0.0,0.0,0.0,0.0,0.0,0.0,0.0,0.0,0.0,0.0,0.0,0.0,0.0,0.0,0.0,0.0,0.0,0.0,0.0,0.0,0.0,0.0,0.0,0.0,0.0,0.0,0.0,0.0,0.0,0.0,0.0,0.0,0.0,0.0,0.0,0.0,0.0,0.0,0.0,0.0,0.0,0.0,0.0,0.0,0.0,0.0,0.0,0.0,0.0,0.0,0.0,0.0,0.0,0.0,0.0,0.0,0.0,0.0,0.0,0.0,0.0,0.0,0.0,0.0,0.0,0.0,0.0,0.0,0.0,0.0,0.0,0.0,2.3127,2.2511,2.2091,0.0,0.0,0.0,0.0,0.0,0.0,0.0,0.0,0.0,0.0,0.0,0.0,0.0,0.0,0.0,0.0,0.0,0.0,0.0,0.0,0.0,0.0,0.0,0.0,0.0,0.0,0.0,0.0,0.0,0.0,0.0,0.0,0.0,0.0,0.0,0.0,0.0,0.0,0.0,0.0,0.0,0.0,0.0,0.0,0.0,0.0,0.0,0.0,0.0,0.0,0.0,0.0,0.0,0.0,0.0,0.0,0.0,0.0,0.0,0.0,0.0,0.0,0.0,0.0,0.0,0.0,0.0,0.0,0.0,0.0,0.0,0.0,0.0,0.0,0.0,0.0,0.0,0.0,0.0,0.0,0.0,0.0,0.0,0.0,0.0,0.0,0.0,0.0,0.0,0.0,0.0,0.0,0.0,0.0,0.0,0.0,0.0,0.0,0.0,0.0,0.0,0.0,0.0,0.0,0.0,0.0,0.0,0.0,0.0,0.0,2.4623,2.4278,2.4049,0.0,2.1655,0.0,0.0,0.0,0.0,0.0,0.0,0.0,0.0,0.0,0.0,0.0,0.0,0.0,0.0,0.0,0.0,0.0,0.0,0.0,0.0,0.0,0.0,0.0,0.0,0.0,0.0,0.0,0.0,0.0,0.0,0.0,0.0,0.0,0.0,0.0,0.0,0.0,0.0,0.0,0.0,0.0,0.0,0.0,0.0,0.0,0.0,0.0,0.0,0.0,0.0,0.0,0.0,0.0,0.0,0.0,0.0,0.0,0.0,0.0,0.0,0.0,0.0,0.0,0.0,0.0,0.0,0.0,0.0,0.0,0.0,0.0,0.0,0.0,0.0,0.0,0.0,0.0,0.0,0.0,0.0,0.0,0.0,0.0,0.0,0.0,0.0,0.0,0.0,0.0,0.0,0.0,0.0,0.0,0.0,0.0,0.0,0.0,0.0,0.0,0.0,0.0,0.0,0.0,0.0,0.0,0.0,0.0,0.0,0.0,0.0,2.5043,2.4888,2.4449,2.3548,0.0,0.0,0.0,0.0,0.0,0.0,0.0,0.0,0.0,0.0,0.0,0.0,0.0,0.0,0.0,0.0,0.0,0.0,0.0,0.0,0.0,0.0,0.0,0.0,0.0,0.0,0.0,0.0,0.0,0.0,0.0,0.0,0.0,0.0,0.0,0.0,0.0,0.0,0.0,0.0,0.0,0.0,0.0,0.0,0.0,0.0,0.0,0.0,0.0,0.0,0.0,0.0,0.0,0.0,0.0,0.0,0.0,0.0,0.0,0.0,0.0,0.0,0.0,0.0,0.0,0.0,0.0,0.0,0.0,0.0,0.0,0.0,0.0,0.0,0.0,0.0,0.0,0.0,0.0,0.0,0.0,0.0,0.0,0.0,0.0,0.0,0.0,0.0,0.0,0.0,0.0,0.0,0.0,0.0,0.0,0.0,0.0,0.0,0.0,0.0,0.0,0.0,0.0,0.0,0.0,0.0,0.0,0.0,0.0,0.0,2.5304,2.5367,2.5381,2.4605,2.3675,2.2655,0.0,0.0,0.0,0.0,0.0,0.0,0.0,0.0,0.0,0.0,0.0,0.0,0.0,0.0,0.0,0.0,0.0,0.0,0.0,0.0,0.0,0.0,0.0,0.0,0.0,0.0,0.0,0.0,0.0,0.0,0.0,0.0,0.0,0.0,0.0,0.0,0.0,0.0,0.0,0.0,0.0,0.0,0.0,0.0,0.0,0.0,0.0,0.0,0.0,0.0,0.0,0.0,0.0,0.0,0.0,0.0,0.0,0.0,0.0,0.0,0.0,0.0,0.0,0.0,0.0,0.0,0.0,0.0,0.0,0.0,0.0,0.0,0.0,0.0,0.0,0.0,0.0,0.0,0.0,0.0,0.0,0.0,0.0,0.0,0.0,0.0,0.0,0.0,0.0,0.0,0.0,0.0,0.0,0.0,0.0,0.0,0.0,0.0,0.0,0.0,0.0,0.0,0.0,0.0,0.0,0.0,0.0,0.0,0.0,2.5493,2.5586,2.5747,2.4515,2.3548,0.0,0.0,0.0,0.0,0.0,0.0,0.0,0.0,0.0,0.0,0.0,0.0,0.0,0.0,0.0,0.0,0.0,0.0,0.0,0.0,0.0,0.0,0.0,0.0,0.0,0.0,0.0,0.0,0.0,0.0,0.0,0.0,0.0,0.0,0.0,0.0,0.0,0.0,0.0,0.0,0.0,0.0,0.0,0.0,0.0,0.0,0.0,0.0,0.0,0.0,0.0,0.0,0.0,0.0,0.0,0.0,0.0,0.0,0.0,0.0,0.0,0.0,0.0,0.0,0.0,0.0,0.0,0.0,0.0,0.0,0.0,0.0,0.0,0.0,0.0,0.0,0.0,0.0,0.0,0.0,0.0,0.0,0.0,0.0,0.0,0.0,0.0,0.0,0.0,0.0,0.0,0.0,0.0,0.0,0.0,0.0,0.0,0.0,0.0,0.0,0.0,0.0,0.0,0.0,0.0,0.0,0.0,0.0,0.0,2.5499,2.5879,2.602,2.5916,2.5075,2.416,0.0,0.0,0.0,0.0,0.0,0.0,0.0,0.0,0.0,0.0,0.0,0.0,0.0,0.0,0.0,0.0,0.0,0.0,0.0,0.0,0.0,0.0,0.0,0.0,0.0,0.0,0.0,0.0,0.0,0.0,0.0,0.0,0.0,0.0,0.0,0.0,0.0,0.0,0.0,0.0,0.0,0.0,0.0,0.0,0.0,0.0,0.0,0.0,0.0,0.0,0.0,0.0,0.0,0.0,0.0,0.0,0.0,0.0,0.0,0.0,0.0,0.0,0.0,0.0,0.0,0.0,0.0,0.0,0.0,0.0,0.0,0.0,0.0,0.0,0.0,0.0,0.0,0.0,0.0,0.0,0.0,0.0,0.0,0.0,0.0,0.0,0.0,0.0,0.0,0.0,0.0,0.0,0.0,0.0,0.0,0.0,0.0,0.0,0.0,0.0,0.0,0.0,0.0,0.0,0.0,0.0,0.0,0.0,0.0,2.5665,0.0,2.644,0.0,2.559,2.4645,0.0,0.0,0.0,0.0,0.0,0.0,0.0,0.0,0.0,0.0,0.0,0.0,0.0,0.0,0.0,0.0,0.0,0.0,0.0,0.0,0.0,0.0,0.0,0.0,0.0,0.0,0.0,0.0,0.0,0.0,0.0,0.0,0.0,0.0,0.0,0.0,0.0,0.0,0.0,0.0,0.0,0.0,0.0,0.0,0.0,0.0,0.0,0.0,0.0,0.0,0.0,0.0,0.0,0.0,0.0,0.0,0.0,0.0,0.0,0.0,0.0,0.0,0.0,0.0,0.0,0.0,0.0,0.0,0.0,0.0,0.0,0.0,0.0,0.0,0.0,0.0,0.0,0.0,0.0,0.0,0.0,0.0,0.0,0.0,0.0,0.0,0.0,0.0,0.0,0.0,0.0,0.0,0.0,0.0,0.0,0.0,0.0,0.0,0.0,0.0,0.0,0.0,0.0,0.0,0.0,0.0,0.0,0.0,2.5053,2.5951,2.65,2.6727,2.6747,2.5906,2.4938,0.0,0.0,0.0,0.0,0.0,0.0,0.0,0.0,0.0,0.0,0.0,0.0,0.0,0.0,0.0,0.0,0.0,0.0,0.0,0.0,0.0,0.0,0.0,0.0,0.0,0.0,0.0,0.0,0.0,0.0,0.0,0.0,0.0,0.0,0.0,0.0,0.0,0.0,0.0,0.0,0.0,0.0,0.0,0.0,0.0,0.0,0.0,0.0,0.0,0.0,0.0,0.0,0.0,0.0,0.0,0.0,0.0,0.0,0.0,0.0,0.0,0.0,0.0,0.0,0.0,0.0,0.0,0.0,0.0,0.0,0.0,0.0,0.0,0.0,0.0,0.0,0.0,0.0,0.0,0.0,0.0,0.0,0.0,0.0,0.0,0.0,0.0,0.0,0.0,0.0,0.0,0.0,0.0,0.0,0.0,0.0,0.0,0.0,0.0,0.0,0.0,0.0,0.0,0.0,0.0,0.0,0.0,0.0,0.0,2.5773,2.618,2.6272,2.6029,2.5367,2.4639,0.0,0.0,0.0,0.0,0.0,0.0,0.0,0.0,0.0,0.0,0.0,0.0,0.0,0.0,0.0,0.0,0.0,0.0,0.0,0.0,0.0,0.0,0.0,0.0,0.0,0.0,0.0,0.0,0.0,0.0,0.0,0.0,0.0,0.0,0.0,0.0,0.0,0.0,0.0,0.0,0.0,0.0,0.0,0.0,0.0,0.0,0.0,0.0,0.0,0.0,0.0,0.0,0.0,0.0,0.0,0.0,0.0,0.0,0.0,0.0,0.0,0.0,0.0,0.0,0.0,0.0,0.0,0.0,0.0,0.0,0.0,0.0,0.0,0.0,0.0,0.0,0.0,0.0,0.0,0.0,0.0,0.0,0.0,0.0,0.0,0.0,0.0,0.0,0.0,0.0,0.0,0.0,0.0,0.0,0.0,0.0,0.0,0.0,0.0,0.0,0.0,0.0,0.0,0.0,0.0,0.0,0.0,0.0,0.0,2.5457,2.5498,2.5429,2.5301,2.4685,2.415,2.3748,0.0,0.0,0.0,0.0,0.0,0.0,0.0,0.0,0.0,0.0,0.0,0.0,0.0,0.0,0.0,0.0,0.0,0.0,0.0,0.0,0.0,0.0,0.0,0.0,0.0,0.0,0.0,0.0,0.0,0.0,0.0,0.0,0.0,0.0,0.0,0.0,0.0,0.0,0.0,0.0,0.0,0.0,0.0,0.0,0.0,0.0,0.0,0.0,0.0,0.0,0.0,0.0,0.0,0.0,0.0,0.0,0.0,0.0,0.0,0.0,0.0,0.0,0.0,0.0,0.0,0.0,0.0,0.0,0.0,0.0,0.0,0.0,0.0,0.0,0.0,0.0,0.0,0.0,0.0,0.0,0.0,0.0,0.0,0.0,0.0,0.0,0.0,0.0,0.0,0.0,0.0,0.0,0.0,0.0,0.0,0.0,0.0,0.0,0.0,0.0,0.0,0.0,0.0,0.0,0.0,0.0,0.0,0.0,2.5045,2.4499,2.4322,2.4549,2.4,2.3639,0.0,0.0,0.0,0.0,0.0,0.0,0.0,0.0,0.0,0.0,0.0,0.0,0.0,0.0,0.0,0.0,0.0,0.0,0.0,0.0,0.0,0.0,0.0,0.0,0.0,0.0,0.0,0.0,0.0,0.0,0.0,0.0,0.0,0.0,0.0,0.0,0.0,0.0,0.0,0.0,0.0,0.0,0.0,0.0,0.0,0.0,0.0,0.0,0.0,0.0,0.0,0.0,0.0,0.0,0.0,0.0,0.0,0.0,0.0,0.0,0.0,0.0,0.0,0.0,0.0,0.0,0.0,0.0,0.0,0.0,0.0,0.0,0.0,0.0,0.0,0.0,0.0,0.0,0.0,0.0,0.0,0.0,0.0,0.0,0.0,0.0,0.0,0.0,0.0,0.0,0.0,0.0,0.0,0.0,0.0,0.0,0.0,0.0,0.0,0.0,0.0,0.0,0.0,0.0,0.0,0.0,0.0,0.0,0.0,2.4484,2.3599,2.3446,2.4125,2.422,2.4029,0.0,0.0,0.0,0.0,0.0,0.0,0.0,0.0,0.0,0.0,0.0,0.0,0.0,0.0,0.0,0.0,0.0,0.0,0.0,0.0,0.0,0.0,0.0,0.0,0.0,0.0,0.0,0.0,0.0,0.0,0.0,0.0,0.0,0.0,0.0,0.0,0.0,0.0,0.0,0.0,0.0,0.0,0.0,0.0,0.0,0.0,0.0,0.0,0.0,0.0,0.0,0.0,0.0,0.0,0.0,0.0,0.0,0.0,0.0,0.0,0.0,0.0,0.0,0.0,0.0,0.0,0.0,0.0,0.0,0.0,0.0,0.0,0.0,0.0,0.0,0.0,0.0,0.0,0.0,0.0,0.0,0.0,0.0,0.0,0.0,0.0,0.0,0.0,0.0,0.0,0.0,0.0,0.0,0.0,0.0,0.0,0.0,0.0,0.0,0.0,0.0,0.0,0.0,0.0,0.0,0.0,0.0,0.0,2.4715,2.4741,2.3714,2.3363,2.3732,2.3764,2.3701,0.0,0.0,0.0,0.0,0.0,0.0,0.0,0.0,0.0,0.0,0.0,0.0,0.0,0.0,0.0,0.0,0.0,0.0,0.0,0.0,0.0,0.0,0.0,0.0,0.0,0.0,0.0,0.0,0.0,0.0,0.0,0.0,0.0,0.0,0.0,0.0,0.0,0.0,0.0,0.0,0.0,0.0,0.0,0.0,0.0,0.0,0.0,0.0,0.0,0.0,0.0,0.0,0.0,0.0,0.0,0.0,0.0,0.0,0.0,0.0,0.0,0.0,0.0,0.0,0.0,0.0,0.0,0.0,0.0,0.0,0.0,0.0,0.0,0.0,0.0,0.0,0.0,0.0,0.0,0.0,0.0,0.0,0.0,0.0,0.0,0.0,0.0,0.0,0.0,0.0,0.0,0.0,0.0,0.0,0.0,0.0,0.0,0.0,0.0,0.0,0.0,0.0,0.0,0.0,0.0,0.0,0.0,0.0,2.464,2.532,2.4403,2.3771,2.3471,2.3162,2.3192,0.0,0.0,0.0,0.0,0.0,0.0,0.0,0.0,0.0,0.0,0.0,0.0,0.0,0.0,0.0,0.0,0.0,0.0,0.0,0.0,0.0,0.0,0.0,0.0,0.0,0.0,0.0,0.0,0.0,0.0,0.0,0.0,0.0,0.0,0.0,0.0,0.0,0.0,0.0,0.0,0.0,0.0,0.0,0.0,0.0,0.0,0.0,0.0,0.0,0.0,0.0,0.0,0.0,0.0,0.0,0.0,0.0,0.0,0.0,0.0,0.0,0.0,0.0,0.0,0.0,0.0,0.0,0.0,0.0,0.0,0.0,0.0,0.0,0.0,0.0,0.0,0.0,0.0,0.0,0.0,0.0,0.0,0.0,0.0,0.0,0.0,0.0,0.0,0.0,0.0,0.0,0.0,0.0,0.0,0.0,0.0,0.0,0.0,0.0,0.0,0.0,0.0,0.0,0.0,0.0,0.0,0.0,0.0,2.5453,2.517,2.4793,2.4381,2.3976,2.416,2.4131,0.0,0.0,0.0,0.0,0.0,0.0,0.0,0.0,0.0,0.0,0.0,0.0,0.0,0.0,0.0,0.0,0.0,0.0,0.0,0.0,0.0,0.0,0.0,0.0,0.0,0.0,0.0,0.0,0.0,0.0,0.0,0.0,0.0,0.0,0.0,0.0,0.0,0.0,0.0,0.0,0.0,0.0,0.0,0.0,0.0,0.0,0.0,0.0,1.0695,0.0,0.0,0.0,0.0,0.0,0.0,0.0,0.0,0.0,0.0,0.0,0.0,0.0,0.0,0.0,0.0,0.0,0.0,0.0,0.0,0.0,0.0,0.0,0.0,0.0,0.0,0.0,0.0,0.0,0.0,0.0,0.0,0.0,0.0,0.0,0.0,0.0,0.0,0.0,0.0,0.0,0.0,0.0,0.0,0.0,0.0,0.0,0.0,0.0,0.0,0.0,0.0,0.0,0.0,0.0,0.0,0.0,0.0,0.0,2.6101,2.5858,2.5867,2.5751,2.5514,2.535,2.4849,0.0,0.0,0.0,0.0,0.0,0.0,0.0,0.0,0.0,0.0,0.0,0.0,0.0,0.0,0.0,0.0,0.0,0.0,0.0,0.0,0.0,0.0,0.0,0.0,0.0,0.0,0.0,0.0,0.0,0.0,0.0,0.0,0.0,0.0,0.0,0.0,0.0,0.0,0.0,0.0,0.0,0.0,0.0,0.0,0.0,0.0,0.0,0.0,0.0,0.0,0.0,0.0,0.0,0.0,0.0,0.0,0.0,0.0,0.0,0.0,0.0,0.0,0.0,0.0,0.0,0.0,0.0,0.0,0.0,0.0,0.0,0.0,0.0,0.0,0.0,0.0,0.0,0.0,0.0,0.0,0.0,0.0,0.0,0.0,0.0,0.0,0.0,0.0,0.0,0.0,0.0,0.0,0.0,0.0,0.0,0.0,0.0,0.0,0.0,0.0,0.0,0.0,0.0,0.0,0.0,0.0,0.0,2.61,2.6625,2.6749,2.7001,2.7115,2.7104,2.6302,2.5374,2.4367,0.0,0.0,0.0,0.0,0.0,0.0,0.0,0.0,0.0,0.0,0.0,0.0,0.0,0.0,0.0,0.0,0.0,0.0,0.0,0.0,0.0,0.0,0.0,0.0,0.0,0.0,0.0,0.0,0.0,0.0,0.0,0.0,0.0,0.0,0.0,0.0,0.0,0.0,1.2274,1.2665,0.0,0.0,0.0,0.0,0.0,0.0,0.0,0.0,1.2198,0.0,0.0,0.0,0.0,0.0,0.0,0.0,0.0,0.0,0.0,0.0,0.0,0.0,0.0,0.0,0.0,0.0,0.0,0.0,0.0,0.0,0.0,0.0,0.0,0.0,0.0,0.0,0.0,0.0,0.0,0.0,0.0,0.0,0.0,0.0,0.0,0.0,0.0,0.0,0.0,0.0,0.0,0.0,0.0,0.0,0.0,0.0,0.0,0.0,0.0,0.0,0.0,0.0,0.0,0.0,0.0,2.5423,2.6345,2.6896,2.7048,2.7093,2.7115,2.7081,2.6154,2.5524,2.5276,0.0,0.0,0.0,0.0,0.0,0.0,0.0,0.0,0.0,0.0,0.0,0.0,0.0,0.0,0.0,0.0,0.0,0.0,0.0,0.0,0.0,0.0,0.0,0.0,0.0,0.0,0.0,0.0,0.0,0.0,0.0,0.0,0.0,0.0,0.0,0.0,0.0,0.0,0.0,1.2509,1.2608,0.0,0.0,0.0,0.0,0.0,0.0,0.0,0.0,1.2056,0.0,0.0,0.0,0.0,0.0,0.0,0.0,0.0,0.0,0.0,0.0,0.0,0.0,0.0,0.0,0.0,0.0,0.0,0.0,0.0,0.0,0.0,0.0,0.0,0.0,0.0,0.0,0.0,0.0,0.0,0.0,0.0,0.0,0.0,0.0,0.0,0.0,0.0,0.0,0.0,0.0,0.0,0.0,0.0,0.0,0.0,0.0,0.0,0.0,0.0,0.0,0.0,0.0,0.0,0.0,2.5739,2.6655,2.7391,2.7862,2.7883,2.8016,2.8252,2.7157,2.6463,0.0,0.0,0.0,0.0,0.0,0.0,0.0,0.0,0.0,0.0,0.0,0.0,0.0,0.0,0.0,0.0,0.0,0.0,0.0,0.0,0.0,0.0,0.0,0.0,0.0,0.0,0.0,0.0,0.0,0.0,0.0,0.0,0.0,0.0,0.0,0.0,0.0,0.0,0.0,0.0,1.2404,1.2662,1.2182,0.0,0.0,0.0,0.0,0.0,0.0,1.2663,1.2323,0.0,0.0,0.0,0.0,0.0,0.0,0.0,0.0,0.0,0.0,0.0,0.0,0.0,0.0,0.0,0.0,0.0,0.0,0.0,0.0,0.0,0.0,0.0,0.0,0.0,0.0,0.0,0.0,0.0,0.0,0.0,0.0,0.0,0.0,0.0,0.0,0.0,0.0,0.0,0.0,0.0,0.0,0.0,0.0,0.0,0.0,0.0,0.0,0.0,0.0,0.0,0.0,0.0,0.0,0.0,2.6138,2.7024,2.7913,2.8716,2.8703,2.8898,2.9357,2.8075,2.7257,0.0,0.0,0.0,0.0,0.0,0.0,0.0,0.0,0.0,0.0,0.0,0.0,0.0,0.0,0.0,0.0,0.0,0.0,0.0,0.0,0.0,0.0,0.0,0.0,0.0,0.0,0.0,0.0,0.0,0.0,0.0,0.0,0.0,0.0,0.0,0.0,0.0,0.0,0.0,0.0,0.0,1.2822,1.2216,1.2763,0.0,0.0,0.0,0.0,1.3083,1.3007,0.0,0.0,0.0,0.0,0.0,0.0,0.0,0.0,0.0,0.0,0.0,0.0,0.0,0.0,0.0,0.0,0.0,0.0,0.0,0.0,0.0,0.0,0.0,0.0,0.0,0.0,0.0,0.0,0.0,0.0,0.0,0.0,0.0,0.0,0.0,0.0,0.0,0.0,0.0,0.0,0.0,0.0,0.0,0.0,0.0,0.0,0.0,0.0,0.0,0.0,0.0,0.0,0.0,0.0,0.0,0.0,2.6928,2.7473,2.8259,2.9234,2.9066,2.9079,2.9369,2.8049,2.7099,0.0,0.0,0.0,0.0,0.0,0.0,0.0,0.0,0.0,0.0,0.0,0.0,0.0,0.0,0.0,0.0,0.0,0.0,0.0,0.0,0.0,0.0,0.0,0.0,0.0,0.0,0.0,0.0,0.0,0.0,0.0,0.0,0.0,0.0,0.0,0.0,0.0,0.0,0.0,0.0,0.0,1.3083,1.2904,1.3166,1.3376,0.0,0.0,1.3679,1.3398,1.3582,0.0,0.0,0.0,0.0,0.0,0.0,0.0,0.0,0.0,0.0,0.0,0.0,0.0,0.0,0.0,0.0,0.0,0.0,0.0,0.0,0.0,0.0,0.0,0.0,0.0,0.0,0.0,0.0,0.0,0.0,0.0,0.0,0.0,0.0,0.0,0.0,0.0,0.0,0.0,0.0,0.0,0.0,0.0,0.0,0.0,0.0,0.0,0.0,0.0,0.0,0.0,0.0,0.0,0.0,0.0,2.5846,2.7077,2.7704,2.8475,2.9357,2.9127,2.9139,2.9393,2.8181,2.7218,0.0,0.0,0.0,0.0,0.0,0.0,0.0,0.0,0.0,0.0,0.0,0.0,0.0,0.0,0.0,0.0,0.0,0.0,0.0,0.0,0.0,0.0,0.0,0.0,0.0,0.0,0.0,0.0,0.0,0.0,0.0,0.0,0.0,0.0,0.0,0.0,0.0,0.0,0.0,0.0,0.0,0.0,1.3334,1.3493,0.0,0.0,0.0,1.4404,1.4652,0.0,0.0,0.0,0.0,0.0,0.0,0.0,0.0,0.0,0.0,0.0,0.0,0.0,0.0,0.0,0.0,0.0,0.0,0.0,0.0,0.0,0.0,0.0,0.0,0.0,0.0,0.0,0.0,0.0,0.0,0.0,0.0,0.0,0.0,0.0,0.0,0.0,0.0,0.0,0.0,0.0,0.0,0.0,0.0,0.0,0.0,0.0,0.0,0.0,0.0,0.0,0.0,0.0,0.0,0.0,0.0,0.0,2.7099,2.7911,2.8644,2.9369,2.9212,2.92,2.9369,2.8304,0.0,0.0,0.0,0.0,0.0,0.0,0.0,0.0,0.0,0.0,0.0,0.0,0.0,0.0,0.0,0.0,0.0,0.0,0.0,0.0,0.0,0.0,0.0,0.0,0.0,0.0,0.0,1.1736,0.0,0.0,0.0,0.0,0.0,0.0,0.0,0.0,0.0,0.0,0.0,0.0,0.0,0.0,1.3342,1.362,1.3782,1.3813,0.0,0.0,1.5015,1.5615,1.4978,1.4123,0.0,0.0,0.0,0.0,0.0,0.0,0.0,0.0,0.0,0.0,0.0,0.0,0.0,0.0,0.0,0.0,0.0,0.0,0.0,0.0,0.0,0.0,0.0,0.0,0.0,0.0,0.0,0.0,0.0,0.0,0.0,0.0,0.0,0.0,0.0,0.0,0.0,0.0,0.0,0.0,0.0,0.0,0.0,0.0,0.0,0.0,0.0,0.0,0.0,0.0,0.0,0.0,0.0,0.0,0.0,2.7077,2.8072,2.8825,2.9381,2.9381,2.9381,2.9381,2.828,2.7355,0.0,0.0,0.0,0.0,0.0,0.0,0.0,0.0,0.0,0.0,0.0,0.0,0.0,0.0,0.0,0.0,0.0,0.0,0.0,0.0,0.0,0.0,0.0,0.0,0.0,0.0,0.0,0.0,0.0,0.0,0.0,0.0,0.0,0.0,0.0,0.0,0.0,0.0,0.0,0.0,0.0,1.3492,1.3741,1.3938,1.412,0.0,0.0,1.5507,1.5665,1.5433,1.4773,1.3404,0.0,0.0,0.0,0.0,0.0,0.0,0.0,0.0,0.0,0.0,0.0,0.0,0.0,0.0,0.0,0.0,0.0,0.0,0.0,0.0,0.0,0.0,0.0,0.0,0.0,0.0,0.0,0.0,0.0,0.0,0.0,0.0,0.0,0.0,0.0,0.0,0.0,0.0,0.0,0.0,0.0,0.0,0.0,0.0,0.0,0.0,0.0,0.0,0.0,0.0,0.0,0.0,0.0,2.5797,2.7099,2.8256,2.9018,2.9381,2.9405,2.9405,2.9405,2.8181,2.7178,0.0,0.0,0.0,0.0,0.0,0.0,0.0,0.0,0.0,0.0,0.0,0.0,0.0,0.0,0.0,0.0,0.0,0.0,0.0,0.0,0.0,0.0,0.0,0.0,0.0,0.0,0.0,0.0,1.4158,1.3878,1.3552,0.0,0.0,0.0,0.0,0.0,0.0,0.0,0.0,0.0,0.0,1.366,1.4068,1.4251,0.0,0.0,1.5051,1.5636,1.5679,1.5491,1.4868,1.3645,1.32,0.0,0.0,0.0,0.0,0.0,0.0,0.0,0.0,0.0,0.0,0.0,0.0,0.0,0.0,0.0,0.0,0.0,0.0,0.0,0.0,0.0,0.0,0.0,0.0,0.0,0.0,0.0,0.0,0.0,0.0,0.0,0.0,0.0,0.0,0.0,0.0,0.0,0.0,0.0,0.0,0.0,0.0,0.0,0.0,0.0,0.0,0.0,0.0,0.0,0.0,0.0,0.0,2.5898,2.7086,2.8354,2.9139,2.9405,2.9405,2.9405,2.9369,2.8174,2.722,0.0,0.0,0.0,0.0,0.0,0.0,0.0,0.0,0.0,0.0,0.0,0.0,0.0,0.0,0.0,0.0,0.0,0.0,0.0,0.0,0.0,0.0,0.0,0.0,0.0,0.0,0.0,0.0,1.58,1.5271,1.4533,0.0,0.0,0.0,0.0,0.0,0.0,0.0,0.0,0.0,0.0,1.4085,1.4443,1.451,1.4442,1.4332,1.498,1.5558,1.5683,1.5394,1.4857,1.395,0.0,0.0,0.0,0.0,0.0,0.0,0.0,0.0,0.0,0.0,0.0,0.0,0.0,0.0,0.0,0.0,0.0,0.0,0.0,0.0,0.0,0.0,0.0,0.0,0.0,0.0,0.0,0.0,0.0,0.0,2.2893,0.0,0.0,0.0,0.0,0.0,0.0,0.0,0.0,0.0,0.0,0.0,0.0,0.0,0.0,0.0,0.0,0.0,0.0,0.0,0.0,0.0,0.0,2.5898,2.7099,2.8366,2.9151,2.9393,2.9405,2.9405,2.9356,2.8367,2.7465,2.6777,0.0,0.0,0.0,0.0,0.0,0.0,0.0,0.0,0.0,0.0,0.0,0.0,0.0,0.0,0.0,0.0,0.0,0.0,0.0,0.0,0.0,0.0,0.0,0.0,0.0,0.0,1.7333,1.6993,1.6503,0.0,0.0,0.0,0.0,0.0,0.0,0.0,0.0,0.0,0.0,1.4538,1.4821,1.4955,1.4711,1.4449,1.4323,1.4714,1.5183,1.5594,1.5184,1.47,0.0,0.0,0.0,0.0,0.0,0.0,0.0,0.0,0.0,0.0,0.0,0.0,0.0,0.0,0.0,0.0,0.0,0.0,0.0,0.0,0.0,0.0,0.0,0.0,0.0,0.0,0.0,2.3214,2.331,0.0,0.0,0.0,0.0,0.0,0.0,0.0,0.0,0.0,0.0,0.0,2.3581,2.3862,0.0,0.0,0.0,0.0,0.0,0.0,0.0,0.0,0.0,0.0,0.0,0.0,2.6167,2.7359,2.8611,2.9405,2.9658,2.967,2.9586,2.9405,2.8536,2.7427,2.6016,0.0,0.0,0.0,0.0,0.0,0.0,0.0,0.0,0.0,0.0,0.0,0.0,0.0,0.0,0.0,0.0,0.0,0.0,0.0,0.0,0.0,0.0,0.0,0.0,0.0,1.9204,0.0,0.0,0.0,0.0,0.0,0.0,0.0,0.0,0.0,0.0,0.0,1.4999,1.5041,1.4895,1.4899,1.5217,1.4903,1.4617,0.0,0.0,0.0,0.0,0.0,0.0,0.0,0.0,0.0,0.0,0.0,0.0,0.0,0.0,1.2901,1.2838,1.2649,1.2455,1.2372,0.0,0.0,0.0,0.0,0.0,0.0,0.0,0.0,0.0,0.0,0.0,0.0,0.0,0.0,2.3788,0.0,2.3541,0.0,0.0,0.0,0.0,0.0,0.0,0.0,0.0,2.4566,2.4661,2.4537,2.4708,2.4922,0.0,2.5294,2.5061,0.0,0.0,0.0,0.0,0.0,0.0,0.0,0.0,2.6495,2.7741,2.8844,2.9526,2.9779,2.9791,2.967,2.9393,2.8427,2.7193,2.5656,2.4841,2.3987,0.0,0.0,0.0,0.0,0.0,0.0,0.0,0.0,0.0,0.0,0.0,0.0,0.0,0.0,0.0,0.0,0.0,0.0,0.0,0.0,0.0,0.0,0.0,2.045,0.0,0.0,0.0,0.0,0.0,0.0,0.0,0.0,0.0,1.5294,1.5884,1.6429,1.6323,1.6015,1.5742,1.5653,0.0,0.0,0.0,0.0,0.0,0.0,0.0,1.4961,1.4696,1.4801,1.4903,1.4866,1.4938,1.4727,1.3942,0.0,0.0,1.3827,1.3738,1.3595,1.3349,1.3546,1.3763,1.3744,1.3961,1.4281,0.0,0.0,0.0,0.0,0.0,0.0,0.0,0.0,2.4642,2.4642,0.0,2.4602,0.0,0.0,0.0,0.0,0.0,2.449,0.0,0.0,2.5453,2.5582,2.592,2.5953,2.5987,2.6051,2.6787,2.7377,2.7706,2.6269,0.0,0.0,0.0,0.0,0.0,0.0,2.6951,2.8319,2.9076,2.9574,2.9803,2.9815,2.967,2.9369,2.8114,2.6871,2.5715,2.5401,2.4547,2.3062,2.3083,0.0,0.0,0.0,0.0,0.0,0.0,0.0,0.0,0.0,0.0,0.0,0.0,0.0,0.0,0.0,0.0,0.0,0.0,0.0,0.0,2.1422,0.0,0.0,0.0,0.0,0.0,0.0,0.0,0.0,0.0,0.0,1.7823,1.7952,1.8192,1.8102,0.0,0.0,0.0,0.0,1.5588,1.5232,1.497,1.4897,1.5194,1.5242,1.5355,1.5639,0.0,0.0,1.5979,1.5635,1.5395,1.5357,1.5354,1.5368,1.54,1.537,1.5218,1.4852,1.4796,1.4852,1.4873,1.4987,1.5192,2.7054,0.0,0.0,0.0,0.0,2.5879,2.5823,2.5721,2.5544,2.557,2.5708,2.5091,0.0,0.0,0.0,0.0,0.0,0.0,2.6202,2.6318,2.6887,2.7059,2.6902,2.7093,2.7526,2.8177,2.8516,2.9223,3.0226,3.0185,2.901,2.6738,0.0,0.0,0.0,0.0,2.796,2.9177,2.9907,3.0203,3.0093,3.0093,2.9779,2.9139,2.8355,2.7537,2.6619,2.6349,2.5683,2.4592,2.403,0.0,0.0,0.0,0.0,0.0,0.0,0.0,0.0,0.0,0.0,0.0,0.0,0.0,0.0,0.0,0.0,0.0,0.0,0.0,2.2332,2.1998,2.1744,0.0,0.0,0.0,0.0,0.0,0.0,0.0,0.0,0.0,2.1868,2.1274,2.0617,0.0,0.0,1.7984,1.7453,1.6758,1.601,1.5298,0.0,0.0,0.0,1.6186,1.6112,1.6055,1.6399,1.6749,1.708,1.7028,1.6858,1.6629,1.6578,1.6783,1.7408,1.7034,1.6283,1.5445,1.5649,1.6063,1.6106,1.659,1.7133,2.8328,2.7682,2.729,2.7122,2.7101,2.7101,2.7086,2.6973,2.6835,2.6775,2.6768,2.6434,2.6292,2.6285,2.5984,0.0,0.0,0.0,2.7511,2.767,2.8084,2.8134,2.793,2.8238,2.871,2.9288,2.9964,3.0809,3.1781,3.2425,3.1845,3.0022,0.0,0.0,2.8496,2.8698,2.9125,2.9779,3.0327,3.0475,3.0202,3.0105,2.9767,2.9188,2.862,2.7993,2.7197,2.6885,2.6355,2.5472,2.4817,2.4092,0.0,0.0,0.0,0.0,0.0,0.0,0.0,0.0,0.0,0.0,0.0,2.0569,2.0906,0.0,0.0,0.0,2.1955,2.2479,2.2838,2.2678,0.0,0.0,0.0,0.0,0.0,0.0,0.0,2.3492,2.376,2.4042,2.4467,2.3804,2.2668,2.1094,1.9984,1.8994,1.8038,0.0,1.684,1.5928,1.6308,1.6838,1.7227,1.7019,1.6773,1.6764,1.6991,1.7354,1.7807,1.792,1.7889,1.7774,1.7518,1.7669,1.8802,1.8681,1.8052,1.6858,1.7039,1.7456,1.7478,1.797,1.8501,2.9422,2.9738,2.8858,2.8418,2.8322,2.8301,2.828,2.8322,2.8301,2.8161,2.7948,2.835,2.8194,2.7638,2.7794,0.0,2.8771,2.862,2.8845,2.9349,2.9026,2.8902,2.8924,2.9375,2.9618,2.9737,3.1223,3.2208,3.2768,3.3507,3.3954,3.4003,3.2519,3.1228,3.026,3.0333,3.0339,3.0207,3.0551,3.0525,3.0238,2.9948,2.967,2.9405,2.8898,2.8258,2.7499,2.7209,2.6703,2.5931,2.5493,2.4706,2.3531,0.0,0.0,0.0,0.0,0.0,0.0,0.0,0.0,0.0,0.0,0.0,0.0,0.0,0.0,0.0,2.2331,0.0,2.3315,2.3417,0.0,0.0,0.0,2.4276,2.3865,2.3724,2.3983,2.4832,0.0,0.0,2.589,0.0,2.4317,2.1923,2.1212,2.0231,1.8388,1.8267,1.7959,1.6968,1.6851,1.7179,1.7944,1.7661,1.7394,1.7654,1.7711,1.7932,1.8394,1.8516,1.8604,1.8839,1.8296,1.8211,1.9613,2.0145,2.0165,1.8849,1.8734,1.8849,1.884,1.9044,1.933,3.0663,3.0784,3.09,3.0313,2.9335,2.8961,2.9012,2.9335,2.9335,2.9531,2.9834,2.9683,2.9293,2.8741,2.8957,2.9138,2.932,2.9634,2.9844,2.9965,2.9757,2.9628,2.965,3.0105,3.0729,3.1447,3.2559,3.365,3.4685,3.5263,3.5476,3.5398,3.4913,3.3769,3.1964,3.1444,3.1142,3.1008,3.1339,3.12,3.0517,3.0045,2.967,2.9405,2.9067,2.8632,2.8017,2.774,2.733,2.6739,2.6042,2.5391,2.476,2.3718,0.0,0.0,0.0,0.0,0.0,0.0,0.0,0.0,0.0,2.0751,2.0709,0.0,2.1528,0.0,2.2701,2.3443,2.3789,2.4028,0.0,0.0,2.4805,2.4881,2.4978,2.4881,2.5173,2.6146,2.6292,2.6433,2.6677,2.5966,2.5091,2.4141,2.2776,2.1483,2.0386,1.9628,1.8884,1.8042,1.7955,1.8104,1.8167,1.8092,1.8095,1.8525,1.8587,1.8772,1.9303,1.9395,1.9496,1.9764,1.9517,1.9565,2.0321,2.0786,2.0766,2.0153,1.9805,1.9554,1.9554,1.9891,2.0207,3.1432,3.166,3.191,3.1693,3.1128,3.0653,3.0527,3.0624,3.0646,3.0648,3.0688,3.0551,3.0418,3.033,3.0431,3.0609,3.0738,3.081,3.0775,3.0679,3.0578,3.0415,3.0249,3.0906,3.1689,3.2597,3.3568,3.4593,3.5629,3.6233,3.6486,3.6332,3.6229,3.5264,3.3558,3.2794,3.2123,3.1492,3.1453,3.1161,3.0627,3.0202,2.9843,2.9555,2.9286,2.8845,2.8307,2.7877,2.746,2.7041,2.6212,2.5512,2.4967,2.3867,2.3034,0.0,0.0,0.0,0.0,0.0,0.0,0.0,0.0,0.0,0.0,0.0,2.2119,2.2509,2.3247,2.3877,2.4358,2.4539,2.4855,2.544,2.5683,2.5876,2.6092,2.5826,2.6038,2.7025,2.7107,2.7145,2.7304,2.6502,2.5737,2.5389,2.388,2.2457,2.1492,2.0676,1.9758,1.8647,1.8734,1.8812,1.8494,1.8372,1.8486,1.8908,1.8957,1.9139,1.9851,2.0023,2.0162,2.0542,2.0488,2.0451,2.086,2.1046,2.1111,2.0896,2.0773,2.0612,2.0301,2.073,2.1114,3.1987,3.2447,3.2516,3.2851,3.3246,3.2828,3.2341,3.1904,3.1972,3.1737,3.1326,3.1397,3.1619,3.1942,3.1942,3.2082,3.2259,3.1858,3.1591,3.1474,3.1385,3.1154,3.0873,3.179,3.2647,3.3478,3.4403,3.5265,3.6085,3.6815,3.7071,3.6885,3.682,3.6068,3.4735,3.4013,3.3006,3.1745,3.124,3.0866,3.06,3.0399,3.0066,2.9712,2.9475,2.9077,2.8473,2.7842,2.739,2.7137,2.6228,2.542,2.4813,2.3877,2.3115,0.0,2.2226,0.0,0.0,0.0,0.0,0.0,0.0,0.0,0.0,2.2581,2.2911,2.3606,2.3894,2.4288,2.4902,2.5071,2.5446,2.614,2.6654,2.6997,2.7134,2.6726,2.6756,2.7719,2.7874,2.7889,2.7799,2.697,2.6262,2.5988,2.4715,2.3357,2.2279,2.1494,2.0582,1.929,1.933,1.9225,1.892,1.8725,1.884,1.9288,1.9383,1.9497,2.0439,2.0565,2.0686,2.109,2.1164,2.1159,2.1214,2.1284,2.1376,2.1302,2.1615,2.1695,2.1193,2.1467,2.1968,3.2779,3.3325,3.3672,3.4294,3.4902,3.4558,3.3651,3.2392,3.2774,3.3183,3.3548,3.3304,3.3038,3.2785,3.2778,3.2591,3.2295,3.203,3.2051,3.2284,3.1887,3.181,3.2025,3.3003,3.3749,3.4314,3.5216,3.6101,3.6899,3.7355,3.7295,3.675,3.6992,3.6163,3.4329,0.0,0.0,0.0,3.1293,3.0872,3.06,3.0533,3.0255,2.9712,2.9646,0.0,2.8726,2.7944,2.7478,2.7381,2.6328,0.0,0.0,0.0,0.0,0.0,0.0,0.0,0.0,0.0,0.0,0.0,2.3953,2.37,2.2862,2.3333,2.3813,2.4081,2.4792,2.5282,2.5319,2.6096,2.6667,2.6826,2.723,2.7708,2.8121,2.7743,2.7694,2.8334,2.8444,2.837,2.8112,2.7262,2.6689,2.6749,2.5491,2.4317,2.3635,2.2377,2.1567,2.1536,2.0376,1.9423,1.9369,1.9351,1.9628,2.0375,2.0643,2.082,2.1323,2.1367,2.1297,2.1451,2.1305,2.1201,2.1247,2.1812,2.2156,2.1849,2.2162,2.2304,2.1803,2.21,2.2452,3.3749,0.0,3.4627,3.5065,0.0,3.5091,3.4434,3.356,3.3784,3.4013,3.418,3.4012,3.3827,3.3587,3.3587,3.3347,3.288,3.2918,3.2772,3.2519,3.2662,3.285,3.3054,3.382,3.4599,3.5455,3.5932,3.6675,3.7593,3.7575,3.7429,3.7204,3.7084,3.6196,3.4559,3.3627,3.2718,3.1806,3.1284,3.0857,3.0613,3.0467,3.018,2.9724,0.0,0.0,0.0,0.0,0.0,0.0,0.0,0.0,0.0,0.0,0.0,2.4775,2.4301,2.3992,2.3953,2.4116,2.4172,2.4108,2.4912,2.5042,2.4195,2.4724,2.5198,2.5492,2.6182,2.66,2.6577,2.7056,2.7391,2.7552,2.8076,2.8609,2.8964,2.9167,2.9297,2.9392,2.9001,2.863,2.8771,2.7768,2.7137,2.713,2.5886,2.4711,2.4162,2.314,2.2397,2.2048,2.1,2.0096,2.0107,2.0085,2.025,2.0964,2.1074,2.1234,2.172,2.1697,2.1726,2.1919,2.1602,2.1386,2.2131,2.247,2.2576,2.251,2.2741,2.2923,2.2693,2.2831,2.2982,3.4539,3.4535,3.5257,3.5509,3.5346,3.5362,3.5305,3.52,0.0,0.0,0.0,3.4437,3.4424,3.4419,3.4397,3.4208,3.3804,3.3956,3.3633,3.2985,3.3617,3.3969,3.4104,3.4644,3.5479,3.6456,3.6649,3.7231,3.8172,3.7766,3.7611,3.7654,3.7114,3.6187,3.4837,3.3048,3.2023,3.1781,3.1213,3.0817,3.0527,3.035,3.0079,2.9687,2.9486,2.9188,2.8815,2.802,2.7554,2.7469,2.6657,2.616,2.6135,2.5315,2.4979,2.5295,2.4599,2.429,2.4544,2.4499,2.4492,2.4535,2.5716,2.6225,2.5673,2.6142,2.6615,2.6936,2.745,2.7764,2.7764,2.7932,2.8117,2.8351,2.9034,2.9579,2.9867,3.0402,3.068,3.0551,2.9693,2.9152,2.9439,2.8326,2.7463,2.7292,2.6234,2.5013,2.4359,2.3503,2.2583,2.1784,2.1275,2.1063,2.0947,2.084,2.0962,2.1438,2.1374,2.1455,2.1886,2.2011,2.2197,2.2712,2.2097,2.2167,2.3016,2.3273,2.3114,2.3185,2.3448,2.366,2.366,2.3637,2.3647,3.4741,3.5463,3.5288,3.5641,3.6389,3.6389,3.6843,3.7431,3.5665,3.5075,3.5399,3.5421,3.5332,3.5238,3.5238,3.5111,3.4923,3.4593,3.4486,0.0,3.4753,3.494,3.5194,3.6113,3.6652,3.6876,3.7591,3.803,3.8188,3.8228,3.8066,3.7642,3.6996,3.5861,3.4313,3.2676,3.1857,3.1769,3.1069,3.0532,3.0274,3.0436,3.0268,2.9736,2.9646,2.9375,2.8803,2.8175,2.7744,2.7482,2.681,2.6453,2.6432,2.5936,2.5759,2.6018,2.5711,2.5641,2.5883,2.5714,2.5874,2.6521,2.7143,2.7102,2.6228,2.6971,2.7508,2.7608,2.7901,2.8048,2.8096,2.8838,2.9336,2.9427,3.0099,3.0689,3.0873,3.0859,3.0943,3.1147,3.0857,3.0378,2.9995,2.8742,2.7739,2.759,2.6658,2.5599,2.4459,2.3267,2.2333,2.1833,2.1949,2.1925,2.1587,2.1471,2.167,2.2154,2.2205,2.2328,2.2863,2.2843,2.2948,2.3443,2.3183,2.311,2.3409,2.4333,2.449,2.4151,2.4253,2.4503,2.4516,2.4503,2.4494,3.5928,3.6234,3.6535,3.683,3.7113,3.7308,3.7673,3.8013,3.7087,3.6742,3.6919,3.6638,3.6513,3.6473,3.6205,3.5866,3.5572,3.553,3.5471,3.5394,3.5553,3.5843,3.6212,3.6684,3.7125,3.7608,3.7999,3.8386,3.868,3.8269,3.7985,3.7861,3.6489,3.521,3.4175,3.2611,3.1794,3.1769,3.0856,3.0309,3.0214,3.032,3.0104,2.9542,2.9553,2.928,2.8701,2.8282,2.7949,2.7667,2.7239,2.6919,2.675,2.6417,2.6283,2.6413,2.6172,2.6063,2.6184,2.6372,2.6722,2.7338,2.7951,2.8101,2.7669,2.8006,2.838,2.8648,2.9085,2.9347,2.936,2.9886,3.0237,3.0237,3.071,3.1052,3.1176,3.128,3.1413,3.1656,3.1516,3.1184,3.0697,2.9104,2.8027,2.789,2.6874,2.5624,2.4582,2.33,2.2319,2.2121,2.225,2.2284,2.2078,2.202,2.2274,2.2754,2.2852,2.3057,2.3512,2.3544,2.3698,2.41,2.3963,2.396,2.431,2.4965,2.515,2.4941,2.4693,2.4818,2.4807,2.4904,2.4915,3.7198,3.7144,3.7734,3.7964,3.7948,3.8341,3.8574,3.868,3.8658,3.8658,3.8574,3.7828,3.755,3.7609,3.7122,3.6743,3.6515,3.6477,3.6304,3.6014,3.6236,3.6545,3.6908,3.707,3.7553,3.8172,3.8354,3.8632,3.8868,3.8172,3.766,3.7347,3.583,3.4662,3.3989,3.2561,3.1794,3.1744,3.0746,3.0214,3.0214,3.0153,2.9888,2.9441,2.9344,2.9079,2.862,2.8391,2.815,2.7908,2.7631,2.7366,2.7078,2.6825,2.668,2.6679,2.6449,2.6337,2.6491,2.7104,2.7649,2.8011,2.8746,2.9161,2.9161,2.9213,2.9383,2.9708,3.0131,3.0448,3.0452,3.0715,3.0889,3.0902,3.1142,3.133,3.1346,3.1543,3.184,3.2091,3.1982,3.1602,3.0986,2.9505,2.8227,2.7722,2.6667,2.5589,2.486,2.3649,2.2827,2.2697,2.2572,2.2495,2.2534,2.2583,2.2803,2.3292,2.3365,2.3619,2.4,2.4146,2.4341,2.4709,2.4612,2.4643,2.5316,2.5485,2.5425,2.5249,2.5106,2.4977,2.5012,2.513,2.5195,3.8044,3.8369,3.8245,3.8502,3.9183,3.9631,4.0021,4.0316,4.0368,4.0368,4.0152,3.873,3.8228,3.8408,3.7989,3.7896,3.801,3.7246,3.683,3.6784,3.683,3.6869,3.7008,3.7709,3.8116,3.829,3.8791,3.8869,3.8552,3.8249,3.7174,3.5508,3.5085,3.4488,3.3464,3.236,3.1794,3.1794,3.0746,3.0214,3.0202,2.9972,2.9707,2.9417,2.9151,2.8898,2.8608,2.8572,2.8427,2.8186,2.7908,2.7631,2.7366,2.709,2.6945,2.6956,2.6727,2.6761,2.7229,2.83,2.8979,2.9094,2.9771,3.0215,3.0229,3.0433,3.0509,3.0417,3.0591,3.0765,3.0791,3.1009,3.1159,3.1196,3.1436,3.1647,3.164,3.1686,3.193,3.2503,3.211,3.1788,3.1466,2.9827,2.8212,2.736,2.6546,2.5845,2.5545,2.4723,2.378,2.3617,2.3036,2.2725,2.2984,2.3097,2.3341,2.3815,2.3912,2.4132,2.4473,2.4681,2.4803,2.5119,2.5324,2.5313,2.5397,2.5521,2.5499,2.5467,2.541,2.5421,2.5443,2.5443,2.5408,3.9009,3.9424,3.958,4.0113,4.0889,4.1126,4.1281,4.1398,4.1145,4.1031,4.0906,3.9988,3.9503,3.932,3.8842,3.8536,3.8362,3.797,3.7632,3.7394,3.7355,3.7481,3.7709,3.8022,3.8402,3.8759,3.9077,3.9034,3.8632,3.7759,3.6488,3.511,3.4712,3.4139,3.3364,3.2335,3.1794,3.1769,3.0733,3.0214,3.0177,2.9936,2.967,2.9405,2.9127,2.8886,2.8632,2.8596,2.8476,2.8222,2.8089,2.7824,2.7414,2.7294,2.715,2.7028,2.7179,2.7601,2.8386,2.907,2.9579,2.9896,3.0356,3.0631,3.0658,3.0875,3.0996,3.0915,3.0982,3.1049,3.1052,3.1316,3.1513,3.1503,3.1634,3.1754,3.1941,3.1794,3.1974,3.2661,3.2223,3.1792,3.1504,2.9923,2.8382,2.7528,2.6842,2.633,2.6028,2.5762,2.5256,2.4387,2.3983,2.3754,2.3493,2.3536,2.3878,2.4253,2.4424,2.4594,2.5032,2.5178,2.5275,2.5518,2.5507,2.5507,2.5494,2.5518,2.5518,2.5566,2.5518,2.5518,2.5518,2.5518,2.5518,4.0128,4.0559,4.0934,4.1405,4.1967,4.2007,4.2007,4.1962,4.1642,4.1438,4.1258,4.0924,4.0538,4.0078,3.9537,3.9142,3.8798,3.866,3.8431,3.8125,3.8205,3.8359,3.8592,3.8676,3.8949,3.9332,3.9411,3.9175,3.8647,3.7165,3.5905,3.5036,3.4488,3.3925,3.3364,3.2335,3.1794,3.1718,3.0746,3.0214,3.0165,2.9876,2.9598,2.9368,2.9055,2.8789,2.8608,2.8596,2.8512,2.8307,2.8246,2.8029,2.7643,2.7547,2.7436,2.7354,2.776,2.8395,2.9254,2.9697,3.0096,3.0478,3.0742,3.0915,3.0955,3.1183,3.133,3.1319,3.1319,3.1343,3.137,3.1543,3.1687,3.1724,3.1724,3.1821,3.204,3.1979,3.2232,3.2785,3.2291,3.158,3.1024,2.9643,2.8382,2.7809,2.7246,2.6796,2.6457,2.6553,2.6292,2.5185,2.5202,2.479,2.3967,2.3965,2.4375,2.4789,2.5008,2.5324,2.5688,2.5785,2.5954,2.621,2.5811,2.5763,2.6089,2.6051,2.593,2.5906,2.5858,2.5761,2.5785,2.5664,2.5542,4.1494,4.1859,4.1949,4.1972,4.2007,4.2052,4.2029,4.2097,4.1984,4.1714,4.1371,4.128,4.0991,4.0515,4.0072,3.9867,3.9736,3.9285,3.905,3.9031,3.935,3.96,3.9643,3.9828,3.9907,3.9908,3.9779,3.9233,3.8228,3.6622,3.5557,3.5011,3.4413,3.3914,3.3339,3.2335,3.1819,3.1693,3.0746,3.0214,3.0153,2.9695,2.9404,2.9369,2.8898,2.862,2.8596,2.8596,2.8584,2.8572,2.8355,2.8198,2.8125,2.792,2.7876,2.8094,2.8561,2.9074,2.9625,3.031,3.0722,3.0808,3.1036,3.1186,3.1199,3.1473,3.162,3.166,3.1634,3.1647,3.1647,3.166,3.1724,3.1724,3.1701,3.1848,3.2091,3.235,3.2652,3.2836,3.2305,3.1315,2.9846,2.9019,2.8433,2.7886,2.7298,2.6873,2.679,2.672,2.6591,2.6504,2.6131,2.5542,2.4733,2.4706,2.4984,2.5348,2.5785,2.6172,2.6415,2.6608,2.6826,2.6803,2.619,2.6166,2.6755,2.6971,2.6874,2.6729,2.6439,2.6329,2.6269,2.5809,2.5664,4.2052,4.2546,4.2833,4.2945,4.2967,4.2967,4.2967,4.2945,4.2613,4.2232,4.1737,4.1438,4.1054,4.0601,4.0697,4.0429,3.9929,3.969,3.9578,3.9518,3.962,3.9941,4.0356,4.0153,4.0117,4.0263,3.9956,3.9256,3.8065,3.6226,3.521,3.4886,3.4114,3.3589,3.3238,3.2335,3.1794,3.1718,3.0746,3.0214,3.0165,2.9682,2.9405,2.9344,2.8898,2.8596,2.8596,2.8596,2.8596,2.8596,2.85,2.8367,2.8221,2.8261,2.8486,2.885,2.9356,2.9863,3.034,3.0809,3.1039,3.1089,3.1343,3.1503,3.153,3.1634,3.1724,3.1724,3.1724,3.1724,3.1724,3.1724,3.1724,3.1714,3.1861,3.2075,3.2345,3.2528,3.2758,3.2988,3.2409,3.1315,3.0137,2.9147,2.8535,2.8254,2.7513,2.7001,2.6888,2.6838,2.6818,2.6845,2.6747,2.6513,2.6298,2.5879,2.5833,2.6076,2.639,2.6656,2.6922,2.6995,2.7164,2.7236,2.6673,2.6673,2.7284,2.7284,2.7284,2.7212,2.6922,2.6826,2.6826,2.6366,2.61,4.2681,4.3057,4.3369,4.3481,4.3481,4.3481,4.3481,4.3495,4.3296,4.2924,4.2446,4.2071,4.1646,4.1269,4.1303,4.1056,4.0518,4.0479,4.043,4.0364,4.0481,4.0815,4.1114,4.07,4.0544,4.0546,3.9728,3.8889,3.8056,3.6053,3.5061,3.4936,3.3939,3.3389,3.3213,3.2335,3.1794,3.1592,3.0733,3.0214,3.0141,2.9682,2.9405,2.9296,2.8874,2.8596,2.8596,2.8596,2.8596,2.8596,2.8596,2.8608,2.8604,2.8678,2.901,2.9627,3.0023,3.0442,3.0899,3.1173,3.137,3.137,3.1567,3.1724,3.1724,3.1724,3.1724,3.1724,3.1724,3.1724,3.1748,3.183,3.1924,3.1941,3.205,3.2321,3.2724,3.2674,3.2681,3.267,3.2234,3.134,3.034,2.9452,2.8892,2.8637,2.7769,2.7206,2.695,2.6888,2.688,2.6895,2.6962,2.7174,2.7224,2.7064,2.6619,2.6729,2.6971,2.7212,2.7369,2.7429,2.7501,2.755,2.7574,2.7574,2.7574,2.7574,2.7574,2.7526,2.7429,2.7308,2.7164,2.6898,2.6608,4.3477,4.3459,4.3481,4.3481,4.3481,4.3481,4.3499,4.3591,4.388,4.3715,4.3283,4.3171,4.2747,4.2377,4.1889,4.1673,4.1592,4.1627,4.1603,4.1608,4.1921,4.2109,4.2158,4.1483,4.1094,4.1007,3.9214,3.8323,3.8172,3.6175,3.5053,3.4826,3.3952,3.3389,3.3389,3.236,3.1794,3.1567,3.0733,3.0214,3.0153,2.9682,2.9405,2.9344,2.8898,2.8596,2.8596,2.8596,2.8596,2.8596,2.8596,2.8836,2.9194,2.921,2.9474,3.0274,3.0499,3.0767,3.1156,3.1476,3.1647,3.1647,3.1687,3.1724,3.1724,3.1724,3.1724,3.1724,3.1724,3.1724,3.1819,3.2131,3.2391,3.2378,3.2306,3.2555,3.2995,3.2884,3.2408,3.2044,3.1819,3.134,3.0442,2.9669,2.916,2.8714,2.8101,2.759,2.7257,2.7129,2.6963,2.692,2.7191,2.7614,2.7937,2.815,2.7645,2.7333,2.7574,2.7815,2.7911,2.7983,2.8115,2.8163,2.8139,2.8139,2.8115,2.8139,2.8212,2.8187,2.7983,2.7791,2.767,2.7453,2.7019,4.3481,4.3481,4.3481,4.3481,4.3481,4.3481,4.3628,4.3925,4.4072,4.3983,4.3758,4.3395,4.294,4.2546,4.2222,4.2108,4.2125,4.2324,4.2341,4.2182,4.2244,4.2433,4.2441,4.1737,4.1065,4.0502,3.9464,3.89,3.8439,3.6486,3.5358,3.5115,3.4034,3.3414,3.3339,3.236,3.1794,3.1693,3.0746,3.0214,3.0165,2.9658,2.9405,2.9344,2.8874,2.8596,2.8596,2.8596,2.8596,2.8596,2.8596,2.8836,2.9363,2.9969,3.043,3.0762,3.1141,3.1341,3.152,3.1634,3.1724,3.1724,3.1724,3.1724,3.1724,3.1724,3.1724,3.1724,3.1724,3.1806,3.2165,3.2518,3.2794,3.276,3.2852,3.3103,3.3437,3.3327,3.2731,3.1982,3.1794,3.1315,3.0442,2.9745,2.9389,2.9109,2.8396,2.7835,2.7974,2.7692,2.7319,2.7042,2.7537,2.8019,2.8267,2.8392,2.8175,2.7887,2.8067,2.8187,2.8308,2.838,2.8524,2.8596,2.8596,2.8596,2.8596,2.8596,2.8596,2.8596,2.8356,2.8284,2.8284,2.8007,2.7584,4.3481,4.3481,4.3481,4.3481,4.3518,4.3628,4.387,4.4146,4.4416,4.4513,4.4381,4.3893,4.3503,4.3181,4.2919,4.2769,4.2804,4.2997,4.2963,4.2732,4.2525,4.2615,4.2686,4.1913,4.1016,4.0203,3.9515,3.9079,3.8762,3.6687,3.5498,3.5266,3.4113,3.3414,3.3339,3.2561,3.2033,3.1718,3.0973,3.0416,3.013,2.9682,2.9405,2.9332,2.8874,2.862,2.8596,2.8596,2.8596,2.8644,2.8788,2.9148,2.9663,3.0427,3.0988,3.1225,3.1487,3.1687,3.1724,3.1687,3.1724,3.1724,3.1724,3.1724,3.1724,3.1724,3.1724,3.1724,3.1998,3.2276,3.2603,3.329,3.3629,3.383,3.3803,3.3745,3.3723,3.3504,3.2924,3.2147,3.1794,3.1264,3.0442,2.9985,2.9593,2.9364,2.8855,2.832,2.8561,2.8306,2.7902,2.7695,2.8056,2.8392,2.8512,2.8572,2.8584,2.85,2.8476,2.8476,2.85,2.85,2.8596,2.8596,2.8596,2.8596,2.8596,2.8596,2.8596,2.8596,2.8596,2.8524,2.844,2.8499,2.8184,4.3481,4.3481,4.3481,4.3518,4.3609,4.3925,4.4146,4.4329,4.4911,4.526,4.5155,4.4641,4.4371,4.4264,4.3801,4.358,4.365,4.3615,4.3561,4.34,4.3124,4.2888,4.2548,4.2108,4.129,4.015,3.9589,3.9049,3.8563,3.6643,3.554,3.54,3.422,3.3402,3.3288,3.2837,3.2285,3.1794,3.1239,3.072,3.0203,2.9682,2.9405,2.9381,2.8886,2.8596,2.8596,2.8596,2.862,2.8716,2.916,2.9663,3.0128,3.0665,3.1212,3.1592,3.1701,3.1724,3.1724,3.1724,3.1724,3.1724,3.1724,3.1714,3.1707,3.1757,3.1903,3.2099,3.2538,3.2935,3.3277,3.4077,3.4882,3.529,3.4833,3.4256,3.3516,3.3424,3.2874,3.2058,3.1706,3.139,3.0391,3.0163,2.9935,2.9618,2.9389,2.9084,2.8968,2.8834,2.8702,2.8721,2.8823,2.8613,2.8705,2.8872,2.8884,2.8932,2.8932,2.898,2.8908,2.8884,2.8692,2.8668,2.8716,2.8692,2.8596,2.8608,2.8596,2.8596,2.8596,2.8596,2.8644,2.8716,2.8751,4.3481,4.3481,4.3481,4.3664,4.3944,4.4072,4.4435,4.4966,4.5187,4.548,4.5559,4.5145,4.4892,4.4868,4.4394,4.418,4.4198,4.4174,4.3936,4.3661,4.3802,4.3068,4.2394,4.2443,4.1799,4.048,4.0031,3.9671,3.9024,3.708,3.6056,3.5809,3.4426,3.3627,3.3379,3.2887,3.2335,3.1819,3.1289,3.0771,3.023,2.9682,2.9405,2.9357,2.8874,2.862,2.8596,2.8596,2.8812,2.9196,2.9663,3.0152,3.0641,3.1178,3.1534,3.1653,3.1724,3.1724,3.1724,3.1724,3.1724,3.1724,3.1714,3.1696,3.1705,3.1875,3.2441,3.3089,3.3395,3.354,3.4258,3.4911,3.5543,3.6038,3.5426,3.4499,3.3681,3.3349,3.2899,3.1731,3.1655,3.1264,3.0543,3.0188,3.0137,2.9923,2.9694,2.9516,2.9452,2.9352,2.9213,2.9471,2.9504,2.903,2.8874,2.9065,2.9208,2.9304,2.9423,2.9615,2.9543,2.9495,2.9158,2.8846,2.9063,2.9088,2.8788,2.8608,2.8596,2.8668,2.8644,2.8669,2.885,2.8946,2.9078,4.3481,4.3481,4.3481,4.3719,4.4109,4.4297,4.471,4.526,4.5498,4.5663,4.5747,4.5341,4.5105,4.5081,4.4797,4.4697,4.4697,4.4679,4.4483,4.4246,4.4265,4.3552,4.2658,4.2756,4.2021,4.0517,4.0276,3.9733,3.8819,3.7236,3.6332,3.5768,3.4575,3.3746,3.3402,3.3113,3.2662,3.2134,3.1617,3.1062,3.0557,2.9782,2.9441,2.9308,2.8886,2.8596,2.8596,2.8596,2.886,2.9351,2.9841,3.0342,3.0856,3.1416,3.1701,3.1724,3.1724,3.1724,3.1724,3.1724,3.1724,3.1727,3.1781,3.1784,3.1859,3.2209,3.3139,3.4195,3.4231,3.4526,3.4997,3.5567,3.6058,3.6356,3.5657,3.4709,3.3932,3.3574,3.2761,3.1856,3.1517,3.139,3.034,3.0239,3.0214,3.0163,2.996,2.996,3.0011,2.986,2.9754,2.9919,2.9898,2.9433,2.9249,2.9426,2.9686,2.9782,3.0069,3.0236,3.0128,3.0069,2.9792,2.9492,2.9506,2.947,2.9327,2.9063,2.88,2.8812,2.8765,2.8825,2.8982,2.9212,2.9357,4.3481,4.3477,4.3536,4.3797,4.4219,4.4586,4.5008,4.5388,4.5742,4.5865,4.5813,4.5388,4.527,4.52,4.5223,4.5176,4.5176,4.52,4.506,4.4838,4.4594,4.3881,4.3039,4.2963,4.197,4.0487,4.0187,3.9541,3.8522,3.715,3.6376,3.5802,3.4656,3.3864,3.3547,3.3404,3.3113,3.2561,3.2121,3.1517,3.0874,3.0068,2.9565,2.9308,2.8874,2.862,2.862,2.8692,2.8956,2.9471,2.9865,3.039,3.094,3.1497,3.1664,3.1724,3.1724,3.1724,3.1724,3.1724,3.1727,3.1794,3.1995,3.2035,3.208,3.273,3.3813,3.5149,3.5329,3.5376,3.5615,3.619,3.6455,3.6439,3.5632,3.4933,3.4521,3.3862,3.2874,3.1668,3.1718,3.1264,3.067,3.0239,3.0214,3.0214,3.0087,3.0112,3.0163,3.0075,3.0034,3.0106,2.9972,2.9738,2.9722,2.9834,3.0094,3.0331,3.0689,3.0856,3.0652,3.0557,3.0438,3.0295,3.0223,3.0236,3.0296,2.9925,2.9304,2.9066,2.9091,2.9092,2.9139,2.9441,2.9646,4.3481,4.354,4.3829,4.4201,4.4604,4.5008,4.5388,4.5755,4.587,4.5883,4.586,4.5766,4.5695,4.5695,4.5671,4.5737,4.569,4.5674,4.5585,4.5313,4.4727,4.4093,4.3488,4.3318,4.2188,4.0651,4.0202,3.9567,3.8474,3.7413,3.6633,3.6156,3.4939,3.4082,3.3788,3.3495,3.3138,3.2687,3.2461,3.1945,3.1139,3.0404,2.9812,2.9394,2.8862,2.8656,2.8692,2.9004,2.9447,2.9817,3.0104,3.057,3.1307,3.1606,3.1701,3.1724,3.1724,3.1724,3.1724,3.1738,3.1794,3.1971,3.2152,3.2192,3.2481,3.3239,3.4506,3.5732,3.5942,3.5923,3.6209,3.6455,3.6573,3.6375,3.5681,3.4972,3.4748,3.4,3.3088,3.2448,3.1958,3.1542,3.0885,3.0366,3.0264,3.0239,3.0214,3.0214,3.0214,3.0214,3.0223,3.0217,3.0206,3.0083,3.0554,3.065,3.0835,3.0962,3.1233,3.1344,3.1154,3.117,3.1064,3.0966,3.0843,3.0929,3.1066,3.0301,2.9595,2.9514,2.942,2.9383,2.9429,2.9695,2.975,4.3481,4.3536,4.3944,4.4347,4.4733,4.5132,4.5517,4.5847,4.5883,4.5883,4.5883,4.5883,4.5883,4.5883,4.5883,4.5883,4.5923,4.6038,4.5964,4.5733,4.5297,4.4572,4.3646,4.3289,4.2371,4.0497,4.0202,3.9541,3.8503,3.7484,3.6703,3.6319,3.5011,3.4213,3.3881,3.3587,3.3277,3.2988,3.2712,3.2285,3.173,3.0839,2.996,2.931,2.885,2.8692,2.9004,2.9208,2.9782,3.0284,3.0498,3.0832,3.1521,3.1724,3.1724,3.1724,3.1724,3.1724,3.1724,3.1821,3.1944,3.2128,3.2549,3.2683,3.3099,3.3841,3.5203,3.6181,3.6369,3.6325,3.6562,3.6587,3.6587,3.64,3.5657,3.5061,3.4823,3.4064,3.3188,3.2662,3.2121,3.1592,3.1062,3.0568,3.029,3.0214,3.0214,3.0214,3.0214,3.0215,3.0221,3.024,3.0366,3.0602,3.1257,3.155,3.1671,3.1699,3.1715,3.1715,3.1513,3.1628,3.1766,3.1522,3.1254,3.1633,3.1614,3.0776,3.0193,3.0201,3.0119,2.9811,2.967,2.9837,2.9756,4.3481,4.3536,4.3999,4.4384,4.4733,4.5187,4.559,4.5865,4.5883,4.5883,4.5883,4.5883,4.5883,4.5883,4.5883,4.5902,4.6077,4.6271,4.6303,4.6006,4.584,4.4859,4.3822,4.3289,4.2473,4.0512,4.0228,3.9582,3.8503,3.7472,3.6785,3.6297,3.5079,3.4347,3.3975,3.3654,3.343,3.3277,3.2988,3.2687,3.2397,3.1414,3.0429,2.9372,2.8982,2.8969,2.9316,2.9627,3.0069,3.0832,3.0988,3.1273,3.1558,3.1724,3.1724,3.1724,3.1724,3.1741,3.1834,3.1981,3.2142,3.2308,3.3165,3.3511,3.3592,3.4575,3.5723,3.6305,3.6542,3.6538,3.6587,3.6587,3.6587,3.6424,3.5706,3.516,3.4837,3.4114,3.3414,3.2812,3.2247,3.1643,3.1163,3.0695,3.0442,3.0214,3.0214,3.0239,3.0239,3.0316,3.0346,3.0576,3.0765,3.1196,3.1824,3.2027,3.221,3.2216,3.2195,3.2075,3.1928,3.2035,3.2091,3.1795,3.1707,3.2008,3.207,3.1473,3.1094,3.1031,3.0503,2.9906,2.9851,2.9981,2.9761,4.3481,4.3554,4.4292,4.4641,4.4806,4.5485,4.581,4.5883,4.5883,4.5883,4.5883,4.5883,4.5883,4.5883,4.5883,4.609,4.6369,4.664,4.6579,4.6215,4.596,4.5104,4.3864,4.3467,4.2524,4.1192,4.0419,3.9608,3.8555,3.7472,3.6881,3.6496,3.5376,3.4548,3.4215,3.3948,3.3627,3.3415,3.3238,3.3013,3.2596,3.205,3.1108,2.9859,2.9453,2.9401,2.9627,3.0225,3.0749,3.094,3.1344,3.1558,3.1677,3.1724,3.1724,3.1724,3.1724,3.1767,3.1981,3.2088,3.2614,3.3255,3.3809,3.4193,3.4564,3.5285,3.6053,3.6414,3.6602,3.6587,3.6587,3.6656,3.6626,3.6439,3.6125,3.5515,3.5053,3.4479,3.3827,3.3213,3.2448,3.1744,3.134,3.0885,3.0492,3.0264,3.0214,3.029,3.0366,3.0506,3.0659,3.0964,3.1289,3.1828,3.2439,3.2463,3.2545,3.2532,3.2514,3.2474,3.2393,3.246,3.2372,3.2066,3.1967,3.2111,3.206,3.1933,3.1648,3.1322,3.0652,2.9901,2.9832,2.9787,2.9504,4.3628,4.3889,4.4457,4.4824,4.5095,4.565,4.5883,4.5883,4.5883,4.5883,4.5883,4.5883,4.5883,4.5883,4.5883,4.6213,4.6759,4.7168,4.6955,4.6502,4.6248,4.5457,4.3991,4.3645,4.2677,4.1526,4.06,3.98,3.8893,3.7539,3.699,3.6553,3.5471,3.4642,3.4322,3.4015,3.3721,3.3455,3.3389,3.3288,3.2961,3.2512,3.1516,3.0718,3.0195,3.009,3.0249,3.0535,3.1035,3.1297,3.1545,3.1677,3.1724,3.1724,3.1701,3.1701,3.1738,3.1821,3.2174,3.2418,3.3092,3.3718,3.4354,3.4801,3.5171,3.5688,3.6276,3.6513,3.6612,3.6685,3.6846,3.6831,3.6934,3.7005,3.6629,3.6016,3.5391,3.4912,3.4264,3.3579,3.2787,3.2159,3.1655,3.1163,3.0619,3.034,3.0264,3.0391,3.0568,3.0835,3.11,3.1554,3.1941,3.2399,3.2843,3.2855,3.285,3.2835,3.2808,3.2768,3.2741,3.2755,3.2594,3.2343,3.2321,3.237,3.2389,3.2383,3.2009,3.1539,3.0751,3.0094,2.9787,2.9554,2.9256,4.3738,4.4146,4.4531,4.4934,4.5333,4.5718,4.5883,4.5883,4.5883,4.5883,4.5883,4.5883,4.5883,4.5938,4.6158,4.6562,4.724,4.7619,4.7351,4.6772,4.6611,4.5809,4.4523,4.3712,4.2958,4.1987,4.0703,3.9929,3.9152,3.7852,3.712,3.6633,3.559,3.4734,3.4361,3.4122,3.3774,3.3482,3.3389,3.3389,3.3222,3.2611,3.1917,3.1277,3.0934,3.0796,3.0892,3.1061,3.1297,3.1534,3.1701,3.1724,3.1724,3.1724,3.1727,3.1767,3.1805,3.1965,3.2436,3.2951,3.3617,3.4379,3.5217,3.5461,3.5649,3.6074,3.6562,3.6587,3.6587,3.6744,3.6978,3.7105,3.7226,3.7381,3.715,3.661,3.5809,3.5176,3.4624,3.3912,3.3128,3.2586,3.2109,3.163,3.1113,3.1012,3.0936,3.0961,3.1138,3.1416,3.1756,3.2234,3.2646,3.301,3.3255,3.3228,3.3173,3.3104,3.3078,3.3051,3.3011,3.2971,3.2809,3.2724,3.2771,3.2834,3.2841,3.2648,3.2078,3.1441,3.0759,3.0199,2.9825,2.9412,2.906,4.3738,4.4146,4.4549,4.4934,4.5333,4.5737,4.5883,4.5883,4.5883,4.5883,4.5883,4.5902,4.5902,4.6067,4.669,4.7185,4.7607,4.7906,4.7625,4.6811,4.6654,4.5859,4.4422,4.3763,4.3238,4.232,4.0935,3.9981,3.9282,3.819,3.733,3.6804,3.6121,3.5353,3.4441,3.4269,3.3949,3.3495,3.3389,3.3389,3.3274,3.2649,3.2257,3.1949,3.1575,3.1261,3.1336,3.1429,3.1606,3.1653,3.1724,3.1724,3.1724,3.1724,3.1824,3.1971,3.2126,3.2388,3.3024,3.36,3.4282,3.5076,3.5727,3.6004,3.6202,3.636,3.6597,3.6587,3.6651,3.6877,3.718,3.7199,3.731,3.7504,3.7582,3.682,3.602,3.5649,3.5069,3.4179,3.338,3.3014,3.2611,3.2134,3.168,3.1668,3.1617,3.1617,3.1744,3.2046,3.2285,3.2749,3.2936,3.3275,3.3389,3.3389,3.3349,3.3293,3.328,3.3267,3.3213,3.3173,3.3253,3.3179,3.3213,3.3127,3.3009,3.2635,3.2045,3.139,3.0705,3.0202,2.9772,2.9341,2.8842,4.4421,4.4783,4.4948,4.526,4.5627,4.5828,4.5883,4.5883,4.5883,4.5883,4.5883,4.5883,4.5993,4.6342,4.7075,4.7516,4.7772,4.8102,4.769,4.6861,4.6604,4.6002,4.4827,4.3924,4.3314,4.2703,4.1295,4.0228,3.9437,3.8451,3.7434,3.6911,3.6294,3.5528,3.4601,3.4402,3.4095,3.3748,3.3495,3.3389,3.3299,3.3056,3.2799,3.2627,3.223,3.1979,3.1789,3.1657,3.1714,3.1724,3.1724,3.1724,3.1764,3.1858,3.208,3.2547,3.29,3.3239,3.362,3.4272,3.5037,3.5631,3.6053,3.6375,3.6562,3.6622,3.6795,3.7032,3.7234,3.7471,3.7767,3.7989,3.8067,3.8116,3.8042,3.7406,3.6655,3.6114,3.5556,3.4583,3.3696,3.3305,3.2951,3.2611,3.2159,3.1958,3.197,3.1995,3.2285,3.2687,3.2938,3.3213,3.3275,3.3364,3.3389,3.3389,3.3389,3.3335,3.3335,3.3322,3.3349,3.3362,3.3442,3.3429,3.3335,3.324,3.3122,3.2502,3.1794,3.1212,3.0674,3.0151,2.9633,2.9012,2.8513,4.5058,4.5425,4.5352,4.5535,4.5907,4.5883,4.5883,4.5883,4.5883,4.5883,4.592,4.6012,4.6269,4.6709,4.7332,4.7736,4.7907,4.8157,4.7598,4.7011,4.6561,4.606,4.5003,4.4051,4.3492,4.3441,4.1218,4.028,3.9696,3.8763,3.7617,3.6937,3.6518,3.5698,3.4945,3.4456,3.4096,3.3708,3.3507,3.3402,3.3375,3.3375,3.3255,3.308,3.2824,3.2567,3.2249,3.1968,3.1821,3.1724,3.1724,3.1727,3.1834,3.2186,3.2584,3.3147,3.3736,3.4226,3.4545,3.5013,3.5591,3.6016,3.6276,3.6562,3.6597,3.6671,3.6908,3.7327,3.7834,3.8174,3.8535,3.8759,3.8736,3.8619,3.8533,3.8025,3.7515,3.704,3.6057,3.4729,3.3943,3.3495,3.3191,3.2976,3.2687,3.2335,3.2285,3.2385,3.2712,3.3138,3.3263,3.3389,3.3389,3.3389,3.3402,3.3402,3.3389,3.3429,3.3442,3.3482,3.3549,3.3614,3.3668,3.3589,3.3524,3.3203,3.298,3.2252,3.1566,3.1256,3.0849,3.0075,2.9448,2.8778,2.8108,4.5498,4.5834,4.5462,4.5535,4.5883,4.5883,4.5883,4.5883,4.5883,4.5925,4.6017,4.6311,4.6672,4.7094,4.7516,4.7944,4.8255,4.8267,4.7616,4.7011,4.6586,4.6035,4.5054,4.4127,4.3441,4.3136,4.1372,4.0368,3.9944,3.9115,3.793,3.7016,3.678,3.5946,3.5127,3.4548,3.4015,3.3641,3.3402,3.3389,3.3389,3.3389,3.3362,3.332,3.3104,3.2837,3.2567,3.2222,3.1968,3.1767,3.1767,3.193,3.2162,3.2615,3.3115,3.3882,3.4615,3.5136,3.551,3.568,3.5985,3.6375,3.6573,3.6637,3.6745,3.7106,3.7327,3.7649,3.8377,3.884,3.9009,3.9058,3.9193,3.8981,3.8748,3.823,3.7984,3.8096,3.6997,3.5148,3.4181,3.3773,3.3552,3.3387,3.3178,3.2838,3.2812,3.2887,3.2988,3.3314,3.3339,3.3389,3.3389,3.3402,3.344,3.348,3.3574,3.3629,3.3656,3.3761,3.3841,3.3868,3.3908,3.39,3.3824,3.3316,3.2776,3.2108,3.1621,3.1473,3.0958,2.9941,2.8983,2.8202,2.7572,4.5778,4.5883,4.5718,4.5755,4.5883,4.5883,4.5883,4.5883,4.5883,4.6054,4.6292,4.669,4.7094,4.7479,4.7864,4.8145,4.8292,4.8311,4.7609,4.7011,4.6561,4.6035,4.5054,4.4169,4.3467,4.3085,4.1628,4.0445,4.0099,3.9334,3.8451,3.7669,3.7094,3.6398,3.5603,3.4691,3.4002,3.3549,3.3389,3.3389,3.3389,3.3389,3.3389,3.3362,3.3158,3.2971,3.2784,3.2332,3.2104,3.1995,3.1968,3.223,3.2618,3.3153,3.3879,3.4612,3.5343,3.581,3.6183,3.6276,3.64,3.6474,3.6612,3.6721,3.7007,3.7327,3.7955,3.8484,3.9107,3.959,3.9901,3.9831,3.9683,3.9355,3.8889,3.8363,3.8256,3.8408,3.7687,3.5747,3.4738,3.4083,3.3924,3.3816,3.359,3.3379,3.3377,3.3389,3.3389,3.3402,3.3415,3.3519,3.3532,3.3627,3.3668,3.3721,3.3761,3.3828,3.3883,3.4015,3.4108,3.4123,3.4151,3.4168,3.408,3.3654,3.3006,3.2137,3.1589,3.123,3.0461,2.9486,2.8578,2.7709,2.7168,4.5883,4.5883,4.5883,4.5883,4.5883,4.5883,4.5883,4.5883,4.5883,4.6127,4.6531,4.702,4.7424,4.7754,4.8109,4.8292,4.8311,4.8236,4.7609,4.7061,4.6586,4.6052,4.5079,4.4169,4.3467,4.3111,4.1894,4.0729,4.0177,3.9644,3.8841,3.8008,3.7251,3.657,3.5844,3.4901,3.3989,3.3536,3.3389,3.3389,3.3389,3.3389,3.3389,3.3375,3.3227,3.3066,3.2944,3.2612,3.2385,3.2351,3.2431,3.2713,3.3256,3.3879,3.4686,3.5322,3.5845,3.6226,3.6488,3.6587,3.6587,3.6587,3.6819,3.7056,3.7327,3.7647,3.8482,3.9241,3.9856,4.0366,4.065,4.0369,4.0049,3.9696,3.8893,3.8396,3.841,3.8433,3.7555,3.6378,3.5467,3.4493,3.419,3.4055,3.3801,3.3574,3.3427,3.3389,3.3389,3.3415,3.3469,3.3611,3.3742,3.3864,3.3974,3.4002,3.4042,3.4068,3.4136,3.4295,3.4376,3.4403,3.4355,3.4293,3.4163,3.3915,3.3182,3.2184,3.1445,3.0843,2.9975,2.9054,2.8172,2.7357,2.6982,4.5907,4.5883,4.5883,4.5883,4.5883,4.5883,4.5883,4.5902,4.5938,4.6219,4.6696,4.7356,4.7662,4.7827,4.8182,4.8292,4.8311,4.8261,4.7715,4.6911,4.6679,4.6052,4.5079,4.4127,4.3467,4.3085,4.1987,4.0857,4.0202,3.9774,3.91,3.8295,3.7408,3.6489,3.5938,3.4875,3.4015,3.3482,3.3402,3.3389,3.3389,3.3389,3.3389,3.3362,3.3335,3.3227,3.3053,3.2931,3.2741,3.2792,3.3019,3.3368,3.3906,3.4752,3.5382,3.5783,3.6272,3.6523,3.6587,3.6587,3.6587,3.6661,3.6918,3.7327,3.7623,3.8258,3.9076,3.9777,4.0324,4.0841,4.0879,4.064,4.0281,3.9825,3.9063,3.8517,3.8506,3.8486,3.7659,3.6711,3.5794,3.4982,3.4586,3.4255,3.3975,3.3734,3.3494,3.344,3.3495,3.3436,3.3517,3.3889,3.4072,3.4221,3.4345,3.4308,3.4322,3.431,3.4429,3.4603,3.4696,3.4736,3.4648,3.4439,3.4162,3.386,3.3052,3.2117,3.1231,3.0319,2.9563,2.8699,2.7772,2.6999,2.6559,4.6189,4.5883,4.5883,4.5883,4.5883,4.5883,4.5902,4.5938,4.6219,4.6678,4.7246,4.7626,4.7864,4.809,4.82,4.8311,4.8311,4.8286,4.7715,4.6786,4.6704,4.6027,4.5079,4.4118,4.3518,4.3136,4.2141,4.0986,4.0202,3.9929,3.9308,3.8477,3.7432,3.6178,3.5176,3.4348,3.4003,3.3495,3.3389,3.3389,3.3389,3.3389,3.3389,3.3389,3.3389,3.3322,3.3227,3.3131,3.3119,3.332,3.3612,3.3999,3.4668,3.5501,3.5849,3.6202,3.6573,3.6587,3.6587,3.6587,3.6587,3.6785,3.713,3.7598,3.7957,3.8787,3.9553,4.0214,4.0746,4.122,4.1439,4.0662,4.0228,3.997,3.9323,3.8725,3.8521,3.8478,3.8016,3.6909,3.5935,3.5262,3.4762,3.4616,3.4376,3.4215,3.4042,3.3948,3.3963,3.3631,3.3544,3.4135,3.4459,3.4621,3.4704,3.4628,3.4696,3.4737,3.4857,3.4977,3.5044,3.4977,3.4676,3.432,3.4054,3.3735,3.2607,3.1516,3.058,2.9711,2.8915,2.8134,2.727,2.6522,2.5925,4.6588,4.6142,4.6142,4.6025,4.5907,4.5883,4.5957,4.6177,4.6678,4.7246,4.7626,4.7827,4.8054,4.8255,4.8311,4.8311,4.8311,4.8286,4.7715,4.6811,4.6704,4.601,4.5079,4.4093,4.3569,4.3162,4.2345,4.1259,4.0254,4.0202,3.9411,3.8295,3.7498,3.6301,3.5155,3.4435,3.3989,3.3549,3.3389,3.3389,3.3389,3.3389,3.3389,3.3389,3.3389,3.3375,3.3347,3.3315,3.3393,3.3814,3.4234,3.4604,3.5379,3.5909,3.6241,3.6513,3.6587,3.6587,3.6587,3.6859,3.6908,3.6982,3.7377,3.7954,3.8577,3.937,4.0117,4.0739,4.1157,4.1417,4.1508,4.0713,4.0202,3.9944,3.9349,3.8699,3.8521,3.8478,3.8088,3.7019,3.5979,3.5371,3.4976,3.495,3.4843,3.471,3.459,3.4497,3.4402,3.4079,3.386,3.4352,3.4769,3.4903,3.4946,3.4949,3.5017,3.5164,3.5191,3.5191,3.5045,3.49,3.4557,3.42,3.3828,3.323,3.1928,3.0836,3.0151,2.9184,2.8134,2.7405,2.6684,2.6115,2.5544,4.7121,4.6658,4.6635,4.6414,4.6061,4.6166,4.6321,4.6623,4.7356,4.7681,4.7754,4.8145,4.8274,4.8292,4.8311,4.8311,4.8311,4.8311,4.7591,4.6961,4.6704,4.596,4.5104,4.4143,4.3696,4.3162,4.2422,4.149,4.0357,4.0032,3.9204,3.8164,3.7695,3.6636,3.5591,3.4831,3.4216,3.3649,3.3389,3.3389,3.3389,3.3389,3.3389,3.3389,3.3389,3.345,3.3487,3.3535,3.386,3.4297,3.477,3.5281,3.5816,3.6301,3.6513,3.6587,3.6587,3.6612,3.6785,3.713,3.7475,3.7598,3.8003,3.8673,3.9278,3.9854,4.054,4.0979,4.1331,4.1487,4.1514,4.0826,4.0177,3.9685,3.9089,3.8725,3.8558,3.8289,3.7874,3.7007,3.5915,3.5269,3.515,3.511,3.5044,3.5017,3.4871,3.4777,3.4683,3.4589,3.4434,3.4619,3.496,3.5106,3.5161,3.511,3.511,3.5204,3.5204,3.5164,3.5006,3.4768,3.4319,3.3935,3.3561,3.2697,3.1287,3.0473,2.9937,2.8899,2.7767,2.7145,2.6603,2.5952,2.5408,4.7592,4.721,4.7493,4.7512,4.7441,4.7649,4.7604,4.7436,4.7626,4.7852,4.8145,4.8255,4.8311,4.8311,4.8311,4.8311,4.8311,4.8162,4.7584,4.7061,4.6611,4.5977,4.5197,4.4371,4.3915,4.3365,4.2677,4.1798,4.078,4.0187,3.9308,3.8399,3.793,3.7102,3.6376,3.573,3.4681,3.3851,3.3577,3.3514,3.3464,3.3464,3.3464,3.3464,3.3464,3.3614,3.3889,3.3964,3.4388,3.5185,3.5433,3.583,3.635,3.6538,3.6587,3.6587,3.6637,3.6735,3.7106,3.7327,3.7712,3.8378,3.8854,3.9098,3.964,4.0239,4.0864,4.1204,4.1481,4.162,4.1325,4.0688,4.0084,3.9541,3.8996,3.8647,3.8521,3.8396,3.7914,3.6757,3.5638,3.5296,3.5204,3.5191,3.5137,3.5177,3.5151,3.5044,3.4963,3.4843,3.483,3.4976,3.5069,3.5175,3.5189,3.5164,3.5177,3.5204,3.5204,3.5151,3.5032,3.4716,3.4134,3.3564,3.3004,3.1899,3.0565,3.0017,2.9841,2.8684,2.7604,2.7036,2.6467,2.5843,2.5327,4.8242,4.7994,4.82,4.8391,4.8485,4.8493,4.8359,4.822,4.8036,4.8084,4.8292,4.8311,4.8311,4.8311,4.8311,4.8311,4.8286,4.7964,4.746,4.6886,4.6486,4.5834,4.5172,4.4565,4.4017,4.3492,4.2856,4.2038,4.1012,3.9955,3.9074,3.8517,3.8127,3.7541,3.6885,3.6275,3.5458,3.4594,3.4039,3.3914,3.3789,3.3714,3.3714,3.3714,3.3714,3.4014,3.4438,3.4513,3.5011,3.5681,3.5781,3.6053,3.6474,3.6587,3.6587,3.6587,3.6612,3.6884,3.7278,3.7623,3.8264,3.8977,3.9599,3.9948,4.0275,4.0793,4.1163,4.1474,4.1614,4.1603,4.1063,4.0523,3.9981,3.9463,3.8996,3.8569,3.8524,3.8518,3.7612,3.6414,3.5744,3.5349,3.5204,3.5204,3.5204,3.5204,3.5204,3.5164,3.511,3.5084,3.5044,3.511,3.5137,3.5204,3.5204,3.5204,3.5204,3.5204,3.5204,3.5151,3.5046,3.4451,3.3683,3.2967,3.2314,3.1261,3.035,3.0109,2.9787,2.8625,2.7634,2.7071,2.6424,2.5692,2.5247,4.8947,4.8932,4.8928,4.9167,4.9311,4.8969,4.8882,4.9033,4.8546,4.8335,4.8335,4.8311,4.8311,4.8311,4.8311,4.8311,4.8162,4.7833,4.7335,4.6679,4.6228,4.5676,4.5147,4.4616,4.4143,4.356,4.2932,4.2269,4.1048,4.0084,3.9308,3.8621,3.8392,3.7876,3.7105,3.6831,3.6148,3.5397,3.5036,3.4911,3.4413,3.4263,3.4263,3.4263,3.4338,3.4513,3.4911,3.5135,3.5284,3.5657,3.5954,3.6177,3.64,3.6587,3.6587,3.6686,3.6711,3.7106,3.7574,3.8016,3.8707,3.9404,4.0052,4.0524,4.0859,4.1059,4.1322,4.1601,4.1741,4.1372,4.0832,4.0419,3.9929,3.9334,3.8789,3.8399,3.8219,3.7912,3.6969,3.5968,3.5507,3.5204,3.5204,3.5204,3.5204,3.5204,3.5204,3.5204,3.5204,3.5204,3.5204,3.5204,3.5204,3.5204,3.5204,3.5204,3.5204,3.5204,3.5204,3.5178,3.5125,3.424,3.3126,3.2553,3.1967,3.1234,3.0511,3.0243,2.9713,2.8723,2.7793,2.7142,2.6455,2.5737,2.5214,4.9539,4.9873,5.0204,5.0344,5.0352,5.0244,4.972,4.9101,4.8978,4.8675,4.836,4.8311,4.8311,4.8311,4.8347,4.8366,4.8217,4.7804,4.7221,4.6714,4.6163,4.5609,4.5222,4.4894,4.4321,4.3721,4.3136,4.2396,4.1151,4.029,3.9722,3.9148,3.8689,3.7947,3.7364,3.7164,3.6646,3.6032,3.5979,3.5607,3.4997,3.4823,3.4812,3.4812,3.4862,3.511,3.5433,3.5632,3.5929,3.6315,3.6375,3.6498,3.6587,3.6587,3.6612,3.6661,3.6982,3.7401,3.7982,3.8519,3.9196,3.9872,4.0472,4.0871,4.115,4.1236,4.1411,4.1681,4.1618,4.1115,4.0651,4.0265,3.9825,3.9178,3.8569,3.8243,3.793,3.7122,3.6284,3.5771,3.5283,3.5204,3.5204,3.5204,3.5204,3.5204,3.5204,3.5204,3.5204,3.5204,3.5204,3.5204,3.5204,3.5204,3.5204,3.5204,3.5204,3.5204,3.5204,3.5204,3.5151,3.4187,3.3153,3.2367,3.1673,3.1085,3.0603,3.0228,2.9612,2.8695,2.7906,2.7226,2.6729,2.608,2.5469,5.0058,5.0488,5.0874,5.1041,5.0968,5.0793,5.0206,4.9551,4.9386,4.9058,4.8574,4.8377,4.8311,4.8384,4.8494,4.8561,4.8448,4.7946,4.7465,4.6922,4.6169,4.557,4.5266,4.5096,4.4346,4.3696,4.2907,4.2038,4.1099,4.0703,4.0224,3.9481,3.8748,3.8181,3.7704,3.7281,3.6944,3.6602,3.6612,3.6226,3.5607,3.5508,3.5384,3.5359,3.5433,3.5681,3.5954,3.6152,3.6301,3.6513,3.6562,3.6562,3.6587,3.6587,3.676,3.6982,3.7303,3.7721,3.8415,3.9029,3.961,4.0278,4.0817,4.1182,4.1458,4.1585,4.1585,4.1757,4.1423,4.096,4.0419,3.9981,3.9437,3.8815,3.8257,3.784,3.7358,3.6691,3.6008,3.5468,3.5204,3.5204,3.5204,3.5204,3.5204,3.5204,3.5204,3.5204,3.5204,3.5204,3.5204,3.5204,3.5204,3.5204,3.5204,3.5204,3.5204,3.5204,3.5204,3.4795,3.4478,3.3922,3.3218,3.234,3.1632,3.1192,3.071,3.0362,2.9675,2.882,2.8031,2.73,2.6852,2.6406,2.5706,5.0532,5.0894,5.1245,5.144,5.1426,5.0987,5.0531,5.0079,4.9866,4.9484,4.8996,4.8634,4.8476,4.8604,4.8781,4.8909,4.8754,4.814,4.7672,4.7141,4.6213,4.5684,4.5343,4.5105,4.4371,4.3518,4.2652,4.1961,4.1218,4.0935,4.044,3.9647,3.9052,3.8519,3.7842,3.7312,3.6995,3.6695,3.6587,3.6587,3.6375,3.6177,3.5979,3.5905,3.5954,3.6152,3.6449,3.6587,3.6587,3.6587,3.6587,3.6587,3.6686,3.6735,3.7007,3.7253,3.7697,3.8212,3.8798,3.9366,4.0,4.0612,4.1068,4.1411,4.1697,4.1766,4.1782,4.1459,4.1125,4.0729,4.0187,3.9696,3.9126,3.8477,3.797,3.7462,3.6874,3.6284,3.5718,3.5204,3.5204,3.5204,3.5204,3.5204,3.5204,3.5204,3.5204,3.5204,3.5204,3.5204,3.5204,3.5204,3.5204,3.5204,3.5204,3.5204,3.5204,3.5204,3.5098,3.4451,3.3922,3.363,3.3112,3.2219,3.1579,3.1314,3.0897,3.0476,2.973,2.9021,2.8354,2.7731,2.7306,2.6798,2.5953,5.0913,5.1304,5.1358,5.1616,5.184,5.1407,5.1061,5.0817,5.0365,4.9885,4.9487,4.9349,4.9276,4.9276,4.9331,4.9361,4.9245,4.8483,4.802,4.7596,4.637,4.5822,4.5438,4.5055,4.4414,4.3569,4.2754,4.2217,4.1551,4.1192,4.0919,4.0569,3.948,3.8852,3.8293,3.7739,3.7209,3.6958,3.6785,3.6809,3.6711,3.6548,3.6474,3.6449,3.6449,3.6498,3.6587,3.6587,3.6587,3.6587,3.6612,3.6612,3.6785,3.6982,3.7278,3.7721,3.8139,3.8651,3.9225,3.9787,4.0415,4.0773,4.1173,4.1474,4.1671,4.1705,4.1526,4.1073,4.0713,4.0353,3.9877,3.9541,3.9022,3.8269,3.7657,3.7163,3.664,3.5995,3.5362,3.5204,3.5204,3.5204,3.5204,3.5204,3.5204,3.5204,3.5204,3.5204,3.5204,3.5204,3.5204,3.5204,3.5204,3.5204,3.5204,3.5204,3.5204,3.5204,3.5046,3.4478,3.4001,3.363,3.3006,3.212,3.1839,3.1704,3.1231,3.0733,3.0081,2.9402,2.8781,2.8239,2.7776,2.7066,2.615]}]]